<?xml version="1.0" encoding="UTF-8" standalone="no" ?>
<gpx xmlns="http://www.topografix.com/GPX/1/1" xmlns:xsi="http://www.w3.org/2001/XMLSchema-instance" xsi:schemaLocation="http://www.topografix.com/GPX/1/1 http://www.topografix.com/GPX/1/1/gpx.xsd" version="1.1" creator="VisuGPX - https://www.visugpx.com">
  <metadata>
    <name>Sortie foret de canteleu</name>
    <desc><![CDATA[passe par une un bon pétard sous les lignes électriques]]></desc>
  </metadata>
  <trk>
    <name><![CDATA[2018-05-13 18:57:16]]></name>
    <trkseg>
      <trkpt lat="49.44138" lon="1.08188">
        <ele>54.45</ele>
        <time>2018-05-13T15:17:18Z</time>
      </trkpt>
      <trkpt lat="49.44132" lon="1.08197">
        <ele>53.97</ele>
        <time>2018-05-13T15:17:20Z</time>
      </trkpt>
      <trkpt lat="49.44116" lon="1.08225">
        <ele>53.97</ele>
        <time>2018-05-13T15:17:25Z</time>
      </trkpt>
      <trkpt lat="49.44111" lon="1.08258">
        <ele>53.97</ele>
        <time>2018-05-13T15:17:32Z</time>
      </trkpt>
      <trkpt lat="49.4411" lon="1.08261">
        <ele>53.49</ele>
        <time>2018-05-13T15:17:33Z</time>
      </trkpt>
      <trkpt lat="49.44109" lon="1.08264">
        <ele>53.49</ele>
        <time>2018-05-13T15:17:34Z</time>
      </trkpt>
      <trkpt lat="49.44107" lon="1.08266">
        <ele>53.49</ele>
        <time>2018-05-13T15:17:35Z</time>
      </trkpt>
      <trkpt lat="49.44104" lon="1.08265">
        <ele>53.49</ele>
        <time>2018-05-13T15:17:37Z</time>
      </trkpt>
      <trkpt lat="49.44099" lon="1.08265">
        <ele>53.49</ele>
        <time>2018-05-13T15:17:39Z</time>
      </trkpt>
      <trkpt lat="49.44093" lon="1.08269">
        <ele>53.49</ele>
        <time>2018-05-13T15:17:43Z</time>
      </trkpt>
      <trkpt lat="49.44092" lon="1.08268">
        <ele>53.49</ele>
        <time>2018-05-13T15:17:44Z</time>
      </trkpt>
      <trkpt lat="49.4409" lon="1.08266">
        <ele>53.49</ele>
        <time>2018-05-13T15:17:45Z</time>
      </trkpt>
      <trkpt lat="49.44077" lon="1.08251">
        <ele>53.49</ele>
        <time>2018-05-13T15:17:50Z</time>
      </trkpt>
      <trkpt lat="49.44076" lon="1.08245">
        <ele>53.49</ele>
        <time>2018-05-13T15:17:51Z</time>
      </trkpt>
      <trkpt lat="49.44075" lon="1.0824">
        <ele>53.01</ele>
        <time>2018-05-13T15:17:52Z</time>
      </trkpt>
      <trkpt lat="49.44073" lon="1.08234">
        <ele>53.01</ele>
        <time>2018-05-13T15:17:53Z</time>
      </trkpt>
      <trkpt lat="49.44071" lon="1.08227">
        <ele>53.01</ele>
        <time>2018-05-13T15:17:54Z</time>
      </trkpt>
      <trkpt lat="49.44073" lon="1.08222">
        <ele>53.01</ele>
        <time>2018-05-13T15:17:55Z</time>
      </trkpt>
      <trkpt lat="49.44075" lon="1.08216">
        <ele>53.01</ele>
        <time>2018-05-13T15:17:56Z</time>
      </trkpt>
      <trkpt lat="49.44077" lon="1.08211">
        <ele>53.01</ele>
        <time>2018-05-13T15:17:57Z</time>
      </trkpt>
      <trkpt lat="49.44078" lon="1.08204">
        <ele>53.01</ele>
        <time>2018-05-13T15:17:58Z</time>
      </trkpt>
      <trkpt lat="49.44077" lon="1.08197">
        <ele>53.01</ele>
        <time>2018-05-13T15:17:59Z</time>
      </trkpt>
      <trkpt lat="49.44075" lon="1.08189">
        <ele>53.01</ele>
        <time>2018-05-13T15:18:00Z</time>
      </trkpt>
      <trkpt lat="49.44073" lon="1.08181">
        <ele>53.01</ele>
        <time>2018-05-13T15:18:01Z</time>
      </trkpt>
      <trkpt lat="49.4407" lon="1.08174">
        <ele>53.01</ele>
        <time>2018-05-13T15:18:02Z</time>
      </trkpt>
      <trkpt lat="49.44067" lon="1.08166">
        <ele>53.01</ele>
        <time>2018-05-13T15:18:03Z</time>
      </trkpt>
      <trkpt lat="49.44064" lon="1.0816">
        <ele>53.01</ele>
        <time>2018-05-13T15:18:04Z</time>
      </trkpt>
      <trkpt lat="49.44062" lon="1.08153">
        <ele>53.01</ele>
        <time>2018-05-13T15:18:05Z</time>
      </trkpt>
      <trkpt lat="49.44061" lon="1.08145">
        <ele>53.01</ele>
        <time>2018-05-13T15:18:06Z</time>
      </trkpt>
      <trkpt lat="49.44062" lon="1.08112">
        <ele>52.53</ele>
        <time>2018-05-13T15:18:10Z</time>
      </trkpt>
      <trkpt lat="49.44064" lon="1.08106">
        <ele>52.53</ele>
        <time>2018-05-13T15:18:11Z</time>
      </trkpt>
      <trkpt lat="49.44092" lon="1.0804">
        <ele>52.05</ele>
        <time>2018-05-13T15:18:22Z</time>
      </trkpt>
      <trkpt lat="49.44093" lon="1.08034">
        <ele>52.05</ele>
        <time>2018-05-13T15:18:23Z</time>
      </trkpt>
      <trkpt lat="49.44094" lon="1.08027">
        <ele>52.05</ele>
        <time>2018-05-13T15:18:24Z</time>
      </trkpt>
      <trkpt lat="49.44095" lon="1.08021">
        <ele>51.57</ele>
        <time>2018-05-13T15:18:25Z</time>
      </trkpt>
      <trkpt lat="49.44097" lon="1.08015">
        <ele>51.57</ele>
        <time>2018-05-13T15:18:26Z</time>
      </trkpt>
      <trkpt lat="49.44099" lon="1.08009">
        <ele>51.57</ele>
        <time>2018-05-13T15:18:27Z</time>
      </trkpt>
      <trkpt lat="49.44102" lon="1.08003">
        <ele>51.57</ele>
        <time>2018-05-13T15:18:28Z</time>
      </trkpt>
      <trkpt lat="49.44103" lon="1.07997">
        <ele>51.57</ele>
        <time>2018-05-13T15:18:29Z</time>
      </trkpt>
      <trkpt lat="49.44105" lon="1.07989">
        <ele>51.57</ele>
        <time>2018-05-13T15:18:30Z</time>
      </trkpt>
      <trkpt lat="49.44106" lon="1.07982">
        <ele>51.57</ele>
        <time>2018-05-13T15:18:31Z</time>
      </trkpt>
      <trkpt lat="49.44108" lon="1.07975">
        <ele>51.57</ele>
        <time>2018-05-13T15:18:32Z</time>
      </trkpt>
      <trkpt lat="49.4411" lon="1.07968">
        <ele>51.57</ele>
        <time>2018-05-13T15:18:33Z</time>
      </trkpt>
      <trkpt lat="49.44113" lon="1.07962">
        <ele>51.57</ele>
        <time>2018-05-13T15:18:34Z</time>
      </trkpt>
      <trkpt lat="49.44116" lon="1.07957">
        <ele>51.57</ele>
        <time>2018-05-13T15:18:35Z</time>
      </trkpt>
      <trkpt lat="49.44118" lon="1.07951">
        <ele>51.57</ele>
        <time>2018-05-13T15:18:36Z</time>
      </trkpt>
      <trkpt lat="49.4412" lon="1.07944">
        <ele>51.57</ele>
        <time>2018-05-13T15:18:37Z</time>
      </trkpt>
      <trkpt lat="49.44121" lon="1.07937">
        <ele>51.57</ele>
        <time>2018-05-13T15:18:38Z</time>
      </trkpt>
      <trkpt lat="49.44122" lon="1.07929">
        <ele>51.57</ele>
        <time>2018-05-13T15:18:39Z</time>
      </trkpt>
      <trkpt lat="49.44123" lon="1.07922">
        <ele>51.57</ele>
        <time>2018-05-13T15:18:40Z</time>
      </trkpt>
      <trkpt lat="49.44125" lon="1.07916">
        <ele>51.57</ele>
        <time>2018-05-13T15:18:41Z</time>
      </trkpt>
      <trkpt lat="49.44161" lon="1.07803">
        <ele>51.09</ele>
        <time>2018-05-13T15:18:58Z</time>
      </trkpt>
      <trkpt lat="49.44194" lon="1.07695">
        <ele>50.61</ele>
        <time>2018-05-13T15:19:14Z</time>
      </trkpt>
      <trkpt lat="49.44205" lon="1.07664">
        <ele>50.61</ele>
        <time>2018-05-13T15:19:19Z</time>
      </trkpt>
      <trkpt lat="49.44208" lon="1.07658">
        <ele>50.61</ele>
        <time>2018-05-13T15:19:20Z</time>
      </trkpt>
      <trkpt lat="49.44212" lon="1.07652">
        <ele>50.61</ele>
        <time>2018-05-13T15:19:21Z</time>
      </trkpt>
      <trkpt lat="49.44215" lon="1.07647">
        <ele>50.13</ele>
        <time>2018-05-13T15:19:22Z</time>
      </trkpt>
      <trkpt lat="49.44217" lon="1.07642">
        <ele>50.13</ele>
        <time>2018-05-13T15:19:23Z</time>
      </trkpt>
      <trkpt lat="49.44219" lon="1.07636">
        <ele>50.13</ele>
        <time>2018-05-13T15:19:24Z</time>
      </trkpt>
      <trkpt lat="49.44245" lon="1.07547">
        <ele>50.13</ele>
        <time>2018-05-13T15:19:36Z</time>
      </trkpt>
      <trkpt lat="49.44264" lon="1.0748">
        <ele>49.65</ele>
        <time>2018-05-13T15:19:45Z</time>
      </trkpt>
      <trkpt lat="49.44265" lon="1.07472">
        <ele>49.65</ele>
        <time>2018-05-13T15:19:46Z</time>
      </trkpt>
      <trkpt lat="49.44267" lon="1.07455">
        <ele>49.65</ele>
        <time>2018-05-13T15:19:48Z</time>
      </trkpt>
      <trkpt lat="49.4427" lon="1.07448">
        <ele>49.65</ele>
        <time>2018-05-13T15:19:49Z</time>
      </trkpt>
      <trkpt lat="49.44293" lon="1.07364">
        <ele>49.16</ele>
        <time>2018-05-13T15:20:02Z</time>
      </trkpt>
      <trkpt lat="49.44295" lon="1.07357">
        <ele>49.16</ele>
        <time>2018-05-13T15:20:03Z</time>
      </trkpt>
      <trkpt lat="49.44322" lon="1.07268">
        <ele>49.16</ele>
        <time>2018-05-13T15:20:16Z</time>
      </trkpt>
      <trkpt lat="49.44324" lon="1.07262">
        <ele>49.16</ele>
        <time>2018-05-13T15:20:17Z</time>
      </trkpt>
      <trkpt lat="49.44326" lon="1.07256">
        <ele>49.16</ele>
        <time>2018-05-13T15:20:18Z</time>
      </trkpt>
      <trkpt lat="49.44341" lon="1.07213">
        <ele>48.68</ele>
        <time>2018-05-13T15:20:25Z</time>
      </trkpt>
      <trkpt lat="49.44372" lon="1.07094">
        <ele>48.2</ele>
        <time>2018-05-13T15:20:42Z</time>
      </trkpt>
      <trkpt lat="49.44377" lon="1.07073">
        <ele>48.2</ele>
        <time>2018-05-13T15:20:45Z</time>
      </trkpt>
      <trkpt lat="49.44391" lon="1.07023">
        <ele>48.2</ele>
        <time>2018-05-13T15:20:52Z</time>
      </trkpt>
      <trkpt lat="49.44392" lon="1.07015">
        <ele>48.2</ele>
        <time>2018-05-13T15:20:53Z</time>
      </trkpt>
      <trkpt lat="49.44394" lon="1.07">
        <ele>48.2</ele>
        <time>2018-05-13T15:20:55Z</time>
      </trkpt>
      <trkpt lat="49.44395" lon="1.06993">
        <ele>48.2</ele>
        <time>2018-05-13T15:20:56Z</time>
      </trkpt>
      <trkpt lat="49.44406" lon="1.06947">
        <ele>47.72</ele>
        <time>2018-05-13T15:21:02Z</time>
      </trkpt>
      <trkpt lat="49.44407" lon="1.0694">
        <ele>47.72</ele>
        <time>2018-05-13T15:21:03Z</time>
      </trkpt>
      <trkpt lat="49.44408" lon="1.06932">
        <ele>47.72</ele>
        <time>2018-05-13T15:21:04Z</time>
      </trkpt>
      <trkpt lat="49.44409" lon="1.06924">
        <ele>47.72</ele>
        <time>2018-05-13T15:21:05Z</time>
      </trkpt>
      <trkpt lat="49.44411" lon="1.06917">
        <ele>47.72</ele>
        <time>2018-05-13T15:21:06Z</time>
      </trkpt>
      <trkpt lat="49.44415" lon="1.06903">
        <ele>47.72</ele>
        <time>2018-05-13T15:21:08Z</time>
      </trkpt>
      <trkpt lat="49.44415" lon="1.06895">
        <ele>47.72</ele>
        <time>2018-05-13T15:21:09Z</time>
      </trkpt>
      <trkpt lat="49.44414" lon="1.06887">
        <ele>47.72</ele>
        <time>2018-05-13T15:21:10Z</time>
      </trkpt>
      <trkpt lat="49.44415" lon="1.06879">
        <ele>47.72</ele>
        <time>2018-05-13T15:21:11Z</time>
      </trkpt>
      <trkpt lat="49.44416" lon="1.06871">
        <ele>47.72</ele>
        <time>2018-05-13T15:21:12Z</time>
      </trkpt>
      <trkpt lat="49.44418" lon="1.06863">
        <ele>47.72</ele>
        <time>2018-05-13T15:21:13Z</time>
      </trkpt>
      <trkpt lat="49.44441" lon="1.06709">
        <ele>48.2</ele>
        <time>2018-05-13T15:21:33Z</time>
      </trkpt>
      <trkpt lat="49.44441" lon="1.06702">
        <ele>48.2</ele>
        <time>2018-05-13T15:21:34Z</time>
      </trkpt>
      <trkpt lat="49.44441" lon="1.06694">
        <ele>48.2</ele>
        <time>2018-05-13T15:21:35Z</time>
      </trkpt>
      <trkpt lat="49.44441" lon="1.06685">
        <ele>48.2</ele>
        <time>2018-05-13T15:21:36Z</time>
      </trkpt>
      <trkpt lat="49.44443" lon="1.06669">
        <ele>46.76</ele>
        <time>2018-05-13T15:21:38Z</time>
      </trkpt>
      <trkpt lat="49.4445" lon="1.0658">
        <ele>46.76</ele>
        <time>2018-05-13T15:21:49Z</time>
      </trkpt>
      <trkpt lat="49.44449" lon="1.06556">
        <ele>46.76</ele>
        <time>2018-05-13T15:21:52Z</time>
      </trkpt>
      <trkpt lat="49.44452" lon="1.06483">
        <ele>46.28</ele>
        <time>2018-05-13T15:22:01Z</time>
      </trkpt>
      <trkpt lat="49.44453" lon="1.06475">
        <ele>46.28</ele>
        <time>2018-05-13T15:22:02Z</time>
      </trkpt>
      <trkpt lat="49.44455" lon="1.06467">
        <ele>46.28</ele>
        <time>2018-05-13T15:22:03Z</time>
      </trkpt>
      <trkpt lat="49.44456" lon="1.06459">
        <ele>46.28</ele>
        <time>2018-05-13T15:22:04Z</time>
      </trkpt>
      <trkpt lat="49.44456" lon="1.0645">
        <ele>46.28</ele>
        <time>2018-05-13T15:22:05Z</time>
      </trkpt>
      <trkpt lat="49.44456" lon="1.06442">
        <ele>46.28</ele>
        <time>2018-05-13T15:22:06Z</time>
      </trkpt>
      <trkpt lat="49.44455" lon="1.06434">
        <ele>46.28</ele>
        <time>2018-05-13T15:22:07Z</time>
      </trkpt>
      <trkpt lat="49.44455" lon="1.06426">
        <ele>46.28</ele>
        <time>2018-05-13T15:22:08Z</time>
      </trkpt>
      <trkpt lat="49.44455" lon="1.06419">
        <ele>46.28</ele>
        <time>2018-05-13T15:22:09Z</time>
      </trkpt>
      <trkpt lat="49.44456" lon="1.06343">
        <ele>45.8</ele>
        <time>2018-05-13T15:22:19Z</time>
      </trkpt>
      <trkpt lat="49.44455" lon="1.06335">
        <ele>45.8</ele>
        <time>2018-05-13T15:22:20Z</time>
      </trkpt>
      <trkpt lat="49.44455" lon="1.06319">
        <ele>45.8</ele>
        <time>2018-05-13T15:22:22Z</time>
      </trkpt>
      <trkpt lat="49.44455" lon="1.06311">
        <ele>45.8</ele>
        <time>2018-05-13T15:22:23Z</time>
      </trkpt>
      <trkpt lat="49.44472" lon="1.06256">
        <ele>45.8</ele>
        <time>2018-05-13T15:22:33Z</time>
      </trkpt>
      <trkpt lat="49.44475" lon="1.06256">
        <ele>45.8</ele>
        <time>2018-05-13T15:22:34Z</time>
      </trkpt>
      <trkpt lat="49.44477" lon="1.06256">
        <ele>45.8</ele>
        <time>2018-05-13T15:22:35Z</time>
      </trkpt>
      <trkpt lat="49.44482" lon="1.06256">
        <ele>46.76</ele>
        <time>2018-05-13T15:22:37Z</time>
      </trkpt>
      <trkpt lat="49.44487" lon="1.0625">
        <ele>46.76</ele>
        <time>2018-05-13T15:22:39Z</time>
      </trkpt>
      <trkpt lat="49.44491" lon="1.06234">
        <ele>46.76</ele>
        <time>2018-05-13T15:22:42Z</time>
      </trkpt>
      <trkpt lat="49.44514" lon="1.06179">
        <ele>46.76</ele>
        <time>2018-05-13T15:22:51Z</time>
      </trkpt>
      <trkpt lat="49.44529" lon="1.06158">
        <ele>46.76</ele>
        <time>2018-05-13T15:22:55Z</time>
      </trkpt>
      <trkpt lat="49.44533" lon="1.06155">
        <ele>46.76</ele>
        <time>2018-05-13T15:22:56Z</time>
      </trkpt>
      <trkpt lat="49.44538" lon="1.06151">
        <ele>46.76</ele>
        <time>2018-05-13T15:22:57Z</time>
      </trkpt>
      <trkpt lat="49.44542" lon="1.06149">
        <ele>46.76</ele>
        <time>2018-05-13T15:22:58Z</time>
      </trkpt>
      <trkpt lat="49.44547" lon="1.06146">
        <ele>46.76</ele>
        <time>2018-05-13T15:22:59Z</time>
      </trkpt>
      <trkpt lat="49.44552" lon="1.06143">
        <ele>46.76</ele>
        <time>2018-05-13T15:23:00Z</time>
      </trkpt>
      <trkpt lat="49.44556" lon="1.06139">
        <ele>46.76</ele>
        <time>2018-05-13T15:23:01Z</time>
      </trkpt>
      <trkpt lat="49.44641" lon="1.0606">
        <ele>46.28</ele>
        <time>2018-05-13T15:23:20Z</time>
      </trkpt>
      <trkpt lat="49.44727" lon="1.05969">
        <ele>45.8</ele>
        <time>2018-05-13T15:23:39Z</time>
      </trkpt>
      <trkpt lat="49.448" lon="1.05893">
        <ele>45.32</ele>
        <time>2018-05-13T15:23:56Z</time>
      </trkpt>
      <trkpt lat="49.4483" lon="1.05867">
        <ele>45.32</ele>
        <time>2018-05-13T15:24:03Z</time>
      </trkpt>
      <trkpt lat="49.44835" lon="1.05863">
        <ele>45.32</ele>
        <time>2018-05-13T15:24:04Z</time>
      </trkpt>
      <trkpt lat="49.44843" lon="1.05854">
        <ele>45.32</ele>
        <time>2018-05-13T15:24:06Z</time>
      </trkpt>
      <trkpt lat="49.44847" lon="1.05849">
        <ele>45.32</ele>
        <time>2018-05-13T15:24:07Z</time>
      </trkpt>
      <trkpt lat="49.44881" lon="1.05792">
        <ele>44.84</ele>
        <time>2018-05-13T15:24:16Z</time>
      </trkpt>
      <trkpt lat="49.44899" lon="1.05772">
        <ele>43.88</ele>
        <time>2018-05-13T15:24:20Z</time>
      </trkpt>
      <trkpt lat="49.44983" lon="1.0568">
        <ele>43.4</ele>
        <time>2018-05-13T15:24:39Z</time>
      </trkpt>
      <trkpt lat="49.4502" lon="1.05637">
        <ele>43.4</ele>
        <time>2018-05-13T15:24:48Z</time>
      </trkpt>
      <trkpt lat="49.45024" lon="1.05631">
        <ele>42.92</ele>
        <time>2018-05-13T15:24:49Z</time>
      </trkpt>
      <trkpt lat="49.45026" lon="1.05625">
        <ele>42.92</ele>
        <time>2018-05-13T15:24:50Z</time>
      </trkpt>
      <trkpt lat="49.45029" lon="1.05618">
        <ele>42.92</ele>
        <time>2018-05-13T15:24:51Z</time>
      </trkpt>
      <trkpt lat="49.45031" lon="1.0561">
        <ele>44.36</ele>
        <time>2018-05-13T15:24:52Z</time>
      </trkpt>
      <trkpt lat="49.45032" lon="1.05603">
        <ele>44.36</ele>
        <time>2018-05-13T15:24:53Z</time>
      </trkpt>
      <trkpt lat="49.45032" lon="1.05594">
        <ele>44.36</ele>
        <time>2018-05-13T15:24:54Z</time>
      </trkpt>
      <trkpt lat="49.45033" lon="1.05586">
        <ele>44.36</ele>
        <time>2018-05-13T15:24:55Z</time>
      </trkpt>
      <trkpt lat="49.45032" lon="1.05578">
        <ele>44.36</ele>
        <time>2018-05-13T15:24:56Z</time>
      </trkpt>
      <trkpt lat="49.45031" lon="1.0557">
        <ele>44.36</ele>
        <time>2018-05-13T15:24:57Z</time>
      </trkpt>
      <trkpt lat="49.45029" lon="1.05562">
        <ele>44.36</ele>
        <time>2018-05-13T15:24:58Z</time>
      </trkpt>
      <trkpt lat="49.45027" lon="1.05555">
        <ele>44.36</ele>
        <time>2018-05-13T15:24:59Z</time>
      </trkpt>
      <trkpt lat="49.45025" lon="1.05547">
        <ele>44.36</ele>
        <time>2018-05-13T15:25:00Z</time>
      </trkpt>
      <trkpt lat="49.45023" lon="1.05539">
        <ele>44.36</ele>
        <time>2018-05-13T15:25:01Z</time>
      </trkpt>
      <trkpt lat="49.4502" lon="1.05533">
        <ele>44.36</ele>
        <time>2018-05-13T15:25:02Z</time>
      </trkpt>
      <trkpt lat="49.45016" lon="1.05526">
        <ele>44.36</ele>
        <time>2018-05-13T15:25:03Z</time>
      </trkpt>
      <trkpt lat="49.45013" lon="1.05519">
        <ele>44.36</ele>
        <time>2018-05-13T15:25:04Z</time>
      </trkpt>
      <trkpt lat="49.4501" lon="1.05512">
        <ele>44.36</ele>
        <time>2018-05-13T15:25:05Z</time>
      </trkpt>
      <trkpt lat="49.45008" lon="1.05504">
        <ele>43.88</ele>
        <time>2018-05-13T15:25:06Z</time>
      </trkpt>
      <trkpt lat="49.44982" lon="1.05366">
        <ele>43.88</ele>
        <time>2018-05-13T15:25:23Z</time>
      </trkpt>
      <trkpt lat="49.4496" lon="1.05243">
        <ele>43.4</ele>
        <time>2018-05-13T15:25:38Z</time>
      </trkpt>
      <trkpt lat="49.44957" lon="1.0521">
        <ele>43.4</ele>
        <time>2018-05-13T15:25:42Z</time>
      </trkpt>
      <trkpt lat="49.44955" lon="1.05202">
        <ele>43.4</ele>
        <time>2018-05-13T15:25:43Z</time>
      </trkpt>
      <trkpt lat="49.44924" lon="1.05111">
        <ele>42.92</ele>
        <time>2018-05-13T15:25:55Z</time>
      </trkpt>
      <trkpt lat="49.44901" lon="1.05072">
        <ele>42.92</ele>
        <time>2018-05-13T15:26:01Z</time>
      </trkpt>
      <trkpt lat="49.44898" lon="1.05064">
        <ele>42.92</ele>
        <time>2018-05-13T15:26:02Z</time>
      </trkpt>
      <trkpt lat="49.44896" lon="1.05057">
        <ele>42.92</ele>
        <time>2018-05-13T15:26:03Z</time>
      </trkpt>
      <trkpt lat="49.44891" lon="1.05034">
        <ele>42.92</ele>
        <time>2018-05-13T15:26:06Z</time>
      </trkpt>
      <trkpt lat="49.44891" lon="1.05027">
        <ele>42.92</ele>
        <time>2018-05-13T15:26:07Z</time>
      </trkpt>
      <trkpt lat="49.44893" lon="1.05023">
        <ele>43.4</ele>
        <time>2018-05-13T15:26:08Z</time>
      </trkpt>
      <trkpt lat="49.44897" lon="1.05021">
        <ele>43.4</ele>
        <time>2018-05-13T15:26:09Z</time>
      </trkpt>
      <trkpt lat="49.449" lon="1.0502">
        <ele>43.4</ele>
        <time>2018-05-13T15:26:10Z</time>
      </trkpt>
      <trkpt lat="49.44905" lon="1.0502">
        <ele>43.4</ele>
        <time>2018-05-13T15:26:11Z</time>
      </trkpt>
      <trkpt lat="49.44909" lon="1.05021">
        <ele>43.4</ele>
        <time>2018-05-13T15:26:12Z</time>
      </trkpt>
      <trkpt lat="49.44913" lon="1.05021">
        <ele>43.4</ele>
        <time>2018-05-13T15:26:13Z</time>
      </trkpt>
      <trkpt lat="49.44917" lon="1.05019">
        <ele>43.4</ele>
        <time>2018-05-13T15:26:14Z</time>
      </trkpt>
      <trkpt lat="49.44919" lon="1.05015">
        <ele>43.4</ele>
        <time>2018-05-13T15:26:15Z</time>
      </trkpt>
      <trkpt lat="49.44918" lon="1.05011">
        <ele>43.4</ele>
        <time>2018-05-13T15:26:16Z</time>
      </trkpt>
      <trkpt lat="49.44916" lon="1.05008">
        <ele>43.4</ele>
        <time>2018-05-13T15:26:17Z</time>
      </trkpt>
      <trkpt lat="49.44913" lon="1.05009">
        <ele>43.4</ele>
        <time>2018-05-13T15:26:18Z</time>
      </trkpt>
      <trkpt lat="49.44912" lon="1.05009">
        <ele>43.4</ele>
        <time>2018-05-13T15:26:19Z</time>
      </trkpt>
      <trkpt lat="49.44911" lon="1.05008">
        <ele>43.4</ele>
        <time>2018-05-13T15:26:20Z</time>
      </trkpt>
      <trkpt lat="49.4491" lon="1.05005">
        <ele>43.4</ele>
        <time>2018-05-13T15:26:21Z</time>
      </trkpt>
      <trkpt lat="49.44908" lon="1.05003">
        <ele>43.4</ele>
        <time>2018-05-13T15:26:22Z</time>
      </trkpt>
      <trkpt lat="49.44905" lon="1.05001">
        <ele>43.4</ele>
        <time>2018-05-13T15:26:23Z</time>
      </trkpt>
      <trkpt lat="49.44901" lon="1.04998">
        <ele>43.4</ele>
        <time>2018-05-13T15:26:24Z</time>
      </trkpt>
      <trkpt lat="49.44852" lon="1.04953">
        <ele>42.92</ele>
        <time>2018-05-13T15:26:34Z</time>
      </trkpt>
      <trkpt lat="49.44748" lon="1.04859">
        <ele>42.44</ele>
        <time>2018-05-13T15:26:54Z</time>
      </trkpt>
      <trkpt lat="49.44651" lon="1.04789">
        <ele>42.44</ele>
        <time>2018-05-13T15:27:12Z</time>
      </trkpt>
      <trkpt lat="49.44563" lon="1.04737">
        <ele>41.95</ele>
        <time>2018-05-13T15:27:28Z</time>
      </trkpt>
      <trkpt lat="49.44473" lon="1.04655">
        <ele>41.47</ele>
        <time>2018-05-13T15:27:45Z</time>
      </trkpt>
      <trkpt lat="49.44376" lon="1.04567">
        <ele>41.47</ele>
        <time>2018-05-13T15:28:04Z</time>
      </trkpt>
      <trkpt lat="49.44294" lon="1.04491">
        <ele>40.99</ele>
        <time>2018-05-13T15:28:20Z</time>
      </trkpt>
      <trkpt lat="49.44273" lon="1.04473">
        <ele>40.99</ele>
        <time>2018-05-13T15:28:24Z</time>
      </trkpt>
      <trkpt lat="49.44268" lon="1.04469">
        <ele>40.99</ele>
        <time>2018-05-13T15:28:25Z</time>
      </trkpt>
      <trkpt lat="49.4419" lon="1.04397">
        <ele>40.51</ele>
        <time>2018-05-13T15:28:40Z</time>
      </trkpt>
      <trkpt lat="49.44117" lon="1.04329">
        <ele>40.51</ele>
        <time>2018-05-13T15:28:54Z</time>
      </trkpt>
      <trkpt lat="49.44039" lon="1.0423">
        <ele>39.07</ele>
        <time>2018-05-13T15:29:10Z</time>
      </trkpt>
      <trkpt lat="49.44026" lon="1.04209">
        <ele>39.07</ele>
        <time>2018-05-13T15:29:13Z</time>
      </trkpt>
      <trkpt lat="49.4401" lon="1.04179">
        <ele>38.59</ele>
        <time>2018-05-13T15:29:17Z</time>
      </trkpt>
      <trkpt lat="49.44004" lon="1.04161">
        <ele>38.59</ele>
        <time>2018-05-13T15:29:19Z</time>
      </trkpt>
      <trkpt lat="49.43947" lon="1.04005">
        <ele>38.59</ele>
        <time>2018-05-13T15:29:38Z</time>
      </trkpt>
      <trkpt lat="49.4389" lon="1.03837">
        <ele>37.63</ele>
        <time>2018-05-13T15:29:59Z</time>
      </trkpt>
      <trkpt lat="49.43869" lon="1.03772">
        <ele>37.15</ele>
        <time>2018-05-13T15:30:07Z</time>
      </trkpt>
      <trkpt lat="49.43868" lon="1.03763">
        <ele>37.15</ele>
        <time>2018-05-13T15:30:08Z</time>
      </trkpt>
      <trkpt lat="49.43866" lon="1.03754">
        <ele>37.15</ele>
        <time>2018-05-13T15:30:09Z</time>
      </trkpt>
      <trkpt lat="49.43864" lon="1.03746">
        <ele>37.15</ele>
        <time>2018-05-13T15:30:10Z</time>
      </trkpt>
      <trkpt lat="49.43861" lon="1.03739">
        <ele>37.15</ele>
        <time>2018-05-13T15:30:11Z</time>
      </trkpt>
      <trkpt lat="49.43857" lon="1.03732">
        <ele>36.67</ele>
        <time>2018-05-13T15:30:12Z</time>
      </trkpt>
      <trkpt lat="49.43853" lon="1.03727">
        <ele>36.67</ele>
        <time>2018-05-13T15:30:13Z</time>
      </trkpt>
      <trkpt lat="49.43848" lon="1.03722">
        <ele>36.67</ele>
        <time>2018-05-13T15:30:14Z</time>
      </trkpt>
      <trkpt lat="49.43845" lon="1.03717">
        <ele>36.67</ele>
        <time>2018-05-13T15:30:15Z</time>
      </trkpt>
      <trkpt lat="49.43842" lon="1.03713">
        <ele>36.67</ele>
        <time>2018-05-13T15:30:16Z</time>
      </trkpt>
      <trkpt lat="49.43841" lon="1.0371">
        <ele>36.67</ele>
        <time>2018-05-13T15:30:17Z</time>
      </trkpt>
      <trkpt lat="49.43842" lon="1.03708">
        <ele>36.67</ele>
        <time>2018-05-13T15:30:18Z</time>
      </trkpt>
      <trkpt lat="49.43842" lon="1.03705">
        <ele>36.67</ele>
        <time>2018-05-13T15:30:19Z</time>
      </trkpt>
      <trkpt lat="49.43843" lon="1.03702">
        <ele>36.67</ele>
        <time>2018-05-13T15:30:20Z</time>
      </trkpt>
      <trkpt lat="49.43864" lon="1.03689">
        <ele>36.67</ele>
        <time>2018-05-13T15:30:26Z</time>
      </trkpt>
      <trkpt lat="49.43878" lon="1.03689">
        <ele>36.67</ele>
        <time>2018-05-13T15:30:29Z</time>
      </trkpt>
      <trkpt lat="49.43883" lon="1.0369">
        <ele>36.67</ele>
        <time>2018-05-13T15:30:30Z</time>
      </trkpt>
      <trkpt lat="49.43887" lon="1.03691">
        <ele>36.67</ele>
        <time>2018-05-13T15:30:31Z</time>
      </trkpt>
      <trkpt lat="49.4389" lon="1.03694">
        <ele>36.67</ele>
        <time>2018-05-13T15:30:32Z</time>
      </trkpt>
      <trkpt lat="49.43894" lon="1.03698">
        <ele>36.67</ele>
        <time>2018-05-13T15:30:33Z</time>
      </trkpt>
      <trkpt lat="49.43961" lon="1.0377">
        <ele>38.59</ele>
        <time>2018-05-13T15:30:48Z</time>
      </trkpt>
      <trkpt lat="49.44012" lon="1.03807">
        <ele>40.51</ele>
        <time>2018-05-13T15:31:01Z</time>
      </trkpt>
      <trkpt lat="49.44066" lon="1.03846">
        <ele>43.88</ele>
        <time>2018-05-13T15:31:16Z</time>
      </trkpt>
      <trkpt lat="49.44113" lon="1.03881">
        <ele>46.28</ele>
        <time>2018-05-13T15:31:30Z</time>
      </trkpt>
      <trkpt lat="49.44138" lon="1.0392">
        <ele>49.65</ele>
        <time>2018-05-13T15:31:41Z</time>
      </trkpt>
      <trkpt lat="49.44163" lon="1.03917">
        <ele>51.09</ele>
        <time>2018-05-13T15:31:51Z</time>
      </trkpt>
      <trkpt lat="49.44154" lon="1.03882">
        <ele>52.53</ele>
        <time>2018-05-13T15:32:00Z</time>
      </trkpt>
      <trkpt lat="49.4413" lon="1.0382">
        <ele>55.89</ele>
        <time>2018-05-13T15:32:17Z</time>
      </trkpt>
      <trkpt lat="49.44121" lon="1.03762">
        <ele>59.26</ele>
        <time>2018-05-13T15:32:31Z</time>
      </trkpt>
      <trkpt lat="49.44092" lon="1.03708">
        <ele>62.14</ele>
        <time>2018-05-13T15:32:48Z</time>
      </trkpt>
      <trkpt lat="49.44057" lon="1.03668">
        <ele>65.51</ele>
        <time>2018-05-13T15:33:04Z</time>
      </trkpt>
      <trkpt lat="49.44033" lon="1.03616">
        <ele>68.87</ele>
        <time>2018-05-13T15:33:19Z</time>
      </trkpt>
      <trkpt lat="49.4402" lon="1.03555">
        <ele>71.76</ele>
        <time>2018-05-13T15:33:34Z</time>
      </trkpt>
      <trkpt lat="49.4403" lon="1.03503">
        <ele>74.64</ele>
        <time>2018-05-13T15:33:47Z</time>
      </trkpt>
      <trkpt lat="49.44046" lon="1.03442">
        <ele>77.52</ele>
        <time>2018-05-13T15:34:02Z</time>
      </trkpt>
      <trkpt lat="49.44064" lon="1.03382">
        <ele>80.89</ele>
        <time>2018-05-13T15:34:17Z</time>
      </trkpt>
      <trkpt lat="49.44079" lon="1.03321">
        <ele>84.25</ele>
        <time>2018-05-13T15:34:32Z</time>
      </trkpt>
      <trkpt lat="49.44086" lon="1.03271">
        <ele>86.18</ele>
        <time>2018-05-13T15:34:44Z</time>
      </trkpt>
      <trkpt lat="49.441" lon="1.03223">
        <ele>89.54</ele>
        <time>2018-05-13T15:34:56Z</time>
      </trkpt>
      <trkpt lat="49.44108" lon="1.03199">
        <ele>90.98</ele>
        <time>2018-05-13T15:35:02Z</time>
      </trkpt>
      <trkpt lat="49.44122" lon="1.03161">
        <ele>92.9</ele>
        <time>2018-05-13T15:35:13Z</time>
      </trkpt>
      <trkpt lat="49.44125" lon="1.03146">
        <ele>93.87</ele>
        <time>2018-05-13T15:35:17Z</time>
      </trkpt>
      <trkpt lat="49.44111" lon="1.03104">
        <ele>96.75</ele>
        <time>2018-05-13T15:35:29Z</time>
      </trkpt>
      <trkpt lat="49.44077" lon="1.03059">
        <ele>99.63</ele>
        <time>2018-05-13T15:35:45Z</time>
      </trkpt>
      <trkpt lat="49.44046" lon="1.03015">
        <ele>102.52</ele>
        <time>2018-05-13T15:36:00Z</time>
      </trkpt>
      <trkpt lat="49.44012" lon="1.0299">
        <ele>104.92</ele>
        <time>2018-05-13T15:36:14Z</time>
      </trkpt>
      <trkpt lat="49.44011" lon="1.02982">
        <ele>105.4</ele>
        <time>2018-05-13T15:36:16Z</time>
      </trkpt>
      <trkpt lat="49.44011" lon="1.02978">
        <ele>105.4</ele>
        <time>2018-05-13T15:36:17Z</time>
      </trkpt>
      <trkpt lat="49.44013" lon="1.02974">
        <ele>105.4</ele>
        <time>2018-05-13T15:36:18Z</time>
      </trkpt>
      <trkpt lat="49.44015" lon="1.0297">
        <ele>105.4</ele>
        <time>2018-05-13T15:36:19Z</time>
      </trkpt>
      <trkpt lat="49.44017" lon="1.02968">
        <ele>105.88</ele>
        <time>2018-05-13T15:36:20Z</time>
      </trkpt>
      <trkpt lat="49.4402" lon="1.02967">
        <ele>105.88</ele>
        <time>2018-05-13T15:36:21Z</time>
      </trkpt>
      <trkpt lat="49.44023" lon="1.02967">
        <ele>105.88</ele>
        <time>2018-05-13T15:36:22Z</time>
      </trkpt>
      <trkpt lat="49.44025" lon="1.02968">
        <ele>105.88</ele>
        <time>2018-05-13T15:36:23Z</time>
      </trkpt>
      <trkpt lat="49.44028" lon="1.02969">
        <ele>106.84</ele>
        <time>2018-05-13T15:36:24Z</time>
      </trkpt>
      <trkpt lat="49.44031" lon="1.02971">
        <ele>106.84</ele>
        <time>2018-05-13T15:36:25Z</time>
      </trkpt>
      <trkpt lat="49.44033" lon="1.02973">
        <ele>107.32</ele>
        <time>2018-05-13T15:36:26Z</time>
      </trkpt>
      <trkpt lat="49.44065" lon="1.03001">
        <ele>109.73</ele>
        <time>2018-05-13T15:36:39Z</time>
      </trkpt>
      <trkpt lat="49.44096" lon="1.03021">
        <ele>113.09</ele>
        <time>2018-05-13T15:36:53Z</time>
      </trkpt>
      <trkpt lat="49.44136" lon="1.03032">
        <ele>115.98</ele>
        <time>2018-05-13T15:37:09Z</time>
      </trkpt>
      <trkpt lat="49.44173" lon="1.03032">
        <ele>118.38</ele>
        <time>2018-05-13T15:37:24Z</time>
      </trkpt>
      <trkpt lat="49.44201" lon="1.03074">
        <ele>120.78</ele>
        <time>2018-05-13T15:37:36Z</time>
      </trkpt>
      <trkpt lat="49.44224" lon="1.03131">
        <ele>123.67</ele>
        <time>2018-05-13T15:37:52Z</time>
      </trkpt>
      <trkpt lat="49.44231" lon="1.03184">
        <ele>126.55</ele>
        <time>2018-05-13T15:38:05Z</time>
      </trkpt>
      <trkpt lat="49.44205" lon="1.03233">
        <ele>128.47</ele>
        <time>2018-05-13T15:38:18Z</time>
      </trkpt>
      <trkpt lat="49.44183" lon="1.03285">
        <ele>131.84</ele>
        <time>2018-05-13T15:38:32Z</time>
      </trkpt>
      <trkpt lat="49.44199" lon="1.03322">
        <ele>133.76</ele>
        <time>2018-05-13T15:38:43Z</time>
      </trkpt>
      <trkpt lat="49.44229" lon="1.03308">
        <ele>136.16</ele>
        <time>2018-05-13T15:38:56Z</time>
      </trkpt>
      <trkpt lat="49.44255" lon="1.03263">
        <ele>139.05</ele>
        <time>2018-05-13T15:39:10Z</time>
      </trkpt>
      <trkpt lat="49.44281" lon="1.032">
        <ele>142.41</ele>
        <time>2018-05-13T15:39:27Z</time>
      </trkpt>
      <trkpt lat="49.44286" lon="1.03145">
        <ele>144.82</ele>
        <time>2018-05-13T15:39:39Z</time>
      </trkpt>
      <trkpt lat="49.44309" lon="1.03091">
        <ele>146.26</ele>
        <time>2018-05-13T15:39:53Z</time>
      </trkpt>
      <trkpt lat="49.44311" lon="1.0309">
        <ele>146.26</ele>
        <time>2018-05-13T15:39:54Z</time>
      </trkpt>
      <trkpt lat="49.44313" lon="1.0309">
        <ele>146.26</ele>
        <time>2018-05-13T15:39:55Z</time>
      </trkpt>
      <trkpt lat="49.44318" lon="1.0309">
        <ele>146.26</ele>
        <time>2018-05-13T15:40:03Z</time>
      </trkpt>
      <trkpt lat="49.44318" lon="1.03088">
        <ele>146.26</ele>
        <time>2018-05-13T15:40:04Z</time>
      </trkpt>
      <trkpt lat="49.44316" lon="1.0308">
        <ele>146.74</ele>
        <time>2018-05-13T15:40:07Z</time>
      </trkpt>
      <trkpt lat="49.44288" lon="1.03028">
        <ele>146.74</ele>
        <time>2018-05-13T15:40:17Z</time>
      </trkpt>
      <trkpt lat="49.44286" lon="1.03021">
        <ele>146.74</ele>
        <time>2018-05-13T15:40:18Z</time>
      </trkpt>
      <trkpt lat="49.44284" lon="1.03013">
        <ele>146.74</ele>
        <time>2018-05-13T15:40:19Z</time>
      </trkpt>
      <trkpt lat="49.44282" lon="1.03004">
        <ele>146.74</ele>
        <time>2018-05-13T15:40:20Z</time>
      </trkpt>
      <trkpt lat="49.44283" lon="1.02995">
        <ele>146.74</ele>
        <time>2018-05-13T15:40:21Z</time>
      </trkpt>
      <trkpt lat="49.44284" lon="1.02987">
        <ele>146.74</ele>
        <time>2018-05-13T15:40:22Z</time>
      </trkpt>
      <trkpt lat="49.44286" lon="1.02979">
        <ele>146.26</ele>
        <time>2018-05-13T15:40:23Z</time>
      </trkpt>
      <trkpt lat="49.44288" lon="1.02971">
        <ele>146.26</ele>
        <time>2018-05-13T15:40:24Z</time>
      </trkpt>
      <trkpt lat="49.44291" lon="1.02964">
        <ele>146.26</ele>
        <time>2018-05-13T15:40:25Z</time>
      </trkpt>
      <trkpt lat="49.44293" lon="1.02956">
        <ele>146.26</ele>
        <time>2018-05-13T15:40:26Z</time>
      </trkpt>
      <trkpt lat="49.44296" lon="1.02949">
        <ele>146.26</ele>
        <time>2018-05-13T15:40:27Z</time>
      </trkpt>
      <trkpt lat="49.44298" lon="1.02941">
        <ele>146.26</ele>
        <time>2018-05-13T15:40:28Z</time>
      </trkpt>
      <trkpt lat="49.44299" lon="1.02933">
        <ele>146.26</ele>
        <time>2018-05-13T15:40:29Z</time>
      </trkpt>
      <trkpt lat="49.443" lon="1.02925">
        <ele>146.26</ele>
        <time>2018-05-13T15:40:30Z</time>
      </trkpt>
      <trkpt lat="49.44307" lon="1.02877">
        <ele>146.26</ele>
        <time>2018-05-13T15:40:36Z</time>
      </trkpt>
      <trkpt lat="49.4431" lon="1.02872">
        <ele>146.26</ele>
        <time>2018-05-13T15:40:37Z</time>
      </trkpt>
      <trkpt lat="49.44315" lon="1.02867">
        <ele>146.26</ele>
        <time>2018-05-13T15:40:38Z</time>
      </trkpt>
      <trkpt lat="49.44318" lon="1.02864">
        <ele>146.26</ele>
        <time>2018-05-13T15:40:39Z</time>
      </trkpt>
      <trkpt lat="49.44322" lon="1.02859">
        <ele>146.26</ele>
        <time>2018-05-13T15:40:40Z</time>
      </trkpt>
      <trkpt lat="49.44325" lon="1.02853">
        <ele>146.26</ele>
        <time>2018-05-13T15:40:41Z</time>
      </trkpt>
      <trkpt lat="49.44328" lon="1.02847">
        <ele>146.26</ele>
        <time>2018-05-13T15:40:42Z</time>
      </trkpt>
      <trkpt lat="49.44337" lon="1.02828">
        <ele>146.74</ele>
        <time>2018-05-13T15:40:45Z</time>
      </trkpt>
      <trkpt lat="49.44354" lon="1.028">
        <ele>146.74</ele>
        <time>2018-05-13T15:40:50Z</time>
      </trkpt>
      <trkpt lat="49.44361" lon="1.02787">
        <ele>146.74</ele>
        <time>2018-05-13T15:40:52Z</time>
      </trkpt>
      <trkpt lat="49.44404" lon="1.02717">
        <ele>146.74</ele>
        <time>2018-05-13T15:41:04Z</time>
      </trkpt>
      <trkpt lat="49.4444" lon="1.02684">
        <ele>147.22</ele>
        <time>2018-05-13T15:41:12Z</time>
      </trkpt>
      <trkpt lat="49.44444" lon="1.0268">
        <ele>147.22</ele>
        <time>2018-05-13T15:41:13Z</time>
      </trkpt>
      <trkpt lat="49.4445" lon="1.02676">
        <ele>147.22</ele>
        <time>2018-05-13T15:41:14Z</time>
      </trkpt>
      <trkpt lat="49.44495" lon="1.02646">
        <ele>147.22</ele>
        <time>2018-05-13T15:41:23Z</time>
      </trkpt>
      <trkpt lat="49.44511" lon="1.02631">
        <ele>145.78</ele>
        <time>2018-05-13T15:41:26Z</time>
      </trkpt>
      <trkpt lat="49.44515" lon="1.02626">
        <ele>145.78</ele>
        <time>2018-05-13T15:41:27Z</time>
      </trkpt>
      <trkpt lat="49.44529" lon="1.02604">
        <ele>144.34</ele>
        <time>2018-05-13T15:41:30Z</time>
      </trkpt>
      <trkpt lat="49.44541" lon="1.02578">
        <ele>143.85</ele>
        <time>2018-05-13T15:41:33Z</time>
      </trkpt>
      <trkpt lat="49.44546" lon="1.0257">
        <ele>143.85</ele>
        <time>2018-05-13T15:41:34Z</time>
      </trkpt>
      <trkpt lat="49.4455" lon="1.02562">
        <ele>143.85</ele>
        <time>2018-05-13T15:41:35Z</time>
      </trkpt>
      <trkpt lat="49.44554" lon="1.02553">
        <ele>143.85</ele>
        <time>2018-05-13T15:41:36Z</time>
      </trkpt>
      <trkpt lat="49.44559" lon="1.02545">
        <ele>143.37</ele>
        <time>2018-05-13T15:41:37Z</time>
      </trkpt>
      <trkpt lat="49.44564" lon="1.02537">
        <ele>143.37</ele>
        <time>2018-05-13T15:41:38Z</time>
      </trkpt>
      <trkpt lat="49.4457" lon="1.0253">
        <ele>143.37</ele>
        <time>2018-05-13T15:41:39Z</time>
      </trkpt>
      <trkpt lat="49.44575" lon="1.02524">
        <ele>142.89</ele>
        <time>2018-05-13T15:41:40Z</time>
      </trkpt>
      <trkpt lat="49.44586" lon="1.02514">
        <ele>141.93</ele>
        <time>2018-05-13T15:41:42Z</time>
      </trkpt>
      <trkpt lat="49.44593" lon="1.02509">
        <ele>141.93</ele>
        <time>2018-05-13T15:41:43Z</time>
      </trkpt>
      <trkpt lat="49.44599" lon="1.02503">
        <ele>141.93</ele>
        <time>2018-05-13T15:41:44Z</time>
      </trkpt>
      <trkpt lat="49.44605" lon="1.02497">
        <ele>141.93</ele>
        <time>2018-05-13T15:41:45Z</time>
      </trkpt>
      <trkpt lat="49.44611" lon="1.02492">
        <ele>141.45</ele>
        <time>2018-05-13T15:41:46Z</time>
      </trkpt>
      <trkpt lat="49.44672" lon="1.02435">
        <ele>139.53</ele>
        <time>2018-05-13T15:41:56Z</time>
      </trkpt>
      <trkpt lat="49.44683" lon="1.02425">
        <ele>139.53</ele>
        <time>2018-05-13T15:41:58Z</time>
      </trkpt>
      <trkpt lat="49.44687" lon="1.02424">
        <ele>139.53</ele>
        <time>2018-05-13T15:41:59Z</time>
      </trkpt>
      <trkpt lat="49.4469" lon="1.02423">
        <ele>139.05</ele>
        <time>2018-05-13T15:42:00Z</time>
      </trkpt>
      <trkpt lat="49.44692" lon="1.0242">
        <ele>139.05</ele>
        <time>2018-05-13T15:42:01Z</time>
      </trkpt>
      <trkpt lat="49.44694" lon="1.02416">
        <ele>139.05</ele>
        <time>2018-05-13T15:42:02Z</time>
      </trkpt>
      <trkpt lat="49.44696" lon="1.0241">
        <ele>138.57</ele>
        <time>2018-05-13T15:42:03Z</time>
      </trkpt>
      <trkpt lat="49.44697" lon="1.02404">
        <ele>138.57</ele>
        <time>2018-05-13T15:42:04Z</time>
      </trkpt>
      <trkpt lat="49.44697" lon="1.02396">
        <ele>138.57</ele>
        <time>2018-05-13T15:42:05Z</time>
      </trkpt>
      <trkpt lat="49.44698" lon="1.02387">
        <ele>138.57</ele>
        <time>2018-05-13T15:42:06Z</time>
      </trkpt>
      <trkpt lat="49.44699" lon="1.02378">
        <ele>138.09</ele>
        <time>2018-05-13T15:42:07Z</time>
      </trkpt>
      <trkpt lat="49.44702" lon="1.02315">
        <ele>138.09</ele>
        <time>2018-05-13T15:42:14Z</time>
      </trkpt>
      <trkpt lat="49.44701" lon="1.02306">
        <ele>138.09</ele>
        <time>2018-05-13T15:42:15Z</time>
      </trkpt>
      <trkpt lat="49.447" lon="1.02261">
        <ele>137.61</ele>
        <time>2018-05-13T15:42:20Z</time>
      </trkpt>
      <trkpt lat="49.44701" lon="1.02253">
        <ele>137.61</ele>
        <time>2018-05-13T15:42:21Z</time>
      </trkpt>
      <trkpt lat="49.44703" lon="1.02243">
        <ele>137.61</ele>
        <time>2018-05-13T15:42:22Z</time>
      </trkpt>
      <trkpt lat="49.44708" lon="1.02215">
        <ele>137.61</ele>
        <time>2018-05-13T15:42:26Z</time>
      </trkpt>
      <trkpt lat="49.44709" lon="1.02207">
        <ele>137.61</ele>
        <time>2018-05-13T15:42:27Z</time>
      </trkpt>
      <trkpt lat="49.44726" lon="1.02108">
        <ele>139.53</ele>
        <time>2018-05-13T15:42:41Z</time>
      </trkpt>
      <trkpt lat="49.44725" lon="1.02104">
        <ele>139.53</ele>
        <time>2018-05-13T15:42:42Z</time>
      </trkpt>
      <trkpt lat="49.44724" lon="1.02101">
        <ele>140.01</ele>
        <time>2018-05-13T15:42:43Z</time>
      </trkpt>
      <trkpt lat="49.44722" lon="1.02098">
        <ele>140.01</ele>
        <time>2018-05-13T15:42:44Z</time>
      </trkpt>
      <trkpt lat="49.4472" lon="1.02095">
        <ele>140.01</ele>
        <time>2018-05-13T15:42:45Z</time>
      </trkpt>
      <trkpt lat="49.44715" lon="1.02089">
        <ele>140.01</ele>
        <time>2018-05-13T15:42:47Z</time>
      </trkpt>
      <trkpt lat="49.44712" lon="1.02086">
        <ele>140.01</ele>
        <time>2018-05-13T15:42:48Z</time>
      </trkpt>
      <trkpt lat="49.447" lon="1.02075">
        <ele>139.53</ele>
        <time>2018-05-13T15:42:52Z</time>
      </trkpt>
      <trkpt lat="49.44688" lon="1.02032">
        <ele>139.53</ele>
        <time>2018-05-13T15:43:01Z</time>
      </trkpt>
      <trkpt lat="49.44682" lon="1.02004">
        <ele>139.53</ele>
        <time>2018-05-13T15:43:05Z</time>
      </trkpt>
      <trkpt lat="49.44675" lon="1.01983">
        <ele>139.53</ele>
        <time>2018-05-13T15:43:08Z</time>
      </trkpt>
      <trkpt lat="49.44658" lon="1.01923">
        <ele>137.61</ele>
        <time>2018-05-13T15:43:16Z</time>
      </trkpt>
      <trkpt lat="49.44653" lon="1.01879">
        <ele>137.13</ele>
        <time>2018-05-13T15:43:21Z</time>
      </trkpt>
      <trkpt lat="49.44646" lon="1.01856">
        <ele>136.16</ele>
        <time>2018-05-13T15:43:24Z</time>
      </trkpt>
      <trkpt lat="49.44632" lon="1.01822">
        <ele>135.2</ele>
        <time>2018-05-13T15:43:28Z</time>
      </trkpt>
      <trkpt lat="49.44621" lon="1.01782">
        <ele>133.76</ele>
        <time>2018-05-13T15:43:32Z</time>
      </trkpt>
      <trkpt lat="49.44616" lon="1.01738">
        <ele>133.28</ele>
        <time>2018-05-13T15:43:36Z</time>
      </trkpt>
      <trkpt lat="49.44597" lon="1.01677">
        <ele>130.4</ele>
        <time>2018-05-13T15:43:42Z</time>
      </trkpt>
      <trkpt lat="49.44592" lon="1.01654">
        <ele>129.43</ele>
        <time>2018-05-13T15:43:44Z</time>
      </trkpt>
      <trkpt lat="49.44584" lon="1.0161">
        <ele>127.99</ele>
        <time>2018-05-13T15:43:48Z</time>
      </trkpt>
      <trkpt lat="49.44564" lon="1.01546">
        <ele>125.11</ele>
        <time>2018-05-13T15:43:54Z</time>
      </trkpt>
      <trkpt lat="49.44562" lon="1.01535">
        <ele>124.63</ele>
        <time>2018-05-13T15:43:55Z</time>
      </trkpt>
      <trkpt lat="49.44561" lon="1.01525">
        <ele>124.63</ele>
        <time>2018-05-13T15:43:56Z</time>
      </trkpt>
      <trkpt lat="49.4456" lon="1.01514">
        <ele>124.15</ele>
        <time>2018-05-13T15:43:57Z</time>
      </trkpt>
      <trkpt lat="49.44557" lon="1.01506">
        <ele>123.67</ele>
        <time>2018-05-13T15:43:58Z</time>
      </trkpt>
      <trkpt lat="49.44556" lon="1.01497">
        <ele>123.19</ele>
        <time>2018-05-13T15:43:59Z</time>
      </trkpt>
      <trkpt lat="49.44555" lon="1.01487">
        <ele>123.19</ele>
        <time>2018-05-13T15:44:00Z</time>
      </trkpt>
      <trkpt lat="49.44554" lon="1.01477">
        <ele>122.71</ele>
        <time>2018-05-13T15:44:01Z</time>
      </trkpt>
      <trkpt lat="49.44552" lon="1.01465">
        <ele>122.71</ele>
        <time>2018-05-13T15:44:02Z</time>
      </trkpt>
      <trkpt lat="49.4455" lon="1.01454">
        <ele>122.71</ele>
        <time>2018-05-13T15:44:03Z</time>
      </trkpt>
      <trkpt lat="49.44548" lon="1.01443">
        <ele>121.74</ele>
        <time>2018-05-13T15:44:04Z</time>
      </trkpt>
      <trkpt lat="49.44543" lon="1.01421">
        <ele>120.78</ele>
        <time>2018-05-13T15:44:06Z</time>
      </trkpt>
      <trkpt lat="49.44542" lon="1.0141">
        <ele>119.82</ele>
        <time>2018-05-13T15:44:07Z</time>
      </trkpt>
      <trkpt lat="49.44541" lon="1.01399">
        <ele>119.82</ele>
        <time>2018-05-13T15:44:08Z</time>
      </trkpt>
      <trkpt lat="49.44541" lon="1.01388">
        <ele>119.34</ele>
        <time>2018-05-13T15:44:09Z</time>
      </trkpt>
      <trkpt lat="49.44541" lon="1.01378">
        <ele>119.34</ele>
        <time>2018-05-13T15:44:10Z</time>
      </trkpt>
      <trkpt lat="49.44541" lon="1.01368">
        <ele>119.34</ele>
        <time>2018-05-13T15:44:11Z</time>
      </trkpt>
      <trkpt lat="49.44541" lon="1.01357">
        <ele>119.34</ele>
        <time>2018-05-13T15:44:12Z</time>
      </trkpt>
      <trkpt lat="49.44539" lon="1.01339">
        <ele>118.86</ele>
        <time>2018-05-13T15:44:14Z</time>
      </trkpt>
      <trkpt lat="49.44537" lon="1.0133">
        <ele>118.86</ele>
        <time>2018-05-13T15:44:15Z</time>
      </trkpt>
      <trkpt lat="49.44533" lon="1.01314">
        <ele>118.38</ele>
        <time>2018-05-13T15:44:17Z</time>
      </trkpt>
      <trkpt lat="49.44531" lon="1.01305">
        <ele>118.38</ele>
        <time>2018-05-13T15:44:18Z</time>
      </trkpt>
      <trkpt lat="49.44529" lon="1.01287">
        <ele>117.42</ele>
        <time>2018-05-13T15:44:20Z</time>
      </trkpt>
      <trkpt lat="49.44528" lon="1.01248">
        <ele>117.42</ele>
        <time>2018-05-13T15:44:24Z</time>
      </trkpt>
      <trkpt lat="49.4453" lon="1.01219">
        <ele>116.46</ele>
        <time>2018-05-13T15:44:27Z</time>
      </trkpt>
      <trkpt lat="49.44529" lon="1.01198">
        <ele>115.98</ele>
        <time>2018-05-13T15:44:29Z</time>
      </trkpt>
      <trkpt lat="49.4453" lon="1.01181">
        <ele>115.5</ele>
        <time>2018-05-13T15:44:31Z</time>
      </trkpt>
      <trkpt lat="49.44532" lon="1.01172">
        <ele>115.5</ele>
        <time>2018-05-13T15:44:32Z</time>
      </trkpt>
      <trkpt lat="49.44533" lon="1.01166">
        <ele>115.5</ele>
        <time>2018-05-13T15:44:33Z</time>
      </trkpt>
      <trkpt lat="49.44532" lon="1.01157">
        <ele>115.5</ele>
        <time>2018-05-13T15:44:34Z</time>
      </trkpt>
      <trkpt lat="49.44532" lon="1.01149">
        <ele>115.5</ele>
        <time>2018-05-13T15:44:35Z</time>
      </trkpt>
      <trkpt lat="49.44532" lon="1.0114">
        <ele>115.5</ele>
        <time>2018-05-13T15:44:36Z</time>
      </trkpt>
      <trkpt lat="49.44532" lon="1.0113">
        <ele>115.5</ele>
        <time>2018-05-13T15:44:37Z</time>
      </trkpt>
      <trkpt lat="49.44531" lon="1.0112">
        <ele>115.5</ele>
        <time>2018-05-13T15:44:38Z</time>
      </trkpt>
      <trkpt lat="49.4453" lon="1.01109">
        <ele>115.5</ele>
        <time>2018-05-13T15:44:39Z</time>
      </trkpt>
      <trkpt lat="49.44527" lon="1.01067">
        <ele>115.01</ele>
        <time>2018-05-13T15:44:43Z</time>
      </trkpt>
      <trkpt lat="49.44527" lon="1.01057">
        <ele>115.01</ele>
        <time>2018-05-13T15:44:44Z</time>
      </trkpt>
      <trkpt lat="49.44527" lon="1.01047">
        <ele>115.01</ele>
        <time>2018-05-13T15:44:45Z</time>
      </trkpt>
      <trkpt lat="49.44528" lon="1.01037">
        <ele>115.01</ele>
        <time>2018-05-13T15:44:46Z</time>
      </trkpt>
      <trkpt lat="49.44528" lon="1.01027">
        <ele>115.01</ele>
        <time>2018-05-13T15:44:47Z</time>
      </trkpt>
      <trkpt lat="49.44528" lon="1.01018">
        <ele>115.01</ele>
        <time>2018-05-13T15:44:48Z</time>
      </trkpt>
      <trkpt lat="49.44528" lon="1.00998">
        <ele>115.01</ele>
        <time>2018-05-13T15:44:50Z</time>
      </trkpt>
      <trkpt lat="49.44527" lon="1.00989">
        <ele>114.53</ele>
        <time>2018-05-13T15:44:51Z</time>
      </trkpt>
      <trkpt lat="49.44527" lon="1.00981">
        <ele>114.53</ele>
        <time>2018-05-13T15:44:52Z</time>
      </trkpt>
      <trkpt lat="49.44528" lon="1.00973">
        <ele>114.53</ele>
        <time>2018-05-13T15:44:53Z</time>
      </trkpt>
      <trkpt lat="49.4453" lon="1.00967">
        <ele>114.53</ele>
        <time>2018-05-13T15:44:54Z</time>
      </trkpt>
      <trkpt lat="49.4453" lon="1.00962">
        <ele>114.53</ele>
        <time>2018-05-13T15:44:55Z</time>
      </trkpt>
      <trkpt lat="49.44527" lon="1.00959">
        <ele>114.05</ele>
        <time>2018-05-13T15:44:56Z</time>
      </trkpt>
      <trkpt lat="49.44525" lon="1.00955">
        <ele>114.05</ele>
        <time>2018-05-13T15:44:57Z</time>
      </trkpt>
      <trkpt lat="49.44524" lon="1.0095">
        <ele>114.05</ele>
        <time>2018-05-13T15:44:58Z</time>
      </trkpt>
      <trkpt lat="49.44524" lon="1.00946">
        <ele>114.05</ele>
        <time>2018-05-13T15:44:59Z</time>
      </trkpt>
      <trkpt lat="49.44524" lon="1.0094">
        <ele>114.05</ele>
        <time>2018-05-13T15:45:00Z</time>
      </trkpt>
      <trkpt lat="49.44525" lon="1.00934">
        <ele>114.05</ele>
        <time>2018-05-13T15:45:01Z</time>
      </trkpt>
      <trkpt lat="49.44526" lon="1.00927">
        <ele>114.05</ele>
        <time>2018-05-13T15:45:02Z</time>
      </trkpt>
      <trkpt lat="49.4453" lon="1.00908">
        <ele>114.05</ele>
        <time>2018-05-13T15:45:04Z</time>
      </trkpt>
      <trkpt lat="49.44533" lon="1.00881">
        <ele>114.05</ele>
        <time>2018-05-13T15:45:07Z</time>
      </trkpt>
      <trkpt lat="49.44534" lon="1.00872">
        <ele>114.05</ele>
        <time>2018-05-13T15:45:08Z</time>
      </trkpt>
      <trkpt lat="49.44534" lon="1.00835">
        <ele>113.57</ele>
        <time>2018-05-13T15:45:12Z</time>
      </trkpt>
      <trkpt lat="49.44537" lon="1.00811">
        <ele>113.09</ele>
        <time>2018-05-13T15:45:15Z</time>
      </trkpt>
      <trkpt lat="49.44537" lon="1.00802">
        <ele>112.61</ele>
        <time>2018-05-13T15:45:16Z</time>
      </trkpt>
      <trkpt lat="49.44537" lon="1.00793">
        <ele>112.61</ele>
        <time>2018-05-13T15:45:17Z</time>
      </trkpt>
      <trkpt lat="49.44538" lon="1.00784">
        <ele>112.61</ele>
        <time>2018-05-13T15:45:18Z</time>
      </trkpt>
      <trkpt lat="49.44537" lon="1.00775">
        <ele>112.61</ele>
        <time>2018-05-13T15:45:19Z</time>
      </trkpt>
      <trkpt lat="49.44536" lon="1.00765">
        <ele>112.61</ele>
        <time>2018-05-13T15:45:20Z</time>
      </trkpt>
      <trkpt lat="49.44534" lon="1.00746">
        <ele>112.61</ele>
        <time>2018-05-13T15:45:22Z</time>
      </trkpt>
      <trkpt lat="49.44534" lon="1.0072">
        <ele>112.61</ele>
        <time>2018-05-13T15:45:25Z</time>
      </trkpt>
      <trkpt lat="49.44535" lon="1.00701">
        <ele>112.13</ele>
        <time>2018-05-13T15:45:27Z</time>
      </trkpt>
      <trkpt lat="49.44536" lon="1.00692">
        <ele>112.13</ele>
        <time>2018-05-13T15:45:28Z</time>
      </trkpt>
      <trkpt lat="49.44536" lon="1.00683">
        <ele>112.13</ele>
        <time>2018-05-13T15:45:29Z</time>
      </trkpt>
      <trkpt lat="49.44535" lon="1.00674">
        <ele>112.13</ele>
        <time>2018-05-13T15:45:30Z</time>
      </trkpt>
      <trkpt lat="49.44534" lon="1.00665">
        <ele>111.65</ele>
        <time>2018-05-13T15:45:31Z</time>
      </trkpt>
      <trkpt lat="49.44533" lon="1.00658">
        <ele>111.65</ele>
        <time>2018-05-13T15:45:32Z</time>
      </trkpt>
      <trkpt lat="49.44534" lon="1.0065">
        <ele>111.65</ele>
        <time>2018-05-13T15:45:33Z</time>
      </trkpt>
      <trkpt lat="49.44535" lon="1.00644">
        <ele>111.17</ele>
        <time>2018-05-13T15:45:34Z</time>
      </trkpt>
      <trkpt lat="49.44537" lon="1.00637">
        <ele>111.17</ele>
        <time>2018-05-13T15:45:35Z</time>
      </trkpt>
      <trkpt lat="49.44538" lon="1.00629">
        <ele>111.17</ele>
        <time>2018-05-13T15:45:36Z</time>
      </trkpt>
      <trkpt lat="49.44539" lon="1.00615">
        <ele>110.69</ele>
        <time>2018-05-13T15:45:38Z</time>
      </trkpt>
      <trkpt lat="49.4454" lon="1.00607">
        <ele>110.69</ele>
        <time>2018-05-13T15:45:39Z</time>
      </trkpt>
      <trkpt lat="49.4454" lon="1.00599">
        <ele>110.69</ele>
        <time>2018-05-13T15:45:40Z</time>
      </trkpt>
      <trkpt lat="49.4454" lon="1.00566">
        <ele>110.21</ele>
        <time>2018-05-13T15:45:45Z</time>
      </trkpt>
      <trkpt lat="49.4454" lon="1.00557">
        <ele>110.21</ele>
        <time>2018-05-13T15:45:46Z</time>
      </trkpt>
      <trkpt lat="49.44539" lon="1.00539">
        <ele>110.21</ele>
        <time>2018-05-13T15:45:48Z</time>
      </trkpt>
      <trkpt lat="49.4454" lon="1.0053">
        <ele>109.73</ele>
        <time>2018-05-13T15:45:49Z</time>
      </trkpt>
      <trkpt lat="49.4454" lon="1.00521">
        <ele>109.73</ele>
        <time>2018-05-13T15:45:50Z</time>
      </trkpt>
      <trkpt lat="49.4454" lon="1.00513">
        <ele>109.73</ele>
        <time>2018-05-13T15:45:51Z</time>
      </trkpt>
      <trkpt lat="49.44541" lon="1.00504">
        <ele>109.73</ele>
        <time>2018-05-13T15:45:52Z</time>
      </trkpt>
      <trkpt lat="49.44544" lon="1.00481">
        <ele>108.77</ele>
        <time>2018-05-13T15:45:55Z</time>
      </trkpt>
      <trkpt lat="49.44547" lon="1.00475">
        <ele>108.77</ele>
        <time>2018-05-13T15:45:56Z</time>
      </trkpt>
      <trkpt lat="49.44548" lon="1.00469">
        <ele>107.81</ele>
        <time>2018-05-13T15:45:57Z</time>
      </trkpt>
      <trkpt lat="49.44547" lon="1.00464">
        <ele>107.81</ele>
        <time>2018-05-13T15:45:58Z</time>
      </trkpt>
      <trkpt lat="49.44546" lon="1.00459">
        <ele>107.81</ele>
        <time>2018-05-13T15:45:59Z</time>
      </trkpt>
      <trkpt lat="49.44544" lon="1.00453">
        <ele>107.32</ele>
        <time>2018-05-13T15:46:00Z</time>
      </trkpt>
      <trkpt lat="49.44541" lon="1.00441">
        <ele>107.32</ele>
        <time>2018-05-13T15:46:02Z</time>
      </trkpt>
      <trkpt lat="49.44541" lon="1.00432">
        <ele>107.32</ele>
        <time>2018-05-13T15:46:03Z</time>
      </trkpt>
      <trkpt lat="49.44541" lon="1.00423">
        <ele>107.32</ele>
        <time>2018-05-13T15:46:04Z</time>
      </trkpt>
      <trkpt lat="49.44542" lon="1.00415">
        <ele>107.32</ele>
        <time>2018-05-13T15:46:05Z</time>
      </trkpt>
      <trkpt lat="49.44542" lon="1.00406">
        <ele>106.84</ele>
        <time>2018-05-13T15:46:06Z</time>
      </trkpt>
      <trkpt lat="49.44543" lon="1.00395">
        <ele>106.84</ele>
        <time>2018-05-13T15:46:07Z</time>
      </trkpt>
      <trkpt lat="49.44537" lon="1.00323">
        <ele>106.36</ele>
        <time>2018-05-13T15:46:16Z</time>
      </trkpt>
      <trkpt lat="49.44536" lon="1.00314">
        <ele>105.88</ele>
        <time>2018-05-13T15:46:17Z</time>
      </trkpt>
      <trkpt lat="49.44536" lon="1.00304">
        <ele>105.88</ele>
        <time>2018-05-13T15:46:18Z</time>
      </trkpt>
      <trkpt lat="49.44536" lon="1.00295">
        <ele>105.88</ele>
        <time>2018-05-13T15:46:19Z</time>
      </trkpt>
      <trkpt lat="49.44536" lon="1.00286">
        <ele>105.88</ele>
        <time>2018-05-13T15:46:20Z</time>
      </trkpt>
      <trkpt lat="49.44535" lon="1.00277">
        <ele>105.88</ele>
        <time>2018-05-13T15:46:21Z</time>
      </trkpt>
      <trkpt lat="49.44534" lon="1.00267">
        <ele>104.92</ele>
        <time>2018-05-13T15:46:22Z</time>
      </trkpt>
      <trkpt lat="49.44532" lon="1.00258">
        <ele>104.92</ele>
        <time>2018-05-13T15:46:23Z</time>
      </trkpt>
      <trkpt lat="49.44531" lon="1.00248">
        <ele>104.44</ele>
        <time>2018-05-13T15:46:24Z</time>
      </trkpt>
      <trkpt lat="49.44531" lon="1.00238">
        <ele>104.44</ele>
        <time>2018-05-13T15:46:25Z</time>
      </trkpt>
      <trkpt lat="49.44532" lon="1.00228">
        <ele>104.44</ele>
        <time>2018-05-13T15:46:26Z</time>
      </trkpt>
      <trkpt lat="49.44532" lon="1.00218">
        <ele>104.44</ele>
        <time>2018-05-13T15:46:27Z</time>
      </trkpt>
      <trkpt lat="49.44531" lon="1.0021">
        <ele>104.44</ele>
        <time>2018-05-13T15:46:28Z</time>
      </trkpt>
      <trkpt lat="49.4453" lon="1.002">
        <ele>104.44</ele>
        <time>2018-05-13T15:46:29Z</time>
      </trkpt>
      <trkpt lat="49.44529" lon="1.00192">
        <ele>104.44</ele>
        <time>2018-05-13T15:46:30Z</time>
      </trkpt>
      <trkpt lat="49.4453" lon="1.00183">
        <ele>104.44</ele>
        <time>2018-05-13T15:46:31Z</time>
      </trkpt>
      <trkpt lat="49.4453" lon="1.00175">
        <ele>104.44</ele>
        <time>2018-05-13T15:46:32Z</time>
      </trkpt>
      <trkpt lat="49.4453" lon="1.00166">
        <ele>104.44</ele>
        <time>2018-05-13T15:46:33Z</time>
      </trkpt>
      <trkpt lat="49.4453" lon="1.00157">
        <ele>104.44</ele>
        <time>2018-05-13T15:46:34Z</time>
      </trkpt>
      <trkpt lat="49.44531" lon="1.00149">
        <ele>103.96</ele>
        <time>2018-05-13T15:46:35Z</time>
      </trkpt>
      <trkpt lat="49.44532" lon="1.00139">
        <ele>103.96</ele>
        <time>2018-05-13T15:46:36Z</time>
      </trkpt>
      <trkpt lat="49.44533" lon="1.00074">
        <ele>103.48</ele>
        <time>2018-05-13T15:46:43Z</time>
      </trkpt>
      <trkpt lat="49.44533" lon="1.00067">
        <ele>103.48</ele>
        <time>2018-05-13T15:46:44Z</time>
      </trkpt>
      <trkpt lat="49.4453" lon="1.00034">
        <ele>103.48</ele>
        <time>2018-05-13T15:46:48Z</time>
      </trkpt>
      <trkpt lat="49.44529" lon="1.00026">
        <ele>103.48</ele>
        <time>2018-05-13T15:46:49Z</time>
      </trkpt>
      <trkpt lat="49.44528" lon="1.00018">
        <ele>103.48</ele>
        <time>2018-05-13T15:46:50Z</time>
      </trkpt>
      <trkpt lat="49.44529" lon="1.0001">
        <ele>103.48</ele>
        <time>2018-05-13T15:46:51Z</time>
      </trkpt>
      <trkpt lat="49.44529" lon="1.00003">
        <ele>103.48</ele>
        <time>2018-05-13T15:46:52Z</time>
      </trkpt>
      <trkpt lat="49.44531" lon="0.99995">
        <ele>103.48</ele>
        <time>2018-05-13T15:46:53Z</time>
      </trkpt>
      <trkpt lat="49.44532" lon="0.99988">
        <ele>103.48</ele>
        <time>2018-05-13T15:46:54Z</time>
      </trkpt>
      <trkpt lat="49.44533" lon="0.99981">
        <ele>103.48</ele>
        <time>2018-05-13T15:46:55Z</time>
      </trkpt>
      <trkpt lat="49.44532" lon="0.99974">
        <ele>103.48</ele>
        <time>2018-05-13T15:46:56Z</time>
      </trkpt>
      <trkpt lat="49.44531" lon="0.99967">
        <ele>103.48</ele>
        <time>2018-05-13T15:46:57Z</time>
      </trkpt>
      <trkpt lat="49.4453" lon="0.9996">
        <ele>103.48</ele>
        <time>2018-05-13T15:46:58Z</time>
      </trkpt>
      <trkpt lat="49.44531" lon="0.99952">
        <ele>103</ele>
        <time>2018-05-13T15:46:59Z</time>
      </trkpt>
      <trkpt lat="49.44532" lon="0.99944">
        <ele>102.52</ele>
        <time>2018-05-13T15:47:00Z</time>
      </trkpt>
      <trkpt lat="49.44533" lon="0.99937">
        <ele>102.52</ele>
        <time>2018-05-13T15:47:01Z</time>
      </trkpt>
      <trkpt lat="49.44533" lon="0.99928">
        <ele>102.52</ele>
        <time>2018-05-13T15:47:02Z</time>
      </trkpt>
      <trkpt lat="49.44532" lon="0.9992">
        <ele>102.04</ele>
        <time>2018-05-13T15:47:03Z</time>
      </trkpt>
      <trkpt lat="49.44531" lon="0.99911">
        <ele>102.04</ele>
        <time>2018-05-13T15:47:04Z</time>
      </trkpt>
      <trkpt lat="49.44529" lon="0.99903">
        <ele>101.56</ele>
        <time>2018-05-13T15:47:05Z</time>
      </trkpt>
      <trkpt lat="49.44527" lon="0.99895">
        <ele>101.08</ele>
        <time>2018-05-13T15:47:06Z</time>
      </trkpt>
      <trkpt lat="49.44524" lon="0.99879">
        <ele>100.6</ele>
        <time>2018-05-13T15:47:08Z</time>
      </trkpt>
      <trkpt lat="49.44524" lon="0.99871">
        <ele>100.6</ele>
        <time>2018-05-13T15:47:09Z</time>
      </trkpt>
      <trkpt lat="49.44525" lon="0.99863">
        <ele>100.11</ele>
        <time>2018-05-13T15:47:10Z</time>
      </trkpt>
      <trkpt lat="49.44531" lon="0.99833">
        <ele>99.63</ele>
        <time>2018-05-13T15:47:14Z</time>
      </trkpt>
      <trkpt lat="49.44531" lon="0.99803">
        <ele>99.63</ele>
        <time>2018-05-13T15:47:18Z</time>
      </trkpt>
      <trkpt lat="49.44531" lon="0.99794">
        <ele>99.15</ele>
        <time>2018-05-13T15:47:19Z</time>
      </trkpt>
      <trkpt lat="49.44531" lon="0.99768">
        <ele>99.15</ele>
        <time>2018-05-13T15:47:22Z</time>
      </trkpt>
      <trkpt lat="49.44532" lon="0.99758">
        <ele>99.15</ele>
        <time>2018-05-13T15:47:23Z</time>
      </trkpt>
      <trkpt lat="49.44532" lon="0.99751">
        <ele>99.15</ele>
        <time>2018-05-13T15:47:24Z</time>
      </trkpt>
      <trkpt lat="49.44533" lon="0.99743">
        <ele>99.15</ele>
        <time>2018-05-13T15:47:25Z</time>
      </trkpt>
      <trkpt lat="49.44534" lon="0.99735">
        <ele>99.15</ele>
        <time>2018-05-13T15:47:26Z</time>
      </trkpt>
      <trkpt lat="49.44534" lon="0.99726">
        <ele>98.67</ele>
        <time>2018-05-13T15:47:27Z</time>
      </trkpt>
      <trkpt lat="49.44534" lon="0.99718">
        <ele>98.67</ele>
        <time>2018-05-13T15:47:28Z</time>
      </trkpt>
      <trkpt lat="49.44535" lon="0.9971">
        <ele>98.67</ele>
        <time>2018-05-13T15:47:29Z</time>
      </trkpt>
      <trkpt lat="49.44535" lon="0.99701">
        <ele>98.67</ele>
        <time>2018-05-13T15:47:30Z</time>
      </trkpt>
      <trkpt lat="49.44535" lon="0.99694">
        <ele>98.67</ele>
        <time>2018-05-13T15:47:31Z</time>
      </trkpt>
      <trkpt lat="49.44534" lon="0.99686">
        <ele>98.67</ele>
        <time>2018-05-13T15:47:32Z</time>
      </trkpt>
      <trkpt lat="49.44534" lon="0.9966">
        <ele>98.67</ele>
        <time>2018-05-13T15:47:35Z</time>
      </trkpt>
      <trkpt lat="49.44535" lon="0.99644">
        <ele>98.67</ele>
        <time>2018-05-13T15:47:37Z</time>
      </trkpt>
      <trkpt lat="49.44534" lon="0.99636">
        <ele>98.67</ele>
        <time>2018-05-13T15:47:38Z</time>
      </trkpt>
      <trkpt lat="49.44534" lon="0.99628">
        <ele>98.67</ele>
        <time>2018-05-13T15:47:39Z</time>
      </trkpt>
      <trkpt lat="49.44533" lon="0.99621">
        <ele>98.67</ele>
        <time>2018-05-13T15:47:40Z</time>
      </trkpt>
      <trkpt lat="49.44532" lon="0.99614">
        <ele>98.67</ele>
        <time>2018-05-13T15:47:41Z</time>
      </trkpt>
      <trkpt lat="49.44531" lon="0.99605">
        <ele>98.67</ele>
        <time>2018-05-13T15:47:42Z</time>
      </trkpt>
      <trkpt lat="49.44531" lon="0.9959">
        <ele>98.67</ele>
        <time>2018-05-13T15:47:44Z</time>
      </trkpt>
      <trkpt lat="49.44533" lon="0.99582">
        <ele>98.67</ele>
        <time>2018-05-13T15:47:45Z</time>
      </trkpt>
      <trkpt lat="49.44533" lon="0.99575">
        <ele>98.67</ele>
        <time>2018-05-13T15:47:46Z</time>
      </trkpt>
      <trkpt lat="49.44533" lon="0.99567">
        <ele>98.67</ele>
        <time>2018-05-13T15:47:47Z</time>
      </trkpt>
      <trkpt lat="49.44533" lon="0.99558">
        <ele>98.67</ele>
        <time>2018-05-13T15:47:48Z</time>
      </trkpt>
      <trkpt lat="49.44531" lon="0.99549">
        <ele>98.67</ele>
        <time>2018-05-13T15:47:49Z</time>
      </trkpt>
      <trkpt lat="49.44529" lon="0.99542">
        <ele>98.67</ele>
        <time>2018-05-13T15:47:50Z</time>
      </trkpt>
      <trkpt lat="49.44526" lon="0.99535">
        <ele>98.19</ele>
        <time>2018-05-13T15:47:51Z</time>
      </trkpt>
      <trkpt lat="49.44523" lon="0.99529">
        <ele>98.19</ele>
        <time>2018-05-13T15:47:52Z</time>
      </trkpt>
      <trkpt lat="49.44521" lon="0.99523">
        <ele>98.19</ele>
        <time>2018-05-13T15:47:53Z</time>
      </trkpt>
      <trkpt lat="49.44521" lon="0.99516">
        <ele>98.19</ele>
        <time>2018-05-13T15:47:54Z</time>
      </trkpt>
      <trkpt lat="49.44521" lon="0.99509">
        <ele>98.19</ele>
        <time>2018-05-13T15:47:55Z</time>
      </trkpt>
      <trkpt lat="49.44522" lon="0.99503">
        <ele>98.19</ele>
        <time>2018-05-13T15:47:56Z</time>
      </trkpt>
      <trkpt lat="49.44523" lon="0.99496">
        <ele>98.19</ele>
        <time>2018-05-13T15:47:57Z</time>
      </trkpt>
      <trkpt lat="49.44524" lon="0.99488">
        <ele>98.19</ele>
        <time>2018-05-13T15:47:58Z</time>
      </trkpt>
      <trkpt lat="49.44525" lon="0.9948">
        <ele>98.19</ele>
        <time>2018-05-13T15:47:59Z</time>
      </trkpt>
      <trkpt lat="49.44525" lon="0.99471">
        <ele>98.19</ele>
        <time>2018-05-13T15:48:00Z</time>
      </trkpt>
      <trkpt lat="49.44526" lon="0.99464">
        <ele>97.71</ele>
        <time>2018-05-13T15:48:01Z</time>
      </trkpt>
      <trkpt lat="49.44526" lon="0.99456">
        <ele>97.71</ele>
        <time>2018-05-13T15:48:02Z</time>
      </trkpt>
      <trkpt lat="49.44529" lon="0.99424">
        <ele>97.23</ele>
        <time>2018-05-13T15:48:06Z</time>
      </trkpt>
      <trkpt lat="49.44529" lon="0.994">
        <ele>97.23</ele>
        <time>2018-05-13T15:48:09Z</time>
      </trkpt>
      <trkpt lat="49.44529" lon="0.99393">
        <ele>96.75</ele>
        <time>2018-05-13T15:48:10Z</time>
      </trkpt>
      <trkpt lat="49.44532" lon="0.99372">
        <ele>96.27</ele>
        <time>2018-05-13T15:48:13Z</time>
      </trkpt>
      <trkpt lat="49.44533" lon="0.99365">
        <ele>96.27</ele>
        <time>2018-05-13T15:48:14Z</time>
      </trkpt>
      <trkpt lat="49.44534" lon="0.99358">
        <ele>96.27</ele>
        <time>2018-05-13T15:48:15Z</time>
      </trkpt>
      <trkpt lat="49.44534" lon="0.99351">
        <ele>96.27</ele>
        <time>2018-05-13T15:48:16Z</time>
      </trkpt>
      <trkpt lat="49.44534" lon="0.99343">
        <ele>95.79</ele>
        <time>2018-05-13T15:48:17Z</time>
      </trkpt>
      <trkpt lat="49.44535" lon="0.99336">
        <ele>95.79</ele>
        <time>2018-05-13T15:48:18Z</time>
      </trkpt>
      <trkpt lat="49.44536" lon="0.99329">
        <ele>95.79</ele>
        <time>2018-05-13T15:48:19Z</time>
      </trkpt>
      <trkpt lat="49.44538" lon="0.99321">
        <ele>95.31</ele>
        <time>2018-05-13T15:48:20Z</time>
      </trkpt>
      <trkpt lat="49.44537" lon="0.99315">
        <ele>95.31</ele>
        <time>2018-05-13T15:48:21Z</time>
      </trkpt>
      <trkpt lat="49.44536" lon="0.99308">
        <ele>95.31</ele>
        <time>2018-05-13T15:48:22Z</time>
      </trkpt>
      <trkpt lat="49.44534" lon="0.99302">
        <ele>95.31</ele>
        <time>2018-05-13T15:48:23Z</time>
      </trkpt>
      <trkpt lat="49.44534" lon="0.99295">
        <ele>95.31</ele>
        <time>2018-05-13T15:48:24Z</time>
      </trkpt>
      <trkpt lat="49.44533" lon="0.99288">
        <ele>94.83</ele>
        <time>2018-05-13T15:48:25Z</time>
      </trkpt>
      <trkpt lat="49.44533" lon="0.99272">
        <ele>94.83</ele>
        <time>2018-05-13T15:48:27Z</time>
      </trkpt>
      <trkpt lat="49.44534" lon="0.99266">
        <ele>94.83</ele>
        <time>2018-05-13T15:48:28Z</time>
      </trkpt>
      <trkpt lat="49.44534" lon="0.9926">
        <ele>94.35</ele>
        <time>2018-05-13T15:48:29Z</time>
      </trkpt>
      <trkpt lat="49.44533" lon="0.99256">
        <ele>93.87</ele>
        <time>2018-05-13T15:48:30Z</time>
      </trkpt>
      <trkpt lat="49.44532" lon="0.99252">
        <ele>93.87</ele>
        <time>2018-05-13T15:48:31Z</time>
      </trkpt>
      <trkpt lat="49.44531" lon="0.99247">
        <ele>93.39</ele>
        <time>2018-05-13T15:48:32Z</time>
      </trkpt>
      <trkpt lat="49.44539" lon="0.99207">
        <ele>91.94</ele>
        <time>2018-05-13T15:48:39Z</time>
      </trkpt>
      <trkpt lat="49.44538" lon="0.99201">
        <ele>91.94</ele>
        <time>2018-05-13T15:48:40Z</time>
      </trkpt>
      <trkpt lat="49.44537" lon="0.99196">
        <ele>91.94</ele>
        <time>2018-05-13T15:48:41Z</time>
      </trkpt>
      <trkpt lat="49.44535" lon="0.99192">
        <ele>91.94</ele>
        <time>2018-05-13T15:48:42Z</time>
      </trkpt>
      <trkpt lat="49.44533" lon="0.9919">
        <ele>91.94</ele>
        <time>2018-05-13T15:48:43Z</time>
      </trkpt>
      <trkpt lat="49.44529" lon="0.99186">
        <ele>91.94</ele>
        <time>2018-05-13T15:48:45Z</time>
      </trkpt>
      <trkpt lat="49.44525" lon="0.99184">
        <ele>91.94</ele>
        <time>2018-05-13T15:48:46Z</time>
      </trkpt>
      <trkpt lat="49.44511" lon="0.9917">
        <ele>93.39</ele>
        <time>2018-05-13T15:48:56Z</time>
      </trkpt>
      <trkpt lat="49.44508" lon="0.99167">
        <ele>93.87</ele>
        <time>2018-05-13T15:49:06Z</time>
      </trkpt>
      <trkpt lat="49.4449" lon="0.99168">
        <ele>93.87</ele>
        <time>2018-05-13T15:49:13Z</time>
      </trkpt>
      <trkpt lat="49.44448" lon="0.99165">
        <ele>92.42</ele>
        <time>2018-05-13T15:49:24Z</time>
      </trkpt>
      <trkpt lat="49.44437" lon="0.99154">
        <ele>92.42</ele>
        <time>2018-05-13T15:49:31Z</time>
      </trkpt>
      <trkpt lat="49.44428" lon="0.99153">
        <ele>92.42</ele>
        <time>2018-05-13T15:49:33Z</time>
      </trkpt>
      <trkpt lat="49.44418" lon="0.99151">
        <ele>92.42</ele>
        <time>2018-05-13T15:49:35Z</time>
      </trkpt>
      <trkpt lat="49.44409" lon="0.99149">
        <ele>93.87</ele>
        <time>2018-05-13T15:49:37Z</time>
      </trkpt>
      <trkpt lat="49.44385" lon="0.99142">
        <ele>93.87</ele>
        <time>2018-05-13T15:49:42Z</time>
      </trkpt>
      <trkpt lat="49.44362" lon="0.99134">
        <ele>94.83</ele>
        <time>2018-05-13T15:49:47Z</time>
      </trkpt>
      <trkpt lat="49.44345" lon="0.99128">
        <ele>94.83</ele>
        <time>2018-05-13T15:49:50Z</time>
      </trkpt>
      <trkpt lat="49.44342" lon="0.99125">
        <ele>94.83</ele>
        <time>2018-05-13T15:49:51Z</time>
      </trkpt>
      <trkpt lat="49.44339" lon="0.99123">
        <ele>94.83</ele>
        <time>2018-05-13T15:49:52Z</time>
      </trkpt>
      <trkpt lat="49.44336" lon="0.9912">
        <ele>94.83</ele>
        <time>2018-05-13T15:49:53Z</time>
      </trkpt>
      <trkpt lat="49.44332" lon="0.99118">
        <ele>94.83</ele>
        <time>2018-05-13T15:49:54Z</time>
      </trkpt>
      <trkpt lat="49.44328" lon="0.99117">
        <ele>95.31</ele>
        <time>2018-05-13T15:49:55Z</time>
      </trkpt>
      <trkpt lat="49.44256" lon="0.991">
        <ele>94.83</ele>
        <time>2018-05-13T15:50:08Z</time>
      </trkpt>
      <trkpt lat="49.44251" lon="0.99099">
        <ele>93.87</ele>
        <time>2018-05-13T15:50:09Z</time>
      </trkpt>
      <trkpt lat="49.44247" lon="0.99097">
        <ele>93.87</ele>
        <time>2018-05-13T15:50:10Z</time>
      </trkpt>
      <trkpt lat="49.44243" lon="0.99096">
        <ele>93.39</ele>
        <time>2018-05-13T15:50:11Z</time>
      </trkpt>
      <trkpt lat="49.44239" lon="0.99095">
        <ele>92.9</ele>
        <time>2018-05-13T15:50:12Z</time>
      </trkpt>
      <trkpt lat="49.44219" lon="0.99091">
        <ele>91.46</ele>
        <time>2018-05-13T15:50:15Z</time>
      </trkpt>
      <trkpt lat="49.44211" lon="0.9909">
        <ele>91.46</ele>
        <time>2018-05-13T15:50:16Z</time>
      </trkpt>
      <trkpt lat="49.44204" lon="0.99087">
        <ele>91.46</ele>
        <time>2018-05-13T15:50:17Z</time>
      </trkpt>
      <trkpt lat="49.44197" lon="0.99085">
        <ele>91.46</ele>
        <time>2018-05-13T15:50:18Z</time>
      </trkpt>
      <trkpt lat="49.44191" lon="0.99083">
        <ele>91.46</ele>
        <time>2018-05-13T15:50:19Z</time>
      </trkpt>
      <trkpt lat="49.44117" lon="0.99057">
        <ele>94.35</ele>
        <time>2018-05-13T15:50:33Z</time>
      </trkpt>
      <trkpt lat="49.44087" lon="0.99049">
        <ele>93.87</ele>
        <time>2018-05-13T15:50:39Z</time>
      </trkpt>
      <trkpt lat="49.44072" lon="0.99046">
        <ele>93.87</ele>
        <time>2018-05-13T15:50:42Z</time>
      </trkpt>
      <trkpt lat="49.44053" lon="0.99043">
        <ele>92.9</ele>
        <time>2018-05-13T15:50:45Z</time>
      </trkpt>
      <trkpt lat="49.44047" lon="0.99042">
        <ele>92.9</ele>
        <time>2018-05-13T15:50:46Z</time>
      </trkpt>
      <trkpt lat="49.4404" lon="0.99041">
        <ele>92.42</ele>
        <time>2018-05-13T15:50:47Z</time>
      </trkpt>
      <trkpt lat="49.44033" lon="0.99039">
        <ele>92.42</ele>
        <time>2018-05-13T15:50:48Z</time>
      </trkpt>
      <trkpt lat="49.44026" lon="0.99036">
        <ele>92.42</ele>
        <time>2018-05-13T15:50:49Z</time>
      </trkpt>
      <trkpt lat="49.44006" lon="0.99028">
        <ele>94.35</ele>
        <time>2018-05-13T15:50:53Z</time>
      </trkpt>
      <trkpt lat="49.43982" lon="0.99016">
        <ele>94.83</ele>
        <time>2018-05-13T15:50:58Z</time>
      </trkpt>
      <trkpt lat="49.43966" lon="0.99012">
        <ele>94.83</ele>
        <time>2018-05-13T15:51:01Z</time>
      </trkpt>
      <trkpt lat="49.4396" lon="0.99011">
        <ele>94.83</ele>
        <time>2018-05-13T15:51:02Z</time>
      </trkpt>
      <trkpt lat="49.43898" lon="0.98992">
        <ele>95.31</ele>
        <time>2018-05-13T15:51:14Z</time>
      </trkpt>
      <trkpt lat="49.43833" lon="0.98971">
        <ele>93.87</ele>
        <time>2018-05-13T15:51:26Z</time>
      </trkpt>
      <trkpt lat="49.43778" lon="0.98953">
        <ele>93.87</ele>
        <time>2018-05-13T15:51:36Z</time>
      </trkpt>
      <trkpt lat="49.43773" lon="0.98952">
        <ele>93.87</ele>
        <time>2018-05-13T15:51:37Z</time>
      </trkpt>
      <trkpt lat="49.43709" lon="0.98936">
        <ele>92.9</ele>
        <time>2018-05-13T15:51:49Z</time>
      </trkpt>
      <trkpt lat="49.43667" lon="0.98925">
        <ele>89.54</ele>
        <time>2018-05-13T15:51:55Z</time>
      </trkpt>
      <trkpt lat="49.43652" lon="0.98922">
        <ele>86.18</ele>
        <time>2018-05-13T15:51:57Z</time>
      </trkpt>
      <trkpt lat="49.43635" lon="0.98918">
        <ele>81.85</ele>
        <time>2018-05-13T15:51:59Z</time>
      </trkpt>
      <trkpt lat="49.43608" lon="0.98906">
        <ele>78</ele>
        <time>2018-05-13T15:52:02Z</time>
      </trkpt>
      <trkpt lat="49.43582" lon="0.98898">
        <ele>75.12</ele>
        <time>2018-05-13T15:52:08Z</time>
      </trkpt>
      <trkpt lat="49.43574" lon="0.98893">
        <ele>75.6</ele>
        <time>2018-05-13T15:52:19Z</time>
      </trkpt>
      <trkpt lat="49.43542" lon="0.98886">
        <ele>75.6</ele>
        <time>2018-05-13T15:52:29Z</time>
      </trkpt>
      <trkpt lat="49.43523" lon="0.9888">
        <ele>77.04</ele>
        <time>2018-05-13T15:52:34Z</time>
      </trkpt>
      <trkpt lat="49.43516" lon="0.98879">
        <ele>77.04</ele>
        <time>2018-05-13T15:52:35Z</time>
      </trkpt>
      <trkpt lat="49.43493" lon="0.98869">
        <ele>75.6</ele>
        <time>2018-05-13T15:52:39Z</time>
      </trkpt>
      <trkpt lat="49.43482" lon="0.98865">
        <ele>74.16</ele>
        <time>2018-05-13T15:52:41Z</time>
      </trkpt>
      <trkpt lat="49.43459" lon="0.98859">
        <ele>69.35</ele>
        <time>2018-05-13T15:52:44Z</time>
      </trkpt>
      <trkpt lat="49.43449" lon="0.98857">
        <ele>68.39</ele>
        <time>2018-05-13T15:52:45Z</time>
      </trkpt>
      <trkpt lat="49.43426" lon="0.98836">
        <ele>67.91</ele>
        <time>2018-05-13T15:52:49Z</time>
      </trkpt>
      <trkpt lat="49.43422" lon="0.98834">
        <ele>67.91</ele>
        <time>2018-05-13T15:52:50Z</time>
      </trkpt>
      <trkpt lat="49.43418" lon="0.98833">
        <ele>67.91</ele>
        <time>2018-05-13T15:52:51Z</time>
      </trkpt>
      <trkpt lat="49.43414" lon="0.98834">
        <ele>67.91</ele>
        <time>2018-05-13T15:52:52Z</time>
      </trkpt>
      <trkpt lat="49.4341" lon="0.98836">
        <ele>67.91</ele>
        <time>2018-05-13T15:52:53Z</time>
      </trkpt>
      <trkpt lat="49.43405" lon="0.98837">
        <ele>67.91</ele>
        <time>2018-05-13T15:52:54Z</time>
      </trkpt>
      <trkpt lat="49.43401" lon="0.98837">
        <ele>67.91</ele>
        <time>2018-05-13T15:52:55Z</time>
      </trkpt>
      <trkpt lat="49.4339" lon="0.98836">
        <ele>67.91</ele>
        <time>2018-05-13T15:52:57Z</time>
      </trkpt>
      <trkpt lat="49.4332" lon="0.98816">
        <ele>65.99</ele>
        <time>2018-05-13T15:53:08Z</time>
      </trkpt>
      <trkpt lat="49.43304" lon="0.9881">
        <ele>65.03</ele>
        <time>2018-05-13T15:53:11Z</time>
      </trkpt>
      <trkpt lat="49.433" lon="0.98812">
        <ele>64.07</ele>
        <time>2018-05-13T15:53:12Z</time>
      </trkpt>
      <trkpt lat="49.43297" lon="0.98817">
        <ele>64.07</ele>
        <time>2018-05-13T15:53:13Z</time>
      </trkpt>
      <trkpt lat="49.43295" lon="0.98822">
        <ele>63.58</ele>
        <time>2018-05-13T15:53:14Z</time>
      </trkpt>
      <trkpt lat="49.43293" lon="0.98828">
        <ele>63.58</ele>
        <time>2018-05-13T15:53:15Z</time>
      </trkpt>
      <trkpt lat="49.43291" lon="0.98834">
        <ele>63.58</ele>
        <time>2018-05-13T15:53:16Z</time>
      </trkpt>
      <trkpt lat="49.43267" lon="0.98881">
        <ele>66.47</ele>
        <time>2018-05-13T15:53:28Z</time>
      </trkpt>
      <trkpt lat="49.43258" lon="0.989">
        <ele>69.83</ele>
        <time>2018-05-13T15:53:36Z</time>
      </trkpt>
      <trkpt lat="49.4325" lon="0.98918">
        <ele>73.2</ele>
        <time>2018-05-13T15:53:44Z</time>
      </trkpt>
      <trkpt lat="49.43244" lon="0.9893">
        <ele>76.56</ele>
        <time>2018-05-13T15:53:50Z</time>
      </trkpt>
      <trkpt lat="49.43238" lon="0.98941">
        <ele>80.41</ele>
        <time>2018-05-13T15:53:57Z</time>
      </trkpt>
      <trkpt lat="49.43234" lon="0.98953">
        <ele>83.29</ele>
        <time>2018-05-13T15:54:04Z</time>
      </trkpt>
      <trkpt lat="49.43233" lon="0.98958">
        <ele>85.21</ele>
        <time>2018-05-13T15:54:08Z</time>
      </trkpt>
      <trkpt lat="49.43232" lon="0.98962">
        <ele>85.69</ele>
        <time>2018-05-13T15:54:10Z</time>
      </trkpt>
      <trkpt lat="49.43232" lon="0.98964">
        <ele>85.69</ele>
        <time>2018-05-13T15:54:11Z</time>
      </trkpt>
      <trkpt lat="49.43231" lon="0.98965">
        <ele>86.18</ele>
        <time>2018-05-13T15:54:12Z</time>
      </trkpt>
      <trkpt lat="49.43231" lon="0.98967">
        <ele>86.18</ele>
        <time>2018-05-13T15:54:13Z</time>
      </trkpt>
      <trkpt lat="49.4323" lon="0.98969">
        <ele>86.66</ele>
        <time>2018-05-13T15:54:14Z</time>
      </trkpt>
      <trkpt lat="49.4323" lon="0.98971">
        <ele>86.66</ele>
        <time>2018-05-13T15:54:15Z</time>
      </trkpt>
      <trkpt lat="49.4323" lon="0.98973">
        <ele>86.66</ele>
        <time>2018-05-13T15:54:16Z</time>
      </trkpt>
      <trkpt lat="49.43229" lon="0.98975">
        <ele>87.14</ele>
        <time>2018-05-13T15:54:17Z</time>
      </trkpt>
      <trkpt lat="49.43229" lon="0.98976">
        <ele>87.14</ele>
        <time>2018-05-13T15:54:18Z</time>
      </trkpt>
      <trkpt lat="49.43228" lon="0.98978">
        <ele>87.62</ele>
        <time>2018-05-13T15:54:19Z</time>
      </trkpt>
      <trkpt lat="49.43214" lon="0.99005">
        <ele>90.02</ele>
        <time>2018-05-13T15:54:35Z</time>
      </trkpt>
      <trkpt lat="49.43208" lon="0.9902">
        <ele>90.5</ele>
        <time>2018-05-13T15:54:42Z</time>
      </trkpt>
      <trkpt lat="49.43206" lon="0.99022">
        <ele>90.5</ele>
        <time>2018-05-13T15:54:43Z</time>
      </trkpt>
      <trkpt lat="49.43205" lon="0.99025">
        <ele>90.5</ele>
        <time>2018-05-13T15:54:44Z</time>
      </trkpt>
      <trkpt lat="49.43193" lon="0.99056">
        <ele>90.5</ele>
        <time>2018-05-13T15:54:56Z</time>
      </trkpt>
      <trkpt lat="49.43192" lon="0.99058">
        <ele>90.5</ele>
        <time>2018-05-13T15:54:57Z</time>
      </trkpt>
      <trkpt lat="49.43168" lon="0.99112">
        <ele>90.98</ele>
        <time>2018-05-13T15:55:13Z</time>
      </trkpt>
      <trkpt lat="49.43137" lon="0.99186">
        <ele>91.46</ele>
        <time>2018-05-13T15:55:30Z</time>
      </trkpt>
      <trkpt lat="49.43105" lon="0.99253">
        <ele>91.46</ele>
        <time>2018-05-13T15:55:44Z</time>
      </trkpt>
      <trkpt lat="49.4307" lon="0.99338">
        <ele>92.42</ele>
        <time>2018-05-13T15:56:01Z</time>
      </trkpt>
      <trkpt lat="49.43035" lon="0.99418">
        <ele>93.87</ele>
        <time>2018-05-13T15:56:18Z</time>
      </trkpt>
      <trkpt lat="49.4302" lon="0.9946">
        <ele>94.83</ele>
        <time>2018-05-13T15:56:27Z</time>
      </trkpt>
      <trkpt lat="49.43017" lon="0.99463">
        <ele>95.31</ele>
        <time>2018-05-13T15:56:28Z</time>
      </trkpt>
      <trkpt lat="49.42998" lon="0.99504">
        <ele>96.75</ele>
        <time>2018-05-13T15:56:39Z</time>
      </trkpt>
      <trkpt lat="49.42976" lon="0.99557">
        <ele>98.67</ele>
        <time>2018-05-13T15:56:54Z</time>
      </trkpt>
      <trkpt lat="49.42944" lon="0.99632">
        <ele>100.6</ele>
        <time>2018-05-13T15:57:16Z</time>
      </trkpt>
      <trkpt lat="49.42917" lon="0.99689">
        <ele>103</ele>
        <time>2018-05-13T15:57:31Z</time>
      </trkpt>
      <trkpt lat="49.42882" lon="0.99769">
        <ele>105.4</ele>
        <time>2018-05-13T15:57:51Z</time>
      </trkpt>
      <trkpt lat="49.42853" lon="0.9984">
        <ele>107.81</ele>
        <time>2018-05-13T15:58:08Z</time>
      </trkpt>
      <trkpt lat="49.42822" lon="0.99911">
        <ele>110.69</ele>
        <time>2018-05-13T15:58:26Z</time>
      </trkpt>
      <trkpt lat="49.42795" lon="0.99968">
        <ele>113.09</ele>
        <time>2018-05-13T15:58:41Z</time>
      </trkpt>
      <trkpt lat="49.42784" lon="0.99983">
        <ele>113.57</ele>
        <time>2018-05-13T15:58:47Z</time>
      </trkpt>
      <trkpt lat="49.42782" lon="0.99981">
        <ele>113.57</ele>
        <time>2018-05-13T15:58:48Z</time>
      </trkpt>
      <trkpt lat="49.4278" lon="0.99979">
        <ele>113.57</ele>
        <time>2018-05-13T15:58:49Z</time>
      </trkpt>
      <trkpt lat="49.42748" lon="0.99935">
        <ele>113.57</ele>
        <time>2018-05-13T15:59:02Z</time>
      </trkpt>
      <trkpt lat="49.42722" lon="0.99895">
        <ele>112.13</ele>
        <time>2018-05-13T15:59:10Z</time>
      </trkpt>
      <trkpt lat="49.42693" lon="0.99855">
        <ele>110.21</ele>
        <time>2018-05-13T15:59:17Z</time>
      </trkpt>
      <trkpt lat="49.42688" lon="0.99849">
        <ele>110.21</ele>
        <time>2018-05-13T15:59:18Z</time>
      </trkpt>
      <trkpt lat="49.42684" lon="0.99843">
        <ele>110.21</ele>
        <time>2018-05-13T15:59:19Z</time>
      </trkpt>
      <trkpt lat="49.4268" lon="0.99838">
        <ele>109.73</ele>
        <time>2018-05-13T15:59:20Z</time>
      </trkpt>
      <trkpt lat="49.42676" lon="0.99832">
        <ele>109.25</ele>
        <time>2018-05-13T15:59:21Z</time>
      </trkpt>
      <trkpt lat="49.42666" lon="0.99818">
        <ele>108.29</ele>
        <time>2018-05-13T15:59:23Z</time>
      </trkpt>
      <trkpt lat="49.42641" lon="0.99782">
        <ele>104.44</ele>
        <time>2018-05-13T15:59:28Z</time>
      </trkpt>
      <trkpt lat="49.42624" lon="0.99761">
        <ele>101.08</ele>
        <time>2018-05-13T15:59:31Z</time>
      </trkpt>
      <trkpt lat="49.4261" lon="0.9974">
        <ele>97.23</ele>
        <time>2018-05-13T15:59:34Z</time>
      </trkpt>
      <trkpt lat="49.42606" lon="0.99733">
        <ele>95.79</ele>
        <time>2018-05-13T15:59:35Z</time>
      </trkpt>
      <trkpt lat="49.42603" lon="0.99725">
        <ele>94.35</ele>
        <time>2018-05-13T15:59:36Z</time>
      </trkpt>
      <trkpt lat="49.42599" lon="0.99716">
        <ele>93.87</ele>
        <time>2018-05-13T15:59:37Z</time>
      </trkpt>
      <trkpt lat="49.42594" lon="0.99709">
        <ele>93.39</ele>
        <time>2018-05-13T15:59:38Z</time>
      </trkpt>
      <trkpt lat="49.42589" lon="0.99703">
        <ele>93.39</ele>
        <time>2018-05-13T15:59:39Z</time>
      </trkpt>
      <trkpt lat="49.42584" lon="0.99698">
        <ele>93.39</ele>
        <time>2018-05-13T15:59:40Z</time>
      </trkpt>
      <trkpt lat="49.42581" lon="0.99694">
        <ele>92.9</ele>
        <time>2018-05-13T15:59:41Z</time>
      </trkpt>
      <trkpt lat="49.42572" lon="0.99687">
        <ele>94.83</ele>
        <time>2018-05-13T15:59:45Z</time>
      </trkpt>
      <trkpt lat="49.42572" lon="0.99685">
        <ele>95.31</ele>
        <time>2018-05-13T15:59:46Z</time>
      </trkpt>
      <trkpt lat="49.42571" lon="0.99683">
        <ele>96.75</ele>
        <time>2018-05-13T15:59:47Z</time>
      </trkpt>
      <trkpt lat="49.42569" lon="0.99681">
        <ele>97.23</ele>
        <time>2018-05-13T15:59:48Z</time>
      </trkpt>
      <trkpt lat="49.42568" lon="0.99679">
        <ele>97.23</ele>
        <time>2018-05-13T15:59:49Z</time>
      </trkpt>
      <trkpt lat="49.42563" lon="0.9967">
        <ele>99.63</ele>
        <time>2018-05-13T15:59:59Z</time>
      </trkpt>
      <trkpt lat="49.42558" lon="0.99661">
        <ele>102.52</ele>
        <time>2018-05-13T16:00:09Z</time>
      </trkpt>
      <trkpt lat="49.42553" lon="0.99657">
        <ele>103.96</ele>
        <time>2018-05-13T16:00:22Z</time>
      </trkpt>
      <trkpt lat="49.42544" lon="0.99644">
        <ele>106.36</ele>
        <time>2018-05-13T16:00:33Z</time>
      </trkpt>
      <trkpt lat="49.42529" lon="0.9962">
        <ele>109.25</ele>
        <time>2018-05-13T16:00:46Z</time>
      </trkpt>
      <trkpt lat="49.4251" lon="0.9959">
        <ele>111.65</ele>
        <time>2018-05-13T16:00:59Z</time>
      </trkpt>
      <trkpt lat="49.42501" lon="0.99575">
        <ele>112.61</ele>
        <time>2018-05-13T16:01:05Z</time>
      </trkpt>
      <trkpt lat="49.42477" lon="0.99542">
        <ele>115.01</ele>
        <time>2018-05-13T16:01:18Z</time>
      </trkpt>
      <trkpt lat="49.42448" lon="0.99502">
        <ele>116.46</ele>
        <time>2018-05-13T16:01:32Z</time>
      </trkpt>
      <trkpt lat="49.42431" lon="0.99489">
        <ele>116.46</ele>
        <time>2018-05-13T16:01:39Z</time>
      </trkpt>
      <trkpt lat="49.4243" lon="0.99486">
        <ele>117.42</ele>
        <time>2018-05-13T16:01:40Z</time>
      </trkpt>
      <trkpt lat="49.42429" lon="0.99482">
        <ele>117.42</ele>
        <time>2018-05-13T16:01:41Z</time>
      </trkpt>
      <trkpt lat="49.42428" lon="0.99477">
        <ele>117.42</ele>
        <time>2018-05-13T16:01:42Z</time>
      </trkpt>
      <trkpt lat="49.42427" lon="0.99473">
        <ele>116.94</ele>
        <time>2018-05-13T16:01:43Z</time>
      </trkpt>
      <trkpt lat="49.42425" lon="0.9947">
        <ele>116.94</ele>
        <time>2018-05-13T16:01:44Z</time>
      </trkpt>
      <trkpt lat="49.42423" lon="0.99467">
        <ele>116.94</ele>
        <time>2018-05-13T16:01:45Z</time>
      </trkpt>
      <trkpt lat="49.42422" lon="0.99465">
        <ele>116.94</ele>
        <time>2018-05-13T16:01:46Z</time>
      </trkpt>
      <trkpt lat="49.4242" lon="0.99462">
        <ele>117.42</ele>
        <time>2018-05-13T16:01:47Z</time>
      </trkpt>
      <trkpt lat="49.42418" lon="0.99459">
        <ele>117.42</ele>
        <time>2018-05-13T16:01:48Z</time>
      </trkpt>
      <trkpt lat="49.42416" lon="0.99456">
        <ele>117.42</ele>
        <time>2018-05-13T16:01:49Z</time>
      </trkpt>
      <trkpt lat="49.42386" lon="0.99411">
        <ele>119.34</ele>
        <time>2018-05-13T16:02:01Z</time>
      </trkpt>
      <trkpt lat="49.42383" lon="0.99408">
        <ele>119.34</ele>
        <time>2018-05-13T16:02:02Z</time>
      </trkpt>
      <trkpt lat="49.42379" lon="0.99404">
        <ele>119.34</ele>
        <time>2018-05-13T16:02:03Z</time>
      </trkpt>
      <trkpt lat="49.42376" lon="0.994">
        <ele>120.3</ele>
        <time>2018-05-13T16:02:04Z</time>
      </trkpt>
      <trkpt lat="49.42372" lon="0.99395">
        <ele>120.3</ele>
        <time>2018-05-13T16:02:05Z</time>
      </trkpt>
      <trkpt lat="49.42367" lon="0.99386">
        <ele>120.3</ele>
        <time>2018-05-13T16:02:07Z</time>
      </trkpt>
      <trkpt lat="49.42347" lon="0.99355">
        <ele>121.26</ele>
        <time>2018-05-13T16:02:14Z</time>
      </trkpt>
      <trkpt lat="49.42344" lon="0.99351">
        <ele>121.26</ele>
        <time>2018-05-13T16:02:15Z</time>
      </trkpt>
      <trkpt lat="49.42341" lon="0.99347">
        <ele>121.74</ele>
        <time>2018-05-13T16:02:16Z</time>
      </trkpt>
      <trkpt lat="49.42338" lon="0.99342">
        <ele>121.74</ele>
        <time>2018-05-13T16:02:17Z</time>
      </trkpt>
      <trkpt lat="49.42336" lon="0.99337">
        <ele>122.22</ele>
        <time>2018-05-13T16:02:18Z</time>
      </trkpt>
      <trkpt lat="49.42332" lon="0.99332">
        <ele>122.22</ele>
        <time>2018-05-13T16:02:19Z</time>
      </trkpt>
      <trkpt lat="49.42329" lon="0.99327">
        <ele>122.22</ele>
        <time>2018-05-13T16:02:20Z</time>
      </trkpt>
      <trkpt lat="49.42285" lon="0.99265">
        <ele>124.15</ele>
        <time>2018-05-13T16:02:34Z</time>
      </trkpt>
      <trkpt lat="49.42246" lon="0.99212">
        <ele>125.11</ele>
        <time>2018-05-13T16:02:46Z</time>
      </trkpt>
      <trkpt lat="49.4224" lon="0.99204">
        <ele>124.63</ele>
        <time>2018-05-13T16:02:48Z</time>
      </trkpt>
      <trkpt lat="49.42232" lon="0.99195">
        <ele>124.63</ele>
        <time>2018-05-13T16:02:50Z</time>
      </trkpt>
      <trkpt lat="49.42223" lon="0.99181">
        <ele>124.63</ele>
        <time>2018-05-13T16:02:53Z</time>
      </trkpt>
      <trkpt lat="49.4222" lon="0.99176">
        <ele>124.63</ele>
        <time>2018-05-13T16:02:54Z</time>
      </trkpt>
      <trkpt lat="49.42218" lon="0.99172">
        <ele>124.63</ele>
        <time>2018-05-13T16:02:55Z</time>
      </trkpt>
      <trkpt lat="49.42185" lon="0.99122">
        <ele>125.59</ele>
        <time>2018-05-13T16:03:06Z</time>
      </trkpt>
      <trkpt lat="49.42158" lon="0.99084">
        <ele>125.59</ele>
        <time>2018-05-13T16:03:14Z</time>
      </trkpt>
      <trkpt lat="49.42158" lon="0.99079">
        <ele>125.59</ele>
        <time>2018-05-13T16:03:15Z</time>
      </trkpt>
      <trkpt lat="49.42159" lon="0.99075">
        <ele>125.59</ele>
        <time>2018-05-13T16:03:16Z</time>
      </trkpt>
      <trkpt lat="49.42161" lon="0.99073">
        <ele>125.59</ele>
        <time>2018-05-13T16:03:17Z</time>
      </trkpt>
      <trkpt lat="49.42163" lon="0.99073">
        <ele>125.59</ele>
        <time>2018-05-13T16:03:18Z</time>
      </trkpt>
      <trkpt lat="49.42165" lon="0.99072">
        <ele>125.59</ele>
        <time>2018-05-13T16:03:19Z</time>
      </trkpt>
      <trkpt lat="49.4216" lon="0.99072">
        <ele>125.11</ele>
        <time>2018-05-13T16:03:25Z</time>
      </trkpt>
      <trkpt lat="49.42157" lon="0.99071">
        <ele>125.59</ele>
        <time>2018-05-13T16:03:26Z</time>
      </trkpt>
      <trkpt lat="49.42154" lon="0.99071">
        <ele>125.11</ele>
        <time>2018-05-13T16:03:27Z</time>
      </trkpt>
      <trkpt lat="49.42151" lon="0.99071">
        <ele>125.59</ele>
        <time>2018-05-13T16:03:28Z</time>
      </trkpt>
      <trkpt lat="49.42148" lon="0.99068">
        <ele>125.11</ele>
        <time>2018-05-13T16:03:29Z</time>
      </trkpt>
      <trkpt lat="49.42146" lon="0.99066">
        <ele>125.59</ele>
        <time>2018-05-13T16:03:30Z</time>
      </trkpt>
      <trkpt lat="49.42145" lon="0.99062">
        <ele>125.11</ele>
        <time>2018-05-13T16:03:31Z</time>
      </trkpt>
      <trkpt lat="49.42133" lon="0.99044">
        <ele>125.59</ele>
        <time>2018-05-13T16:03:35Z</time>
      </trkpt>
      <trkpt lat="49.42109" lon="0.9901">
        <ele>125.59</ele>
        <time>2018-05-13T16:03:42Z</time>
      </trkpt>
      <trkpt lat="49.42107" lon="0.99004">
        <ele>125.59</ele>
        <time>2018-05-13T16:03:43Z</time>
      </trkpt>
      <trkpt lat="49.42107" lon="0.98998">
        <ele>125.59</ele>
        <time>2018-05-13T16:03:44Z</time>
      </trkpt>
      <trkpt lat="49.42108" lon="0.98992">
        <ele>125.59</ele>
        <time>2018-05-13T16:03:45Z</time>
      </trkpt>
      <trkpt lat="49.42109" lon="0.98987">
        <ele>125.59</ele>
        <time>2018-05-13T16:03:46Z</time>
      </trkpt>
      <trkpt lat="49.4211" lon="0.98982">
        <ele>125.59</ele>
        <time>2018-05-13T16:03:47Z</time>
      </trkpt>
      <trkpt lat="49.42112" lon="0.98977">
        <ele>125.59</ele>
        <time>2018-05-13T16:03:48Z</time>
      </trkpt>
      <trkpt lat="49.42115" lon="0.98971">
        <ele>124.15</ele>
        <time>2018-05-13T16:03:49Z</time>
      </trkpt>
      <trkpt lat="49.42118" lon="0.98966">
        <ele>124.15</ele>
        <time>2018-05-13T16:03:50Z</time>
      </trkpt>
      <trkpt lat="49.42124" lon="0.98955">
        <ele>123.67</ele>
        <time>2018-05-13T16:03:52Z</time>
      </trkpt>
      <trkpt lat="49.42128" lon="0.98949">
        <ele>122.71</ele>
        <time>2018-05-13T16:03:53Z</time>
      </trkpt>
      <trkpt lat="49.42132" lon="0.98943">
        <ele>122.71</ele>
        <time>2018-05-13T16:03:54Z</time>
      </trkpt>
      <trkpt lat="49.42136" lon="0.98936">
        <ele>122.71</ele>
        <time>2018-05-13T16:03:55Z</time>
      </trkpt>
      <trkpt lat="49.4214" lon="0.9893">
        <ele>122.22</ele>
        <time>2018-05-13T16:03:56Z</time>
      </trkpt>
      <trkpt lat="49.42177" lon="0.98872">
        <ele>118.86</ele>
        <time>2018-05-13T16:04:04Z</time>
      </trkpt>
      <trkpt lat="49.42209" lon="0.9882">
        <ele>115.5</ele>
        <time>2018-05-13T16:04:10Z</time>
      </trkpt>
      <trkpt lat="49.42237" lon="0.98772">
        <ele>112.61</ele>
        <time>2018-05-13T16:04:15Z</time>
      </trkpt>
      <trkpt lat="49.42255" lon="0.98745">
        <ele>111.17</ele>
        <time>2018-05-13T16:04:18Z</time>
      </trkpt>
      <trkpt lat="49.42281" lon="0.98701">
        <ele>106.84</ele>
        <time>2018-05-13T16:04:22Z</time>
      </trkpt>
      <trkpt lat="49.42299" lon="0.9867">
        <ele>103.48</ele>
        <time>2018-05-13T16:04:25Z</time>
      </trkpt>
      <trkpt lat="49.42309" lon="0.98652">
        <ele>102.04</ele>
        <time>2018-05-13T16:04:27Z</time>
      </trkpt>
      <trkpt lat="49.42323" lon="0.98632">
        <ele>98.19</ele>
        <time>2018-05-13T16:04:30Z</time>
      </trkpt>
      <trkpt lat="49.42327" lon="0.98628">
        <ele>97.71</ele>
        <time>2018-05-13T16:04:31Z</time>
      </trkpt>
      <trkpt lat="49.42332" lon="0.98626">
        <ele>96.75</ele>
        <time>2018-05-13T16:04:32Z</time>
      </trkpt>
      <trkpt lat="49.42338" lon="0.98626">
        <ele>95.79</ele>
        <time>2018-05-13T16:04:33Z</time>
      </trkpt>
      <trkpt lat="49.42344" lon="0.98625">
        <ele>95.31</ele>
        <time>2018-05-13T16:04:34Z</time>
      </trkpt>
      <trkpt lat="49.42351" lon="0.98623">
        <ele>94.83</ele>
        <time>2018-05-13T16:04:35Z</time>
      </trkpt>
      <trkpt lat="49.42358" lon="0.98618">
        <ele>93.87</ele>
        <time>2018-05-13T16:04:36Z</time>
      </trkpt>
      <trkpt lat="49.42364" lon="0.98612">
        <ele>92.42</ele>
        <time>2018-05-13T16:04:37Z</time>
      </trkpt>
      <trkpt lat="49.42371" lon="0.98606">
        <ele>91.46</ele>
        <time>2018-05-13T16:04:38Z</time>
      </trkpt>
      <trkpt lat="49.42391" lon="0.9859">
        <ele>89.54</ele>
        <time>2018-05-13T16:04:41Z</time>
      </trkpt>
      <trkpt lat="49.42397" lon="0.98585">
        <ele>88.1</ele>
        <time>2018-05-13T16:04:42Z</time>
      </trkpt>
      <trkpt lat="49.42402" lon="0.98579">
        <ele>87.62</ele>
        <time>2018-05-13T16:04:43Z</time>
      </trkpt>
      <trkpt lat="49.42406" lon="0.98574">
        <ele>86.66</ele>
        <time>2018-05-13T16:04:44Z</time>
      </trkpt>
      <trkpt lat="49.42413" lon="0.98563">
        <ele>85.21</ele>
        <time>2018-05-13T16:04:46Z</time>
      </trkpt>
      <trkpt lat="49.42422" lon="0.98553">
        <ele>81.85</ele>
        <time>2018-05-13T16:04:48Z</time>
      </trkpt>
      <trkpt lat="49.42427" lon="0.98551">
        <ele>80.89</ele>
        <time>2018-05-13T16:04:49Z</time>
      </trkpt>
      <trkpt lat="49.42432" lon="0.9855">
        <ele>79.93</ele>
        <time>2018-05-13T16:04:50Z</time>
      </trkpt>
      <trkpt lat="49.42439" lon="0.98551">
        <ele>79.45</ele>
        <time>2018-05-13T16:04:51Z</time>
      </trkpt>
      <trkpt lat="49.42445" lon="0.98553">
        <ele>78.97</ele>
        <time>2018-05-13T16:04:52Z</time>
      </trkpt>
      <trkpt lat="49.42451" lon="0.98555">
        <ele>78</ele>
        <time>2018-05-13T16:04:53Z</time>
      </trkpt>
      <trkpt lat="49.42458" lon="0.98557">
        <ele>77.04</ele>
        <time>2018-05-13T16:04:54Z</time>
      </trkpt>
      <trkpt lat="49.42533" lon="0.98582">
        <ele>76.56</ele>
        <time>2018-05-13T16:05:04Z</time>
      </trkpt>
      <trkpt lat="49.4255" lon="0.98587">
        <ele>78.48</ele>
        <time>2018-05-13T16:05:07Z</time>
      </trkpt>
      <trkpt lat="49.42555" lon="0.98589">
        <ele>78.48</ele>
        <time>2018-05-13T16:05:08Z</time>
      </trkpt>
      <trkpt lat="49.4256" lon="0.98591">
        <ele>79.93</ele>
        <time>2018-05-13T16:05:09Z</time>
      </trkpt>
      <trkpt lat="49.42564" lon="0.98592">
        <ele>80.89</ele>
        <time>2018-05-13T16:05:10Z</time>
      </trkpt>
      <trkpt lat="49.42567" lon="0.98593">
        <ele>81.85</ele>
        <time>2018-05-13T16:05:11Z</time>
      </trkpt>
      <trkpt lat="49.42569" lon="0.98594">
        <ele>81.85</ele>
        <time>2018-05-13T16:05:12Z</time>
      </trkpt>
      <trkpt lat="49.42606" lon="0.98602">
        <ele>79.45</ele>
        <time>2018-05-13T16:05:22Z</time>
      </trkpt>
      <trkpt lat="49.42628" lon="0.98607">
        <ele>75.6</ele>
        <time>2018-05-13T16:05:26Z</time>
      </trkpt>
      <trkpt lat="49.42643" lon="0.98616">
        <ele>72.24</ele>
        <time>2018-05-13T16:05:29Z</time>
      </trkpt>
      <trkpt lat="49.42657" lon="0.98623">
        <ele>68.39</ele>
        <time>2018-05-13T16:05:31Z</time>
      </trkpt>
      <trkpt lat="49.42667" lon="0.98625">
        <ele>65.51</ele>
        <time>2018-05-13T16:05:32Z</time>
      </trkpt>
      <trkpt lat="49.42687" lon="0.98629">
        <ele>61.66</ele>
        <time>2018-05-13T16:05:34Z</time>
      </trkpt>
      <trkpt lat="49.42707" lon="0.98636">
        <ele>57.82</ele>
        <time>2018-05-13T16:05:36Z</time>
      </trkpt>
      <trkpt lat="49.42749" lon="0.9865">
        <ele>54.93</ele>
        <time>2018-05-13T16:05:40Z</time>
      </trkpt>
      <trkpt lat="49.42823" lon="0.98677">
        <ele>53.97</ele>
        <time>2018-05-13T16:05:49Z</time>
      </trkpt>
      <trkpt lat="49.42859" lon="0.98689">
        <ele>54.45</ele>
        <time>2018-05-13T16:05:56Z</time>
      </trkpt>
      <trkpt lat="49.42864" lon="0.98691">
        <ele>54.45</ele>
        <time>2018-05-13T16:05:57Z</time>
      </trkpt>
      <trkpt lat="49.42873" lon="0.98694">
        <ele>55.41</ele>
        <time>2018-05-13T16:05:59Z</time>
      </trkpt>
      <trkpt lat="49.42912" lon="0.987">
        <ele>55.89</ele>
        <time>2018-05-13T16:06:10Z</time>
      </trkpt>
      <trkpt lat="49.42915" lon="0.98696">
        <ele>55.89</ele>
        <time>2018-05-13T16:06:12Z</time>
      </trkpt>
      <trkpt lat="49.42916" lon="0.98693">
        <ele>55.89</ele>
        <time>2018-05-13T16:06:13Z</time>
      </trkpt>
      <trkpt lat="49.42918" lon="0.98679">
        <ele>54.45</ele>
        <time>2018-05-13T16:06:17Z</time>
      </trkpt>
      <trkpt lat="49.42915" lon="0.98677">
        <ele>54.45</ele>
        <time>2018-05-13T16:06:18Z</time>
      </trkpt>
      <trkpt lat="49.42913" lon="0.98674">
        <ele>54.45</ele>
        <time>2018-05-13T16:06:19Z</time>
      </trkpt>
      <trkpt lat="49.42909" lon="0.98671">
        <ele>53.97</ele>
        <time>2018-05-13T16:06:20Z</time>
      </trkpt>
      <trkpt lat="49.42904" lon="0.98667">
        <ele>53.97</ele>
        <time>2018-05-13T16:06:21Z</time>
      </trkpt>
      <trkpt lat="49.429" lon="0.98663">
        <ele>53.97</ele>
        <time>2018-05-13T16:06:22Z</time>
      </trkpt>
      <trkpt lat="49.42895" lon="0.98659">
        <ele>53.97</ele>
        <time>2018-05-13T16:06:23Z</time>
      </trkpt>
      <trkpt lat="49.42889" lon="0.98655">
        <ele>53.01</ele>
        <time>2018-05-13T16:06:24Z</time>
      </trkpt>
      <trkpt lat="49.42884" lon="0.98651">
        <ele>52.53</ele>
        <time>2018-05-13T16:06:25Z</time>
      </trkpt>
      <trkpt lat="49.42879" lon="0.98646">
        <ele>52.53</ele>
        <time>2018-05-13T16:06:26Z</time>
      </trkpt>
      <trkpt lat="49.42803" lon="0.98584">
        <ele>50.13</ele>
        <time>2018-05-13T16:06:39Z</time>
      </trkpt>
      <trkpt lat="49.42793" lon="0.98575">
        <ele>50.13</ele>
        <time>2018-05-13T16:06:41Z</time>
      </trkpt>
      <trkpt lat="49.42787" lon="0.9857">
        <ele>50.13</ele>
        <time>2018-05-13T16:06:42Z</time>
      </trkpt>
      <trkpt lat="49.42729" lon="0.98521">
        <ele>49.16</ele>
        <time>2018-05-13T16:06:53Z</time>
      </trkpt>
      <trkpt lat="49.42717" lon="0.98512">
        <ele>48.2</ele>
        <time>2018-05-13T16:06:55Z</time>
      </trkpt>
      <trkpt lat="49.42636" lon="0.98446">
        <ele>46.76</ele>
        <time>2018-05-13T16:07:09Z</time>
      </trkpt>
      <trkpt lat="49.42609" lon="0.98424">
        <ele>48.68</ele>
        <time>2018-05-13T16:07:14Z</time>
      </trkpt>
      <trkpt lat="49.42605" lon="0.98421">
        <ele>48.68</ele>
        <time>2018-05-13T16:07:15Z</time>
      </trkpt>
      <trkpt lat="49.42601" lon="0.98417">
        <ele>49.16</ele>
        <time>2018-05-13T16:07:16Z</time>
      </trkpt>
      <trkpt lat="49.42583" lon="0.984">
        <ele>49.16</ele>
        <time>2018-05-13T16:07:20Z</time>
      </trkpt>
      <trkpt lat="49.42579" lon="0.98396">
        <ele>47.72</ele>
        <time>2018-05-13T16:07:21Z</time>
      </trkpt>
      <trkpt lat="49.42568" lon="0.98387">
        <ele>47.24</ele>
        <time>2018-05-13T16:07:23Z</time>
      </trkpt>
      <trkpt lat="49.42562" lon="0.98382">
        <ele>46.28</ele>
        <time>2018-05-13T16:07:24Z</time>
      </trkpt>
      <trkpt lat="49.42556" lon="0.98377">
        <ele>46.28</ele>
        <time>2018-05-13T16:07:25Z</time>
      </trkpt>
      <trkpt lat="49.42549" lon="0.98372">
        <ele>45.32</ele>
        <time>2018-05-13T16:07:26Z</time>
      </trkpt>
      <trkpt lat="49.42544" lon="0.98368">
        <ele>45.32</ele>
        <time>2018-05-13T16:07:27Z</time>
      </trkpt>
      <trkpt lat="49.42538" lon="0.98364">
        <ele>45.32</ele>
        <time>2018-05-13T16:07:28Z</time>
      </trkpt>
      <trkpt lat="49.42532" lon="0.98358">
        <ele>45.32</ele>
        <time>2018-05-13T16:07:29Z</time>
      </trkpt>
      <trkpt lat="49.42526" lon="0.98353">
        <ele>45.32</ele>
        <time>2018-05-13T16:07:30Z</time>
      </trkpt>
      <trkpt lat="49.42487" lon="0.98319">
        <ele>44.84</ele>
        <time>2018-05-13T16:07:37Z</time>
      </trkpt>
      <trkpt lat="49.42478" lon="0.9831">
        <ele>44.84</ele>
        <time>2018-05-13T16:07:39Z</time>
      </trkpt>
      <trkpt lat="49.42474" lon="0.98304">
        <ele>44.84</ele>
        <time>2018-05-13T16:07:40Z</time>
      </trkpt>
      <trkpt lat="49.4247" lon="0.98298">
        <ele>44.84</ele>
        <time>2018-05-13T16:07:41Z</time>
      </trkpt>
      <trkpt lat="49.42466" lon="0.98291">
        <ele>44.84</ele>
        <time>2018-05-13T16:07:42Z</time>
      </trkpt>
      <trkpt lat="49.42463" lon="0.98283">
        <ele>44.84</ele>
        <time>2018-05-13T16:07:43Z</time>
      </trkpt>
      <trkpt lat="49.4246" lon="0.98275">
        <ele>44.84</ele>
        <time>2018-05-13T16:07:44Z</time>
      </trkpt>
      <trkpt lat="49.42458" lon="0.98268">
        <ele>44.84</ele>
        <time>2018-05-13T16:07:45Z</time>
      </trkpt>
      <trkpt lat="49.42427" lon="0.98165">
        <ele>43.88</ele>
        <time>2018-05-13T16:07:56Z</time>
      </trkpt>
      <trkpt lat="49.4242" lon="0.98144">
        <ele>43.4</ele>
        <time>2018-05-13T16:07:58Z</time>
      </trkpt>
      <trkpt lat="49.42418" lon="0.98135">
        <ele>43.4</ele>
        <time>2018-05-13T16:07:59Z</time>
      </trkpt>
      <trkpt lat="49.42415" lon="0.98125">
        <ele>42.92</ele>
        <time>2018-05-13T16:08:00Z</time>
      </trkpt>
      <trkpt lat="49.42414" lon="0.98116">
        <ele>42.92</ele>
        <time>2018-05-13T16:08:01Z</time>
      </trkpt>
      <trkpt lat="49.42413" lon="0.98107">
        <ele>42.92</ele>
        <time>2018-05-13T16:08:02Z</time>
      </trkpt>
      <trkpt lat="49.42413" lon="0.98097">
        <ele>42.92</ele>
        <time>2018-05-13T16:08:03Z</time>
      </trkpt>
      <trkpt lat="49.42412" lon="0.98088">
        <ele>42.92</ele>
        <time>2018-05-13T16:08:04Z</time>
      </trkpt>
      <trkpt lat="49.42411" lon="0.98081">
        <ele>42.92</ele>
        <time>2018-05-13T16:08:05Z</time>
      </trkpt>
      <trkpt lat="49.42409" lon="0.98074">
        <ele>44.36</ele>
        <time>2018-05-13T16:08:06Z</time>
      </trkpt>
      <trkpt lat="49.42408" lon="0.98069">
        <ele>44.36</ele>
        <time>2018-05-13T16:08:07Z</time>
      </trkpt>
      <trkpt lat="49.42406" lon="0.98065">
        <ele>44.36</ele>
        <time>2018-05-13T16:08:08Z</time>
      </trkpt>
      <trkpt lat="49.42402" lon="0.98063">
        <ele>44.36</ele>
        <time>2018-05-13T16:08:09Z</time>
      </trkpt>
      <trkpt lat="49.42398" lon="0.98061">
        <ele>44.36</ele>
        <time>2018-05-13T16:08:10Z</time>
      </trkpt>
      <trkpt lat="49.42389" lon="0.98054">
        <ele>42.92</ele>
        <time>2018-05-13T16:08:13Z</time>
      </trkpt>
      <trkpt lat="49.42389" lon="0.98051">
        <ele>42.92</ele>
        <time>2018-05-13T16:08:14Z</time>
      </trkpt>
      <trkpt lat="49.42389" lon="0.98048">
        <ele>42.92</ele>
        <time>2018-05-13T16:08:15Z</time>
      </trkpt>
      <trkpt lat="49.42388" lon="0.98045">
        <ele>42.92</ele>
        <time>2018-05-13T16:08:16Z</time>
      </trkpt>
      <trkpt lat="49.42386" lon="0.98044">
        <ele>42.44</ele>
        <time>2018-05-13T16:08:17Z</time>
      </trkpt>
      <trkpt lat="49.42384" lon="0.98043">
        <ele>42.44</ele>
        <time>2018-05-13T16:08:18Z</time>
      </trkpt>
      <trkpt lat="49.42381" lon="0.98043">
        <ele>42.44</ele>
        <time>2018-05-13T16:08:19Z</time>
      </trkpt>
      <trkpt lat="49.42379" lon="0.98044">
        <ele>42.44</ele>
        <time>2018-05-13T16:08:20Z</time>
      </trkpt>
      <trkpt lat="49.42378" lon="0.98045">
        <ele>42.44</ele>
        <time>2018-05-13T16:08:21Z</time>
      </trkpt>
      <trkpt lat="49.42374" lon="0.98046">
        <ele>42.44</ele>
        <time>2018-05-13T16:08:23Z</time>
      </trkpt>
      <trkpt lat="49.42372" lon="0.98046">
        <ele>42.44</ele>
        <time>2018-05-13T16:08:24Z</time>
      </trkpt>
      <trkpt lat="49.42369" lon="0.98044">
        <ele>42.44</ele>
        <time>2018-05-13T16:08:25Z</time>
      </trkpt>
      <trkpt lat="49.42366" lon="0.98041">
        <ele>42.44</ele>
        <time>2018-05-13T16:08:26Z</time>
      </trkpt>
      <trkpt lat="49.42363" lon="0.98037">
        <ele>42.44</ele>
        <time>2018-05-13T16:08:27Z</time>
      </trkpt>
      <trkpt lat="49.42356" lon="0.98027">
        <ele>42.44</ele>
        <time>2018-05-13T16:08:29Z</time>
      </trkpt>
      <trkpt lat="49.42352" lon="0.98022">
        <ele>42.44</ele>
        <time>2018-05-13T16:08:30Z</time>
      </trkpt>
      <trkpt lat="49.42337" lon="0.98009">
        <ele>42.92</ele>
        <time>2018-05-13T16:08:33Z</time>
      </trkpt>
      <trkpt lat="49.42301" lon="0.97969">
        <ele>42.92</ele>
        <time>2018-05-13T16:08:40Z</time>
      </trkpt>
      <trkpt lat="49.42291" lon="0.97961">
        <ele>42.92</ele>
        <time>2018-05-13T16:08:42Z</time>
      </trkpt>
      <trkpt lat="49.42286" lon="0.97958">
        <ele>43.88</ele>
        <time>2018-05-13T16:08:43Z</time>
      </trkpt>
      <trkpt lat="49.42281" lon="0.97955">
        <ele>43.88</ele>
        <time>2018-05-13T16:08:44Z</time>
      </trkpt>
      <trkpt lat="49.4227" lon="0.97952">
        <ele>44.84</ele>
        <time>2018-05-13T16:08:46Z</time>
      </trkpt>
      <trkpt lat="49.42264" lon="0.97952">
        <ele>45.32</ele>
        <time>2018-05-13T16:08:47Z</time>
      </trkpt>
      <trkpt lat="49.42259" lon="0.97949">
        <ele>45.8</ele>
        <time>2018-05-13T16:08:48Z</time>
      </trkpt>
      <trkpt lat="49.42257" lon="0.97945">
        <ele>45.8</ele>
        <time>2018-05-13T16:08:49Z</time>
      </trkpt>
      <trkpt lat="49.42254" lon="0.9794">
        <ele>45.8</ele>
        <time>2018-05-13T16:08:50Z</time>
      </trkpt>
      <trkpt lat="49.42251" lon="0.97934">
        <ele>45.8</ele>
        <time>2018-05-13T16:08:51Z</time>
      </trkpt>
      <trkpt lat="49.42248" lon="0.97929">
        <ele>45.8</ele>
        <time>2018-05-13T16:08:52Z</time>
      </trkpt>
      <trkpt lat="49.42246" lon="0.97923">
        <ele>45.8</ele>
        <time>2018-05-13T16:08:53Z</time>
      </trkpt>
      <trkpt lat="49.4223" lon="0.97894">
        <ele>45.8</ele>
        <time>2018-05-13T16:08:58Z</time>
      </trkpt>
      <trkpt lat="49.42226" lon="0.9789">
        <ele>46.28</ele>
        <time>2018-05-13T16:08:59Z</time>
      </trkpt>
      <trkpt lat="49.42222" lon="0.97886">
        <ele>46.28</ele>
        <time>2018-05-13T16:09:00Z</time>
      </trkpt>
      <trkpt lat="49.42218" lon="0.97882">
        <ele>46.76</ele>
        <time>2018-05-13T16:09:01Z</time>
      </trkpt>
      <trkpt lat="49.42214" lon="0.97879">
        <ele>46.76</ele>
        <time>2018-05-13T16:09:02Z</time>
      </trkpt>
      <trkpt lat="49.42211" lon="0.97876">
        <ele>46.76</ele>
        <time>2018-05-13T16:09:03Z</time>
      </trkpt>
      <trkpt lat="49.42207" lon="0.97872">
        <ele>47.24</ele>
        <time>2018-05-13T16:09:04Z</time>
      </trkpt>
      <trkpt lat="49.42195" lon="0.97859">
        <ele>47.24</ele>
        <time>2018-05-13T16:09:07Z</time>
      </trkpt>
      <trkpt lat="49.42181" lon="0.9784">
        <ele>47.24</ele>
        <time>2018-05-13T16:09:11Z</time>
      </trkpt>
      <trkpt lat="49.42173" lon="0.97831">
        <ele>47.24</ele>
        <time>2018-05-13T16:09:13Z</time>
      </trkpt>
      <trkpt lat="49.42169" lon="0.97826">
        <ele>47.24</ele>
        <time>2018-05-13T16:09:14Z</time>
      </trkpt>
      <trkpt lat="49.42165" lon="0.97822">
        <ele>47.24</ele>
        <time>2018-05-13T16:09:15Z</time>
      </trkpt>
      <trkpt lat="49.42161" lon="0.97816">
        <ele>47.24</ele>
        <time>2018-05-13T16:09:16Z</time>
      </trkpt>
      <trkpt lat="49.42157" lon="0.9781">
        <ele>47.24</ele>
        <time>2018-05-13T16:09:17Z</time>
      </trkpt>
      <trkpt lat="49.42153" lon="0.97803">
        <ele>47.24</ele>
        <time>2018-05-13T16:09:18Z</time>
      </trkpt>
      <trkpt lat="49.42134" lon="0.97778">
        <ele>45.8</ele>
        <time>2018-05-13T16:09:22Z</time>
      </trkpt>
      <trkpt lat="49.4213" lon="0.97771">
        <ele>45.32</ele>
        <time>2018-05-13T16:09:23Z</time>
      </trkpt>
      <trkpt lat="49.42125" lon="0.97766">
        <ele>45.32</ele>
        <time>2018-05-13T16:09:24Z</time>
      </trkpt>
      <trkpt lat="49.42098" lon="0.97732">
        <ele>46.28</ele>
        <time>2018-05-13T16:09:31Z</time>
      </trkpt>
      <trkpt lat="49.42094" lon="0.97726">
        <ele>46.28</ele>
        <time>2018-05-13T16:09:32Z</time>
      </trkpt>
      <trkpt lat="49.42079" lon="0.97694">
        <ele>45.32</ele>
        <time>2018-05-13T16:09:36Z</time>
      </trkpt>
      <trkpt lat="49.42075" lon="0.97687">
        <ele>45.32</ele>
        <time>2018-05-13T16:09:37Z</time>
      </trkpt>
      <trkpt lat="49.42072" lon="0.9768">
        <ele>44.84</ele>
        <time>2018-05-13T16:09:38Z</time>
      </trkpt>
      <trkpt lat="49.42068" lon="0.97672">
        <ele>45.32</ele>
        <time>2018-05-13T16:09:39Z</time>
      </trkpt>
      <trkpt lat="49.42065" lon="0.97666">
        <ele>45.32</ele>
        <time>2018-05-13T16:09:40Z</time>
      </trkpt>
      <trkpt lat="49.42062" lon="0.97659">
        <ele>45.32</ele>
        <time>2018-05-13T16:09:41Z</time>
      </trkpt>
      <trkpt lat="49.4206" lon="0.97652">
        <ele>45.32</ele>
        <time>2018-05-13T16:09:42Z</time>
      </trkpt>
      <trkpt lat="49.42047" lon="0.97589">
        <ele>45.32</ele>
        <time>2018-05-13T16:09:52Z</time>
      </trkpt>
      <trkpt lat="49.42047" lon="0.97582">
        <ele>45.32</ele>
        <time>2018-05-13T16:09:53Z</time>
      </trkpt>
      <trkpt lat="49.42046" lon="0.97552">
        <ele>43.88</ele>
        <time>2018-05-13T16:09:57Z</time>
      </trkpt>
      <trkpt lat="49.42044" lon="0.97544">
        <ele>43.88</ele>
        <time>2018-05-13T16:09:58Z</time>
      </trkpt>
      <trkpt lat="49.42042" lon="0.97536">
        <ele>43.4</ele>
        <time>2018-05-13T16:09:59Z</time>
      </trkpt>
      <trkpt lat="49.42039" lon="0.97529">
        <ele>43.4</ele>
        <time>2018-05-13T16:10:00Z</time>
      </trkpt>
      <trkpt lat="49.42036" lon="0.97522">
        <ele>43.4</ele>
        <time>2018-05-13T16:10:01Z</time>
      </trkpt>
      <trkpt lat="49.42033" lon="0.97515">
        <ele>43.4</ele>
        <time>2018-05-13T16:10:02Z</time>
      </trkpt>
      <trkpt lat="49.42031" lon="0.97507">
        <ele>43.4</ele>
        <time>2018-05-13T16:10:03Z</time>
      </trkpt>
      <trkpt lat="49.42029" lon="0.97497">
        <ele>42.44</ele>
        <time>2018-05-13T16:10:04Z</time>
      </trkpt>
      <trkpt lat="49.42027" lon="0.97487">
        <ele>41.95</ele>
        <time>2018-05-13T16:10:05Z</time>
      </trkpt>
      <trkpt lat="49.42025" lon="0.97478">
        <ele>41.95</ele>
        <time>2018-05-13T16:10:06Z</time>
      </trkpt>
      <trkpt lat="49.42023" lon="0.97469">
        <ele>41.95</ele>
        <time>2018-05-13T16:10:07Z</time>
      </trkpt>
      <trkpt lat="49.4202" lon="0.9746">
        <ele>41.95</ele>
        <time>2018-05-13T16:10:08Z</time>
      </trkpt>
      <trkpt lat="49.42015" lon="0.97442">
        <ele>41.47</ele>
        <time>2018-05-13T16:10:10Z</time>
      </trkpt>
      <trkpt lat="49.42014" lon="0.97432">
        <ele>41.47</ele>
        <time>2018-05-13T16:10:11Z</time>
      </trkpt>
      <trkpt lat="49.42011" lon="0.97414">
        <ele>40.99</ele>
        <time>2018-05-13T16:10:13Z</time>
      </trkpt>
      <trkpt lat="49.42008" lon="0.97406">
        <ele>40.99</ele>
        <time>2018-05-13T16:10:14Z</time>
      </trkpt>
      <trkpt lat="49.42005" lon="0.97399">
        <ele>40.99</ele>
        <time>2018-05-13T16:10:15Z</time>
      </trkpt>
      <trkpt lat="49.41993" lon="0.97381">
        <ele>40.99</ele>
        <time>2018-05-13T16:10:18Z</time>
      </trkpt>
      <trkpt lat="49.41989" lon="0.97375">
        <ele>40.99</ele>
        <time>2018-05-13T16:10:19Z</time>
      </trkpt>
      <trkpt lat="49.41986" lon="0.9737">
        <ele>40.99</ele>
        <time>2018-05-13T16:10:20Z</time>
      </trkpt>
      <trkpt lat="49.41983" lon="0.97363">
        <ele>40.99</ele>
        <time>2018-05-13T16:10:21Z</time>
      </trkpt>
      <trkpt lat="49.41981" lon="0.97356">
        <ele>40.99</ele>
        <time>2018-05-13T16:10:22Z</time>
      </trkpt>
      <trkpt lat="49.4198" lon="0.97348">
        <ele>40.99</ele>
        <time>2018-05-13T16:10:23Z</time>
      </trkpt>
      <trkpt lat="49.4198" lon="0.9734">
        <ele>40.99</ele>
        <time>2018-05-13T16:10:24Z</time>
      </trkpt>
      <trkpt lat="49.41979" lon="0.97332">
        <ele>40.99</ele>
        <time>2018-05-13T16:10:25Z</time>
      </trkpt>
      <trkpt lat="49.41976" lon="0.97317">
        <ele>40.51</ele>
        <time>2018-05-13T16:10:27Z</time>
      </trkpt>
      <trkpt lat="49.41973" lon="0.97311">
        <ele>40.51</ele>
        <time>2018-05-13T16:10:28Z</time>
      </trkpt>
      <trkpt lat="49.4197" lon="0.97306">
        <ele>40.51</ele>
        <time>2018-05-13T16:10:29Z</time>
      </trkpt>
      <trkpt lat="49.41967" lon="0.97304">
        <ele>40.51</ele>
        <time>2018-05-13T16:10:30Z</time>
      </trkpt>
      <trkpt lat="49.41963" lon="0.97304">
        <ele>40.51</ele>
        <time>2018-05-13T16:10:31Z</time>
      </trkpt>
      <trkpt lat="49.4196" lon="0.97305">
        <ele>40.51</ele>
        <time>2018-05-13T16:10:32Z</time>
      </trkpt>
      <trkpt lat="49.4193" lon="0.97305">
        <ele>43.4</ele>
        <time>2018-05-13T16:10:43Z</time>
      </trkpt>
      <trkpt lat="49.41894" lon="0.97305">
        <ele>45.32</ele>
        <time>2018-05-13T16:10:55Z</time>
      </trkpt>
      <trkpt lat="49.41853" lon="0.97299">
        <ele>46.28</ele>
        <time>2018-05-13T16:11:08Z</time>
      </trkpt>
      <trkpt lat="49.41818" lon="0.97298">
        <ele>48.2</ele>
        <time>2018-05-13T16:11:20Z</time>
      </trkpt>
      <trkpt lat="49.41795" lon="0.97295">
        <ele>50.13</ele>
        <time>2018-05-13T16:11:31Z</time>
      </trkpt>
      <trkpt lat="49.41791" lon="0.97296">
        <ele>50.61</ele>
        <time>2018-05-13T16:11:33Z</time>
      </trkpt>
      <trkpt lat="49.41789" lon="0.97296">
        <ele>50.61</ele>
        <time>2018-05-13T16:11:34Z</time>
      </trkpt>
      <trkpt lat="49.41771" lon="0.97295">
        <ele>52.53</ele>
        <time>2018-05-13T16:11:44Z</time>
      </trkpt>
      <trkpt lat="49.41749" lon="0.97293">
        <ele>54.93</ele>
        <time>2018-05-13T16:11:54Z</time>
      </trkpt>
      <trkpt lat="49.41747" lon="0.97292">
        <ele>54.93</ele>
        <time>2018-05-13T16:11:55Z</time>
      </trkpt>
      <trkpt lat="49.41745" lon="0.97293">
        <ele>55.41</ele>
        <time>2018-05-13T16:11:56Z</time>
      </trkpt>
      <trkpt lat="49.41743" lon="0.97293">
        <ele>55.41</ele>
        <time>2018-05-13T16:11:57Z</time>
      </trkpt>
      <trkpt lat="49.41741" lon="0.97294">
        <ele>55.89</ele>
        <time>2018-05-13T16:11:58Z</time>
      </trkpt>
      <trkpt lat="49.41739" lon="0.97294">
        <ele>55.89</ele>
        <time>2018-05-13T16:11:59Z</time>
      </trkpt>
      <trkpt lat="49.41735" lon="0.97296">
        <ele>56.37</ele>
        <time>2018-05-13T16:12:01Z</time>
      </trkpt>
      <trkpt lat="49.41733" lon="0.97297">
        <ele>56.86</ele>
        <time>2018-05-13T16:12:02Z</time>
      </trkpt>
      <trkpt lat="49.41732" lon="0.97298">
        <ele>56.86</ele>
        <time>2018-05-13T16:12:03Z</time>
      </trkpt>
      <trkpt lat="49.41725" lon="0.97302">
        <ele>57.82</ele>
        <time>2018-05-13T16:12:07Z</time>
      </trkpt>
      <trkpt lat="49.41723" lon="0.97301">
        <ele>58.3</ele>
        <time>2018-05-13T16:12:10Z</time>
      </trkpt>
      <trkpt lat="49.4172" lon="0.97295">
        <ele>58.78</ele>
        <time>2018-05-13T16:12:14Z</time>
      </trkpt>
      <trkpt lat="49.41719" lon="0.97293">
        <ele>59.26</ele>
        <time>2018-05-13T16:12:15Z</time>
      </trkpt>
      <trkpt lat="49.41718" lon="0.97291">
        <ele>59.26</ele>
        <time>2018-05-13T16:12:16Z</time>
      </trkpt>
      <trkpt lat="49.41717" lon="0.9729">
        <ele>59.26</ele>
        <time>2018-05-13T16:12:17Z</time>
      </trkpt>
      <trkpt lat="49.41715" lon="0.97288">
        <ele>59.74</ele>
        <time>2018-05-13T16:12:18Z</time>
      </trkpt>
      <trkpt lat="49.41714" lon="0.97286">
        <ele>59.74</ele>
        <time>2018-05-13T16:12:19Z</time>
      </trkpt>
      <trkpt lat="49.41713" lon="0.97284">
        <ele>59.74</ele>
        <time>2018-05-13T16:12:20Z</time>
      </trkpt>
      <trkpt lat="49.41708" lon="0.97273">
        <ele>62.14</ele>
        <time>2018-05-13T16:12:26Z</time>
      </trkpt>
      <trkpt lat="49.41707" lon="0.97271">
        <ele>62.14</ele>
        <time>2018-05-13T16:12:27Z</time>
      </trkpt>
      <trkpt lat="49.41707" lon="0.97269">
        <ele>62.62</ele>
        <time>2018-05-13T16:12:28Z</time>
      </trkpt>
      <trkpt lat="49.41697" lon="0.97245">
        <ele>65.03</ele>
        <time>2018-05-13T16:12:39Z</time>
      </trkpt>
      <trkpt lat="49.41695" lon="0.97244">
        <ele>65.51</ele>
        <time>2018-05-13T16:12:40Z</time>
      </trkpt>
      <trkpt lat="49.41693" lon="0.97243">
        <ele>65.51</ele>
        <time>2018-05-13T16:12:41Z</time>
      </trkpt>
      <trkpt lat="49.41692" lon="0.97242">
        <ele>65.99</ele>
        <time>2018-05-13T16:12:42Z</time>
      </trkpt>
      <trkpt lat="49.4169" lon="0.97241">
        <ele>65.99</ele>
        <time>2018-05-13T16:12:43Z</time>
      </trkpt>
      <trkpt lat="49.41678" lon="0.97231">
        <ele>68.87</ele>
        <time>2018-05-13T16:12:53Z</time>
      </trkpt>
      <trkpt lat="49.41663" lon="0.97221">
        <ele>72.72</ele>
        <time>2018-05-13T16:13:04Z</time>
      </trkpt>
      <trkpt lat="49.41648" lon="0.97212">
        <ele>75.6</ele>
        <time>2018-05-13T16:13:14Z</time>
      </trkpt>
      <trkpt lat="49.41631" lon="0.97198">
        <ele>78.97</ele>
        <time>2018-05-13T16:13:25Z</time>
      </trkpt>
      <trkpt lat="49.41615" lon="0.97196">
        <ele>82.33</ele>
        <time>2018-05-13T16:13:35Z</time>
      </trkpt>
      <trkpt lat="49.416" lon="0.972">
        <ele>85.21</ele>
        <time>2018-05-13T16:13:45Z</time>
      </trkpt>
      <trkpt lat="49.41583" lon="0.97194">
        <ele>88.1</ele>
        <time>2018-05-13T16:13:57Z</time>
      </trkpt>
      <trkpt lat="49.41579" lon="0.97192">
        <ele>89.06</ele>
        <time>2018-05-13T16:14:00Z</time>
      </trkpt>
      <trkpt lat="49.41577" lon="0.97191">
        <ele>89.06</ele>
        <time>2018-05-13T16:14:01Z</time>
      </trkpt>
      <trkpt lat="49.41576" lon="0.97189">
        <ele>89.06</ele>
        <time>2018-05-13T16:14:02Z</time>
      </trkpt>
      <trkpt lat="49.41574" lon="0.97188">
        <ele>89.54</ele>
        <time>2018-05-13T16:14:03Z</time>
      </trkpt>
      <trkpt lat="49.41573" lon="0.97187">
        <ele>89.54</ele>
        <time>2018-05-13T16:14:04Z</time>
      </trkpt>
      <trkpt lat="49.41571" lon="0.97186">
        <ele>89.54</ele>
        <time>2018-05-13T16:14:05Z</time>
      </trkpt>
      <trkpt lat="49.41555" lon="0.97168">
        <ele>91.46</ele>
        <time>2018-05-13T16:14:16Z</time>
      </trkpt>
      <trkpt lat="49.4155" lon="0.9714">
        <ele>92.42</ele>
        <time>2018-05-13T16:14:25Z</time>
      </trkpt>
      <trkpt lat="49.41558" lon="0.97134">
        <ele>92.42</ele>
        <time>2018-05-13T16:14:28Z</time>
      </trkpt>
      <trkpt lat="49.4156" lon="0.9713">
        <ele>92.42</ele>
        <time>2018-05-13T16:14:29Z</time>
      </trkpt>
      <trkpt lat="49.41565" lon="0.97116">
        <ele>92.42</ele>
        <time>2018-05-13T16:14:33Z</time>
      </trkpt>
      <trkpt lat="49.41563" lon="0.97114">
        <ele>92.42</ele>
        <time>2018-05-13T16:14:34Z</time>
      </trkpt>
      <trkpt lat="49.41554" lon="0.97108">
        <ele>92.9</ele>
        <time>2018-05-13T16:14:37Z</time>
      </trkpt>
      <trkpt lat="49.41553" lon="0.97104">
        <ele>92.9</ele>
        <time>2018-05-13T16:14:38Z</time>
      </trkpt>
      <trkpt lat="49.41555" lon="0.97088">
        <ele>93.39</ele>
        <time>2018-05-13T16:14:42Z</time>
      </trkpt>
      <trkpt lat="49.41557" lon="0.97082">
        <ele>91.94</ele>
        <time>2018-05-13T16:14:43Z</time>
      </trkpt>
      <trkpt lat="49.41559" lon="0.97074">
        <ele>90.5</ele>
        <time>2018-05-13T16:14:44Z</time>
      </trkpt>
      <trkpt lat="49.41559" lon="0.97064">
        <ele>90.02</ele>
        <time>2018-05-13T16:14:45Z</time>
      </trkpt>
      <trkpt lat="49.41558" lon="0.97032">
        <ele>89.54</ele>
        <time>2018-05-13T16:14:48Z</time>
      </trkpt>
      <trkpt lat="49.41557" lon="0.97023">
        <ele>89.54</ele>
        <time>2018-05-13T16:14:49Z</time>
      </trkpt>
      <trkpt lat="49.41552" lon="0.97006">
        <ele>89.54</ele>
        <time>2018-05-13T16:14:51Z</time>
      </trkpt>
      <trkpt lat="49.41547" lon="0.96992">
        <ele>89.54</ele>
        <time>2018-05-13T16:14:53Z</time>
      </trkpt>
      <trkpt lat="49.41542" lon="0.9698">
        <ele>90.5</ele>
        <time>2018-05-13T16:14:55Z</time>
      </trkpt>
      <trkpt lat="49.41539" lon="0.96975">
        <ele>90.5</ele>
        <time>2018-05-13T16:14:56Z</time>
      </trkpt>
      <trkpt lat="49.41537" lon="0.9697">
        <ele>91.46</ele>
        <time>2018-05-13T16:14:57Z</time>
      </trkpt>
      <trkpt lat="49.41529" lon="0.96961">
        <ele>91.46</ele>
        <time>2018-05-13T16:14:59Z</time>
      </trkpt>
      <trkpt lat="49.41526" lon="0.96956">
        <ele>91.94</ele>
        <time>2018-05-13T16:15:00Z</time>
      </trkpt>
      <trkpt lat="49.41524" lon="0.96951">
        <ele>91.94</ele>
        <time>2018-05-13T16:15:01Z</time>
      </trkpt>
      <trkpt lat="49.41521" lon="0.9694">
        <ele>91.94</ele>
        <time>2018-05-13T16:15:03Z</time>
      </trkpt>
      <trkpt lat="49.41514" lon="0.96915">
        <ele>90.02</ele>
        <time>2018-05-13T16:15:06Z</time>
      </trkpt>
      <trkpt lat="49.41501" lon="0.96887">
        <ele>90.02</ele>
        <time>2018-05-13T16:15:10Z</time>
      </trkpt>
      <trkpt lat="49.41497" lon="0.96881">
        <ele>90.02</ele>
        <time>2018-05-13T16:15:11Z</time>
      </trkpt>
      <trkpt lat="49.41493" lon="0.96876">
        <ele>90.02</ele>
        <time>2018-05-13T16:15:12Z</time>
      </trkpt>
      <trkpt lat="49.41486" lon="0.96868">
        <ele>90.98</ele>
        <time>2018-05-13T16:15:14Z</time>
      </trkpt>
      <trkpt lat="49.41482" lon="0.96863">
        <ele>92.42</ele>
        <time>2018-05-13T16:15:15Z</time>
      </trkpt>
      <trkpt lat="49.41478" lon="0.96859">
        <ele>92.9</ele>
        <time>2018-05-13T16:15:16Z</time>
      </trkpt>
      <trkpt lat="49.41477" lon="0.96855">
        <ele>92.9</ele>
        <time>2018-05-13T16:15:17Z</time>
      </trkpt>
      <trkpt lat="49.41476" lon="0.9685">
        <ele>92.9</ele>
        <time>2018-05-13T16:15:18Z</time>
      </trkpt>
      <trkpt lat="49.41475" lon="0.96845">
        <ele>92.9</ele>
        <time>2018-05-13T16:15:19Z</time>
      </trkpt>
      <trkpt lat="49.41475" lon="0.9684">
        <ele>92.9</ele>
        <time>2018-05-13T16:15:20Z</time>
      </trkpt>
      <trkpt lat="49.41475" lon="0.96834">
        <ele>92.9</ele>
        <time>2018-05-13T16:15:21Z</time>
      </trkpt>
      <trkpt lat="49.41475" lon="0.96828">
        <ele>92.9</ele>
        <time>2018-05-13T16:15:22Z</time>
      </trkpt>
      <trkpt lat="49.41475" lon="0.96815">
        <ele>92.9</ele>
        <time>2018-05-13T16:15:24Z</time>
      </trkpt>
      <trkpt lat="49.41475" lon="0.96808">
        <ele>92.9</ele>
        <time>2018-05-13T16:15:25Z</time>
      </trkpt>
      <trkpt lat="49.41474" lon="0.968">
        <ele>92.9</ele>
        <time>2018-05-13T16:15:26Z</time>
      </trkpt>
      <trkpt lat="49.41474" lon="0.96792">
        <ele>92.9</ele>
        <time>2018-05-13T16:15:27Z</time>
      </trkpt>
      <trkpt lat="49.41474" lon="0.96785">
        <ele>92.9</ele>
        <time>2018-05-13T16:15:28Z</time>
      </trkpt>
      <trkpt lat="49.41474" lon="0.96777">
        <ele>91.46</ele>
        <time>2018-05-13T16:15:29Z</time>
      </trkpt>
      <trkpt lat="49.41473" lon="0.96768">
        <ele>91.46</ele>
        <time>2018-05-13T16:15:30Z</time>
      </trkpt>
      <trkpt lat="49.41471" lon="0.9676">
        <ele>91.46</ele>
        <time>2018-05-13T16:15:31Z</time>
      </trkpt>
      <trkpt lat="49.41468" lon="0.96753">
        <ele>91.46</ele>
        <time>2018-05-13T16:15:32Z</time>
      </trkpt>
      <trkpt lat="49.41465" lon="0.96747">
        <ele>91.46</ele>
        <time>2018-05-13T16:15:33Z</time>
      </trkpt>
      <trkpt lat="49.41461" lon="0.96741">
        <ele>91.46</ele>
        <time>2018-05-13T16:15:34Z</time>
      </trkpt>
      <trkpt lat="49.41459" lon="0.96735">
        <ele>92.9</ele>
        <time>2018-05-13T16:15:35Z</time>
      </trkpt>
      <trkpt lat="49.41456" lon="0.96729">
        <ele>93.39</ele>
        <time>2018-05-13T16:15:36Z</time>
      </trkpt>
      <trkpt lat="49.41446" lon="0.96701">
        <ele>94.35</ele>
        <time>2018-05-13T16:15:41Z</time>
      </trkpt>
      <trkpt lat="49.41444" lon="0.96695">
        <ele>94.35</ele>
        <time>2018-05-13T16:15:42Z</time>
      </trkpt>
      <trkpt lat="49.41442" lon="0.96689">
        <ele>94.35</ele>
        <time>2018-05-13T16:15:43Z</time>
      </trkpt>
      <trkpt lat="49.41431" lon="0.96625">
        <ele>94.35</ele>
        <time>2018-05-13T16:15:53Z</time>
      </trkpt>
      <trkpt lat="49.41429" lon="0.96619">
        <ele>94.35</ele>
        <time>2018-05-13T16:15:54Z</time>
      </trkpt>
      <trkpt lat="49.41426" lon="0.96614">
        <ele>94.35</ele>
        <time>2018-05-13T16:15:55Z</time>
      </trkpt>
      <trkpt lat="49.41419" lon="0.96604">
        <ele>94.83</ele>
        <time>2018-05-13T16:15:57Z</time>
      </trkpt>
      <trkpt lat="49.41417" lon="0.96599">
        <ele>95.31</ele>
        <time>2018-05-13T16:15:58Z</time>
      </trkpt>
      <trkpt lat="49.41416" lon="0.96593">
        <ele>95.31</ele>
        <time>2018-05-13T16:15:59Z</time>
      </trkpt>
      <trkpt lat="49.41414" lon="0.96587">
        <ele>95.31</ele>
        <time>2018-05-13T16:16:00Z</time>
      </trkpt>
      <trkpt lat="49.41413" lon="0.96581">
        <ele>95.31</ele>
        <time>2018-05-13T16:16:01Z</time>
      </trkpt>
      <trkpt lat="49.41411" lon="0.96575">
        <ele>95.31</ele>
        <time>2018-05-13T16:16:02Z</time>
      </trkpt>
      <trkpt lat="49.41403" lon="0.96545">
        <ele>95.79</ele>
        <time>2018-05-13T16:16:07Z</time>
      </trkpt>
      <trkpt lat="49.414" lon="0.96541">
        <ele>96.27</ele>
        <time>2018-05-13T16:16:08Z</time>
      </trkpt>
      <trkpt lat="49.41398" lon="0.96538">
        <ele>96.27</ele>
        <time>2018-05-13T16:16:09Z</time>
      </trkpt>
      <trkpt lat="49.41395" lon="0.96536">
        <ele>96.75</ele>
        <time>2018-05-13T16:16:10Z</time>
      </trkpt>
      <trkpt lat="49.41392" lon="0.96534">
        <ele>97.23</ele>
        <time>2018-05-13T16:16:11Z</time>
      </trkpt>
      <trkpt lat="49.41389" lon="0.96531">
        <ele>97.23</ele>
        <time>2018-05-13T16:16:12Z</time>
      </trkpt>
      <trkpt lat="49.41387" lon="0.96527">
        <ele>97.71</ele>
        <time>2018-05-13T16:16:13Z</time>
      </trkpt>
      <trkpt lat="49.41385" lon="0.96522">
        <ele>97.71</ele>
        <time>2018-05-13T16:16:14Z</time>
      </trkpt>
      <trkpt lat="49.41384" lon="0.96518">
        <ele>98.19</ele>
        <time>2018-05-13T16:16:15Z</time>
      </trkpt>
      <trkpt lat="49.41383" lon="0.96513">
        <ele>98.19</ele>
        <time>2018-05-13T16:16:16Z</time>
      </trkpt>
      <trkpt lat="49.41382" lon="0.96508">
        <ele>98.19</ele>
        <time>2018-05-13T16:16:17Z</time>
      </trkpt>
      <trkpt lat="49.41384" lon="0.96448">
        <ele>98.19</ele>
        <time>2018-05-13T16:16:27Z</time>
      </trkpt>
      <trkpt lat="49.41385" lon="0.96441">
        <ele>98.19</ele>
        <time>2018-05-13T16:16:28Z</time>
      </trkpt>
      <trkpt lat="49.41386" lon="0.96434">
        <ele>96.75</ele>
        <time>2018-05-13T16:16:29Z</time>
      </trkpt>
      <trkpt lat="49.41386" lon="0.96427">
        <ele>96.75</ele>
        <time>2018-05-13T16:16:30Z</time>
      </trkpt>
      <trkpt lat="49.41386" lon="0.9642">
        <ele>96.27</ele>
        <time>2018-05-13T16:16:31Z</time>
      </trkpt>
      <trkpt lat="49.41384" lon="0.96412">
        <ele>96.27</ele>
        <time>2018-05-13T16:16:32Z</time>
      </trkpt>
      <trkpt lat="49.41383" lon="0.96405">
        <ele>95.31</ele>
        <time>2018-05-13T16:16:33Z</time>
      </trkpt>
      <trkpt lat="49.41382" lon="0.96396">
        <ele>95.31</ele>
        <time>2018-05-13T16:16:34Z</time>
      </trkpt>
      <trkpt lat="49.41382" lon="0.96378">
        <ele>94.35</ele>
        <time>2018-05-13T16:16:36Z</time>
      </trkpt>
      <trkpt lat="49.41382" lon="0.96369">
        <ele>93.87</ele>
        <time>2018-05-13T16:16:37Z</time>
      </trkpt>
      <trkpt lat="49.41382" lon="0.96339">
        <ele>92.9</ele>
        <time>2018-05-13T16:16:40Z</time>
      </trkpt>
      <trkpt lat="49.41381" lon="0.96329">
        <ele>92.9</ele>
        <time>2018-05-13T16:16:41Z</time>
      </trkpt>
      <trkpt lat="49.41378" lon="0.9632">
        <ele>92.42</ele>
        <time>2018-05-13T16:16:42Z</time>
      </trkpt>
      <trkpt lat="49.41374" lon="0.96312">
        <ele>92.42</ele>
        <time>2018-05-13T16:16:43Z</time>
      </trkpt>
      <trkpt lat="49.41369" lon="0.96307">
        <ele>92.42</ele>
        <time>2018-05-13T16:16:44Z</time>
      </trkpt>
      <trkpt lat="49.41364" lon="0.96304">
        <ele>93.39</ele>
        <time>2018-05-13T16:16:45Z</time>
      </trkpt>
      <trkpt lat="49.4136" lon="0.96303">
        <ele>94.35</ele>
        <time>2018-05-13T16:16:46Z</time>
      </trkpt>
      <trkpt lat="49.41357" lon="0.96304">
        <ele>95.31</ele>
        <time>2018-05-13T16:16:47Z</time>
      </trkpt>
      <trkpt lat="49.41354" lon="0.96306">
        <ele>95.31</ele>
        <time>2018-05-13T16:16:48Z</time>
      </trkpt>
      <trkpt lat="49.41351" lon="0.96308">
        <ele>95.79</ele>
        <time>2018-05-13T16:16:49Z</time>
      </trkpt>
      <trkpt lat="49.41348" lon="0.96309">
        <ele>97.23</ele>
        <time>2018-05-13T16:16:50Z</time>
      </trkpt>
      <trkpt lat="49.41346" lon="0.9631">
        <ele>97.71</ele>
        <time>2018-05-13T16:16:51Z</time>
      </trkpt>
      <trkpt lat="49.41343" lon="0.96311">
        <ele>98.19</ele>
        <time>2018-05-13T16:16:52Z</time>
      </trkpt>
      <trkpt lat="49.41341" lon="0.96311">
        <ele>98.19</ele>
        <time>2018-05-13T16:16:53Z</time>
      </trkpt>
      <trkpt lat="49.41315" lon="0.96315">
        <ele>101.56</ele>
        <time>2018-05-13T16:17:04Z</time>
      </trkpt>
      <trkpt lat="49.41286" lon="0.96337">
        <ele>104.92</ele>
        <time>2018-05-13T16:17:18Z</time>
      </trkpt>
      <trkpt lat="49.4126" lon="0.96352">
        <ele>107.81</ele>
        <time>2018-05-13T16:17:30Z</time>
      </trkpt>
      <trkpt lat="49.41242" lon="0.96383">
        <ele>109.73</ele>
        <time>2018-05-13T16:17:41Z</time>
      </trkpt>
      <trkpt lat="49.41225" lon="0.96418">
        <ele>111.65</ele>
        <time>2018-05-13T16:17:54Z</time>
      </trkpt>
      <trkpt lat="49.41224" lon="0.9642">
        <ele>111.65</ele>
        <time>2018-05-13T16:17:55Z</time>
      </trkpt>
      <trkpt lat="49.41223" lon="0.96421">
        <ele>111.65</ele>
        <time>2018-05-13T16:17:56Z</time>
      </trkpt>
      <trkpt lat="49.41222" lon="0.96423">
        <ele>112.13</ele>
        <time>2018-05-13T16:17:57Z</time>
      </trkpt>
      <trkpt lat="49.41221" lon="0.96425">
        <ele>112.13</ele>
        <time>2018-05-13T16:17:58Z</time>
      </trkpt>
      <trkpt lat="49.41219" lon="0.96427">
        <ele>112.13</ele>
        <time>2018-05-13T16:17:59Z</time>
      </trkpt>
      <trkpt lat="49.41218" lon="0.9643">
        <ele>112.13</ele>
        <time>2018-05-13T16:18:00Z</time>
      </trkpt>
      <trkpt lat="49.41216" lon="0.96433">
        <ele>112.61</ele>
        <time>2018-05-13T16:18:01Z</time>
      </trkpt>
      <trkpt lat="49.41214" lon="0.96435">
        <ele>112.61</ele>
        <time>2018-05-13T16:18:02Z</time>
      </trkpt>
      <trkpt lat="49.41213" lon="0.96438">
        <ele>113.09</ele>
        <time>2018-05-13T16:18:03Z</time>
      </trkpt>
      <trkpt lat="49.41186" lon="0.96483">
        <ele>115.5</ele>
        <time>2018-05-13T16:18:18Z</time>
      </trkpt>
      <trkpt lat="49.4116" lon="0.96523">
        <ele>117.9</ele>
        <time>2018-05-13T16:18:32Z</time>
      </trkpt>
      <trkpt lat="49.41127" lon="0.96573">
        <ele>120.3</ele>
        <time>2018-05-13T16:18:49Z</time>
      </trkpt>
      <trkpt lat="49.41097" lon="0.96626">
        <ele>121.74</ele>
        <time>2018-05-13T16:19:03Z</time>
      </trkpt>
      <trkpt lat="49.41084" lon="0.96648">
        <ele>121.74</ele>
        <time>2018-05-13T16:19:08Z</time>
      </trkpt>
      <trkpt lat="49.41074" lon="0.96659">
        <ele>122.22</ele>
        <time>2018-05-13T16:19:11Z</time>
      </trkpt>
      <trkpt lat="49.41071" lon="0.96662">
        <ele>122.22</ele>
        <time>2018-05-13T16:19:12Z</time>
      </trkpt>
      <trkpt lat="49.41068" lon="0.96665">
        <ele>122.22</ele>
        <time>2018-05-13T16:19:13Z</time>
      </trkpt>
      <trkpt lat="49.41065" lon="0.96668">
        <ele>122.71</ele>
        <time>2018-05-13T16:19:14Z</time>
      </trkpt>
      <trkpt lat="49.41061" lon="0.96671">
        <ele>122.71</ele>
        <time>2018-05-13T16:19:15Z</time>
      </trkpt>
      <trkpt lat="49.41013" lon="0.96718">
        <ele>122.71</ele>
        <time>2018-05-13T16:19:29Z</time>
      </trkpt>
      <trkpt lat="49.4099" lon="0.96739">
        <ele>123.67</ele>
        <time>2018-05-13T16:19:35Z</time>
      </trkpt>
      <trkpt lat="49.40986" lon="0.96742">
        <ele>123.67</ele>
        <time>2018-05-13T16:19:36Z</time>
      </trkpt>
      <trkpt lat="49.40977" lon="0.96746">
        <ele>123.67</ele>
        <time>2018-05-13T16:19:38Z</time>
      </trkpt>
      <trkpt lat="49.40973" lon="0.96749">
        <ele>123.67</ele>
        <time>2018-05-13T16:19:39Z</time>
      </trkpt>
      <trkpt lat="49.40969" lon="0.9675">
        <ele>123.19</ele>
        <time>2018-05-13T16:19:40Z</time>
      </trkpt>
      <trkpt lat="49.40964" lon="0.9675">
        <ele>123.19</ele>
        <time>2018-05-13T16:19:41Z</time>
      </trkpt>
      <trkpt lat="49.4096" lon="0.9675">
        <ele>123.19</ele>
        <time>2018-05-13T16:19:42Z</time>
      </trkpt>
      <trkpt lat="49.40955" lon="0.9675">
        <ele>123.19</ele>
        <time>2018-05-13T16:19:43Z</time>
      </trkpt>
      <trkpt lat="49.40951" lon="0.9675">
        <ele>123.19</ele>
        <time>2018-05-13T16:19:44Z</time>
      </trkpt>
      <trkpt lat="49.40946" lon="0.96749">
        <ele>123.19</ele>
        <time>2018-05-13T16:19:45Z</time>
      </trkpt>
      <trkpt lat="49.40918" lon="0.96735">
        <ele>123.19</ele>
        <time>2018-05-13T16:19:53Z</time>
      </trkpt>
      <trkpt lat="49.40915" lon="0.96735">
        <ele>123.19</ele>
        <time>2018-05-13T16:19:54Z</time>
      </trkpt>
      <trkpt lat="49.40895" lon="0.96748">
        <ele>123.19</ele>
        <time>2018-05-13T16:20:00Z</time>
      </trkpt>
      <trkpt lat="49.40863" lon="0.96745">
        <ele>122.22</ele>
        <time>2018-05-13T16:20:07Z</time>
      </trkpt>
      <trkpt lat="49.40859" lon="0.96743">
        <ele>121.26</ele>
        <time>2018-05-13T16:20:08Z</time>
      </trkpt>
      <trkpt lat="49.40855" lon="0.9674">
        <ele>121.74</ele>
        <time>2018-05-13T16:20:09Z</time>
      </trkpt>
      <trkpt lat="49.40842" lon="0.9673">
        <ele>121.26</ele>
        <time>2018-05-13T16:20:12Z</time>
      </trkpt>
      <trkpt lat="49.4083" lon="0.96718">
        <ele>120.3</ele>
        <time>2018-05-13T16:20:15Z</time>
      </trkpt>
      <trkpt lat="49.40824" lon="0.96717">
        <ele>120.3</ele>
        <time>2018-05-13T16:20:16Z</time>
      </trkpt>
      <trkpt lat="49.40779" lon="0.96711">
        <ele>117.42</ele>
        <time>2018-05-13T16:20:23Z</time>
      </trkpt>
      <trkpt lat="49.40765" lon="0.96709">
        <ele>116.46</ele>
        <time>2018-05-13T16:20:25Z</time>
      </trkpt>
      <trkpt lat="49.40757" lon="0.96707">
        <ele>115.5</ele>
        <time>2018-05-13T16:20:26Z</time>
      </trkpt>
      <trkpt lat="49.4075" lon="0.96704">
        <ele>115.01</ele>
        <time>2018-05-13T16:20:27Z</time>
      </trkpt>
      <trkpt lat="49.40728" lon="0.96691">
        <ele>112.13</ele>
        <time>2018-05-13T16:20:30Z</time>
      </trkpt>
      <trkpt lat="49.40722" lon="0.96686">
        <ele>111.17</ele>
        <time>2018-05-13T16:20:31Z</time>
      </trkpt>
      <trkpt lat="49.40701" lon="0.96668">
        <ele>108.29</ele>
        <time>2018-05-13T16:20:34Z</time>
      </trkpt>
      <trkpt lat="49.40694" lon="0.96665">
        <ele>107.81</ele>
        <time>2018-05-13T16:20:35Z</time>
      </trkpt>
      <trkpt lat="49.40688" lon="0.96661">
        <ele>107.32</ele>
        <time>2018-05-13T16:20:36Z</time>
      </trkpt>
      <trkpt lat="49.40684" lon="0.96657">
        <ele>107.32</ele>
        <time>2018-05-13T16:20:37Z</time>
      </trkpt>
      <trkpt lat="49.4068" lon="0.9665">
        <ele>107.32</ele>
        <time>2018-05-13T16:20:38Z</time>
      </trkpt>
      <trkpt lat="49.40676" lon="0.96645">
        <ele>107.32</ele>
        <time>2018-05-13T16:20:39Z</time>
      </trkpt>
      <trkpt lat="49.40673" lon="0.9664">
        <ele>107.32</ele>
        <time>2018-05-13T16:20:40Z</time>
      </trkpt>
      <trkpt lat="49.4067" lon="0.96637">
        <ele>107.32</ele>
        <time>2018-05-13T16:20:41Z</time>
      </trkpt>
      <trkpt lat="49.40666" lon="0.96631">
        <ele>108.77</ele>
        <time>2018-05-13T16:20:44Z</time>
      </trkpt>
      <trkpt lat="49.40654" lon="0.96622">
        <ele>112.13</ele>
        <time>2018-05-13T16:20:52Z</time>
      </trkpt>
      <trkpt lat="49.40622" lon="0.96612">
        <ele>114.53</ele>
        <time>2018-05-13T16:21:06Z</time>
      </trkpt>
      <trkpt lat="49.40585" lon="0.96607">
        <ele>117.42</ele>
        <time>2018-05-13T16:21:20Z</time>
      </trkpt>
      <trkpt lat="49.40558" lon="0.96603">
        <ele>118.86</ele>
        <time>2018-05-13T16:21:29Z</time>
      </trkpt>
      <trkpt lat="49.40522" lon="0.96562">
        <ele>119.82</ele>
        <time>2018-05-13T16:21:42Z</time>
      </trkpt>
      <trkpt lat="49.40478" lon="0.96514">
        <ele>119.82</ele>
        <time>2018-05-13T16:21:54Z</time>
      </trkpt>
      <trkpt lat="49.40474" lon="0.9651">
        <ele>119.82</ele>
        <time>2018-05-13T16:21:55Z</time>
      </trkpt>
      <trkpt lat="49.4047" lon="0.96507">
        <ele>119.82</ele>
        <time>2018-05-13T16:21:56Z</time>
      </trkpt>
      <trkpt lat="49.40465" lon="0.96506">
        <ele>119.82</ele>
        <time>2018-05-13T16:21:57Z</time>
      </trkpt>
      <trkpt lat="49.4046" lon="0.96506">
        <ele>119.82</ele>
        <time>2018-05-13T16:21:58Z</time>
      </trkpt>
      <trkpt lat="49.40455" lon="0.96507">
        <ele>119.82</ele>
        <time>2018-05-13T16:21:59Z</time>
      </trkpt>
      <trkpt lat="49.4045" lon="0.9651">
        <ele>119.82</ele>
        <time>2018-05-13T16:22:00Z</time>
      </trkpt>
      <trkpt lat="49.40446" lon="0.96512">
        <ele>119.82</ele>
        <time>2018-05-13T16:22:01Z</time>
      </trkpt>
      <trkpt lat="49.40422" lon="0.96521">
        <ele>119.82</ele>
        <time>2018-05-13T16:22:06Z</time>
      </trkpt>
      <trkpt lat="49.40387" lon="0.96531">
        <ele>119.82</ele>
        <time>2018-05-13T16:22:12Z</time>
      </trkpt>
      <trkpt lat="49.40382" lon="0.96535">
        <ele>119.82</ele>
        <time>2018-05-13T16:22:13Z</time>
      </trkpt>
      <trkpt lat="49.40309" lon="0.9659">
        <ele>120.78</ele>
        <time>2018-05-13T16:22:28Z</time>
      </trkpt>
      <trkpt lat="49.40259" lon="0.96632">
        <ele>121.26</ele>
        <time>2018-05-13T16:22:39Z</time>
      </trkpt>
      <trkpt lat="49.40254" lon="0.96635">
        <ele>121.26</ele>
        <time>2018-05-13T16:22:40Z</time>
      </trkpt>
      <trkpt lat="49.40249" lon="0.96639">
        <ele>121.26</ele>
        <time>2018-05-13T16:22:41Z</time>
      </trkpt>
      <trkpt lat="49.40202" lon="0.96675">
        <ele>121.74</ele>
        <time>2018-05-13T16:22:51Z</time>
      </trkpt>
      <trkpt lat="49.40197" lon="0.9668">
        <ele>121.26</ele>
        <time>2018-05-13T16:22:52Z</time>
      </trkpt>
      <trkpt lat="49.40192" lon="0.96684">
        <ele>121.74</ele>
        <time>2018-05-13T16:22:53Z</time>
      </trkpt>
      <trkpt lat="49.40187" lon="0.96687">
        <ele>121.74</ele>
        <time>2018-05-13T16:22:54Z</time>
      </trkpt>
      <trkpt lat="49.40183" lon="0.96691">
        <ele>121.74</ele>
        <time>2018-05-13T16:22:55Z</time>
      </trkpt>
      <trkpt lat="49.40179" lon="0.96695">
        <ele>121.74</ele>
        <time>2018-05-13T16:22:56Z</time>
      </trkpt>
      <trkpt lat="49.40174" lon="0.96699">
        <ele>121.74</ele>
        <time>2018-05-13T16:22:57Z</time>
      </trkpt>
      <trkpt lat="49.40169" lon="0.96702">
        <ele>121.74</ele>
        <time>2018-05-13T16:22:58Z</time>
      </trkpt>
      <trkpt lat="49.40164" lon="0.96705">
        <ele>121.74</ele>
        <time>2018-05-13T16:22:59Z</time>
      </trkpt>
      <trkpt lat="49.4016" lon="0.96709">
        <ele>121.74</ele>
        <time>2018-05-13T16:23:00Z</time>
      </trkpt>
      <trkpt lat="49.40155" lon="0.96713">
        <ele>122.22</ele>
        <time>2018-05-13T16:23:01Z</time>
      </trkpt>
      <trkpt lat="49.40133" lon="0.96731">
        <ele>122.22</ele>
        <time>2018-05-13T16:23:06Z</time>
      </trkpt>
      <trkpt lat="49.40121" lon="0.96743">
        <ele>122.71</ele>
        <time>2018-05-13T16:23:09Z</time>
      </trkpt>
      <trkpt lat="49.40042" lon="0.96803">
        <ele>123.67</ele>
        <time>2018-05-13T16:23:27Z</time>
      </trkpt>
      <trkpt lat="49.40038" lon="0.96806">
        <ele>123.67</ele>
        <time>2018-05-13T16:23:28Z</time>
      </trkpt>
      <trkpt lat="49.40035" lon="0.9681">
        <ele>123.67</ele>
        <time>2018-05-13T16:23:29Z</time>
      </trkpt>
      <trkpt lat="49.40033" lon="0.96816">
        <ele>123.67</ele>
        <time>2018-05-13T16:23:30Z</time>
      </trkpt>
      <trkpt lat="49.40032" lon="0.96821">
        <ele>124.15</ele>
        <time>2018-05-13T16:23:31Z</time>
      </trkpt>
      <trkpt lat="49.40033" lon="0.96828">
        <ele>124.15</ele>
        <time>2018-05-13T16:23:32Z</time>
      </trkpt>
      <trkpt lat="49.40034" lon="0.96832">
        <ele>124.15</ele>
        <time>2018-05-13T16:23:33Z</time>
      </trkpt>
      <trkpt lat="49.40037" lon="0.96838">
        <ele>124.15</ele>
        <time>2018-05-13T16:23:34Z</time>
      </trkpt>
      <trkpt lat="49.40039" lon="0.96845">
        <ele>124.15</ele>
        <time>2018-05-13T16:23:35Z</time>
      </trkpt>
      <trkpt lat="49.40042" lon="0.96851">
        <ele>124.15</ele>
        <time>2018-05-13T16:23:36Z</time>
      </trkpt>
      <trkpt lat="49.40056" lon="0.96891">
        <ele>124.63</ele>
        <time>2018-05-13T16:23:42Z</time>
      </trkpt>
      <trkpt lat="49.40058" lon="0.96898">
        <ele>124.63</ele>
        <time>2018-05-13T16:23:43Z</time>
      </trkpt>
      <trkpt lat="49.40078" lon="0.96953">
        <ele>125.11</ele>
        <time>2018-05-13T16:23:51Z</time>
      </trkpt>
      <trkpt lat="49.40097" lon="0.97008">
        <ele>125.11</ele>
        <time>2018-05-13T16:23:59Z</time>
      </trkpt>
      <trkpt lat="49.40109" lon="0.97042">
        <ele>125.11</ele>
        <time>2018-05-13T16:24:04Z</time>
      </trkpt>
      <trkpt lat="49.40116" lon="0.97063">
        <ele>125.11</ele>
        <time>2018-05-13T16:24:07Z</time>
      </trkpt>
      <trkpt lat="49.40153" lon="0.97166">
        <ele>125.59</ele>
        <time>2018-05-13T16:24:20Z</time>
      </trkpt>
      <trkpt lat="49.40188" lon="0.97269">
        <ele>126.07</ele>
        <time>2018-05-13T16:24:33Z</time>
      </trkpt>
      <trkpt lat="49.402" lon="0.97308">
        <ele>126.55</ele>
        <time>2018-05-13T16:24:38Z</time>
      </trkpt>
      <trkpt lat="49.4023" lon="0.97388">
        <ele>125.11</ele>
        <time>2018-05-13T16:24:48Z</time>
      </trkpt>
      <trkpt lat="49.4024" lon="0.97414">
        <ele>125.11</ele>
        <time>2018-05-13T16:24:52Z</time>
      </trkpt>
      <trkpt lat="49.40278" lon="0.97526">
        <ele>125.11</ele>
        <time>2018-05-13T16:25:06Z</time>
      </trkpt>
      <trkpt lat="49.40303" lon="0.97599">
        <ele>126.55</ele>
        <time>2018-05-13T16:25:15Z</time>
      </trkpt>
      <trkpt lat="49.40318" lon="0.9764">
        <ele>126.55</ele>
        <time>2018-05-13T16:25:20Z</time>
      </trkpt>
      <trkpt lat="49.40322" lon="0.97648">
        <ele>126.55</ele>
        <time>2018-05-13T16:25:21Z</time>
      </trkpt>
      <trkpt lat="49.40368" lon="0.97783">
        <ele>126.07</ele>
        <time>2018-05-13T16:25:37Z</time>
      </trkpt>
      <trkpt lat="49.40416" lon="0.97917">
        <ele>126.07</ele>
        <time>2018-05-13T16:25:53Z</time>
      </trkpt>
      <trkpt lat="49.40432" lon="0.97956">
        <ele>126.07</ele>
        <time>2018-05-13T16:25:58Z</time>
      </trkpt>
      <trkpt lat="49.40435" lon="0.97965">
        <ele>126.07</ele>
        <time>2018-05-13T16:25:59Z</time>
      </trkpt>
      <trkpt lat="49.40445" lon="0.98001">
        <ele>126.55</ele>
        <time>2018-05-13T16:26:04Z</time>
      </trkpt>
      <trkpt lat="49.40475" lon="0.98085">
        <ele>126.55</ele>
        <time>2018-05-13T16:26:14Z</time>
      </trkpt>
      <trkpt lat="49.40512" lon="0.9819">
        <ele>126.55</ele>
        <time>2018-05-13T16:26:26Z</time>
      </trkpt>
      <trkpt lat="49.40521" lon="0.98215">
        <ele>126.55</ele>
        <time>2018-05-13T16:26:29Z</time>
      </trkpt>
      <trkpt lat="49.40522" lon="0.98222">
        <ele>126.55</ele>
        <time>2018-05-13T16:26:30Z</time>
      </trkpt>
      <trkpt lat="49.40523" lon="0.98226">
        <ele>126.55</ele>
        <time>2018-05-13T16:26:31Z</time>
      </trkpt>
      <trkpt lat="49.40524" lon="0.9823">
        <ele>126.55</ele>
        <time>2018-05-13T16:26:32Z</time>
      </trkpt>
      <trkpt lat="49.40526" lon="0.98234">
        <ele>126.55</ele>
        <time>2018-05-13T16:26:33Z</time>
      </trkpt>
      <trkpt lat="49.40529" lon="0.98239">
        <ele>126.55</ele>
        <time>2018-05-13T16:26:34Z</time>
      </trkpt>
      <trkpt lat="49.40538" lon="0.98258">
        <ele>126.55</ele>
        <time>2018-05-13T16:26:37Z</time>
      </trkpt>
      <trkpt lat="49.40573" lon="0.98355">
        <ele>127.03</ele>
        <time>2018-05-13T16:26:49Z</time>
      </trkpt>
      <trkpt lat="49.40578" lon="0.9837">
        <ele>127.03</ele>
        <time>2018-05-13T16:26:51Z</time>
      </trkpt>
      <trkpt lat="49.40589" lon="0.984">
        <ele>127.03</ele>
        <time>2018-05-13T16:26:55Z</time>
      </trkpt>
      <trkpt lat="49.40599" lon="0.98432">
        <ele>127.03</ele>
        <time>2018-05-13T16:26:59Z</time>
      </trkpt>
      <trkpt lat="49.40608" lon="0.98455">
        <ele>127.51</ele>
        <time>2018-05-13T16:27:02Z</time>
      </trkpt>
      <trkpt lat="49.40611" lon="0.98463">
        <ele>127.51</ele>
        <time>2018-05-13T16:27:03Z</time>
      </trkpt>
      <trkpt lat="49.40634" lon="0.98526">
        <ele>127.51</ele>
        <time>2018-05-13T16:27:12Z</time>
      </trkpt>
      <trkpt lat="49.40636" lon="0.98532">
        <ele>127.51</ele>
        <time>2018-05-13T16:27:13Z</time>
      </trkpt>
      <trkpt lat="49.40665" lon="0.98617">
        <ele>127.03</ele>
        <time>2018-05-13T16:27:25Z</time>
      </trkpt>
      <trkpt lat="49.40668" lon="0.98624">
        <ele>127.03</ele>
        <time>2018-05-13T16:27:26Z</time>
      </trkpt>
      <trkpt lat="49.40674" lon="0.98637">
        <ele>127.03</ele>
        <time>2018-05-13T16:27:28Z</time>
      </trkpt>
      <trkpt lat="49.40679" lon="0.98652">
        <ele>127.03</ele>
        <time>2018-05-13T16:27:30Z</time>
      </trkpt>
      <trkpt lat="49.40681" lon="0.98659">
        <ele>127.03</ele>
        <time>2018-05-13T16:27:31Z</time>
      </trkpt>
      <trkpt lat="49.40685" lon="0.98672">
        <ele>127.03</ele>
        <time>2018-05-13T16:27:33Z</time>
      </trkpt>
      <trkpt lat="49.40685" lon="0.98677">
        <ele>127.03</ele>
        <time>2018-05-13T16:27:34Z</time>
      </trkpt>
      <trkpt lat="49.40672" lon="0.98685">
        <ele>127.03</ele>
        <time>2018-05-13T16:27:37Z</time>
      </trkpt>
      <trkpt lat="49.40656" lon="0.98686">
        <ele>127.03</ele>
        <time>2018-05-13T16:27:40Z</time>
      </trkpt>
      <trkpt lat="49.40627" lon="0.98681">
        <ele>127.03</ele>
        <time>2018-05-13T16:27:44Z</time>
      </trkpt>
      <trkpt lat="49.40551" lon="0.98682">
        <ele>127.03</ele>
        <time>2018-05-13T16:27:55Z</time>
      </trkpt>
      <trkpt lat="49.40525" lon="0.98682">
        <ele>126.07</ele>
        <time>2018-05-13T16:27:59Z</time>
      </trkpt>
      <trkpt lat="49.405" lon="0.98684">
        <ele>125.59</ele>
        <time>2018-05-13T16:28:03Z</time>
      </trkpt>
      <trkpt lat="49.40483" lon="0.98694">
        <ele>125.59</ele>
        <time>2018-05-13T16:28:06Z</time>
      </trkpt>
      <trkpt lat="49.40459" lon="0.98709">
        <ele>124.63</ele>
        <time>2018-05-13T16:28:11Z</time>
      </trkpt>
      <trkpt lat="49.40443" lon="0.98727">
        <ele>124.63</ele>
        <time>2018-05-13T16:28:17Z</time>
      </trkpt>
      <trkpt lat="49.40425" lon="0.98721">
        <ele>124.63</ele>
        <time>2018-05-13T16:28:24Z</time>
      </trkpt>
      <trkpt lat="49.40415" lon="0.9872">
        <ele>124.63</ele>
        <time>2018-05-13T16:28:26Z</time>
      </trkpt>
      <trkpt lat="49.40384" lon="0.98715">
        <ele>124.63</ele>
        <time>2018-05-13T16:28:32Z</time>
      </trkpt>
      <trkpt lat="49.40378" lon="0.98703">
        <ele>124.63</ele>
        <time>2018-05-13T16:28:34Z</time>
      </trkpt>
      <trkpt lat="49.40358" lon="0.98693">
        <ele>124.63</ele>
        <time>2018-05-13T16:28:38Z</time>
      </trkpt>
      <trkpt lat="49.40319" lon="0.98707">
        <ele>124.63</ele>
        <time>2018-05-13T16:28:46Z</time>
      </trkpt>
      <trkpt lat="49.40308" lon="0.98713">
        <ele>124.63</ele>
        <time>2018-05-13T16:28:48Z</time>
      </trkpt>
      <trkpt lat="49.40286" lon="0.98721">
        <ele>124.63</ele>
        <time>2018-05-13T16:28:53Z</time>
      </trkpt>
      <trkpt lat="49.40251" lon="0.98732">
        <ele>124.63</ele>
        <time>2018-05-13T16:29:01Z</time>
      </trkpt>
      <trkpt lat="49.40236" lon="0.98738">
        <ele>124.63</ele>
        <time>2018-05-13T16:29:04Z</time>
      </trkpt>
      <trkpt lat="49.40212" lon="0.98745">
        <ele>124.63</ele>
        <time>2018-05-13T16:29:09Z</time>
      </trkpt>
      <trkpt lat="49.40207" lon="0.98746">
        <ele>124.63</ele>
        <time>2018-05-13T16:29:10Z</time>
      </trkpt>
      <trkpt lat="49.40202" lon="0.98746">
        <ele>124.63</ele>
        <time>2018-05-13T16:29:11Z</time>
      </trkpt>
      <trkpt lat="49.40197" lon="0.98746">
        <ele>124.63</ele>
        <time>2018-05-13T16:29:12Z</time>
      </trkpt>
      <trkpt lat="49.40193" lon="0.98745">
        <ele>124.63</ele>
        <time>2018-05-13T16:29:13Z</time>
      </trkpt>
      <trkpt lat="49.40189" lon="0.98746">
        <ele>124.63</ele>
        <time>2018-05-13T16:29:14Z</time>
      </trkpt>
      <trkpt lat="49.40185" lon="0.98748">
        <ele>124.63</ele>
        <time>2018-05-13T16:29:15Z</time>
      </trkpt>
      <trkpt lat="49.40183" lon="0.98752">
        <ele>124.63</ele>
        <time>2018-05-13T16:29:16Z</time>
      </trkpt>
      <trkpt lat="49.40182" lon="0.98758">
        <ele>124.63</ele>
        <time>2018-05-13T16:29:17Z</time>
      </trkpt>
      <trkpt lat="49.40181" lon="0.98765">
        <ele>124.63</ele>
        <time>2018-05-13T16:29:18Z</time>
      </trkpt>
      <trkpt lat="49.40178" lon="0.98788">
        <ele>124.63</ele>
        <time>2018-05-13T16:29:21Z</time>
      </trkpt>
      <trkpt lat="49.40178" lon="0.98805">
        <ele>124.63</ele>
        <time>2018-05-13T16:29:23Z</time>
      </trkpt>
      <trkpt lat="49.40178" lon="0.98814">
        <ele>124.63</ele>
        <time>2018-05-13T16:29:24Z</time>
      </trkpt>
      <trkpt lat="49.40178" lon="0.98822">
        <ele>124.63</ele>
        <time>2018-05-13T16:29:25Z</time>
      </trkpt>
      <trkpt lat="49.40176" lon="0.98858">
        <ele>124.63</ele>
        <time>2018-05-13T16:29:29Z</time>
      </trkpt>
      <trkpt lat="49.40177" lon="0.98892">
        <ele>124.63</ele>
        <time>2018-05-13T16:29:33Z</time>
      </trkpt>
      <trkpt lat="49.40177" lon="0.989">
        <ele>124.63</ele>
        <time>2018-05-13T16:29:34Z</time>
      </trkpt>
      <trkpt lat="49.40176" lon="0.98908">
        <ele>124.63</ele>
        <time>2018-05-13T16:29:35Z</time>
      </trkpt>
      <trkpt lat="49.40175" lon="0.98916">
        <ele>124.63</ele>
        <time>2018-05-13T16:29:36Z</time>
      </trkpt>
      <trkpt lat="49.40174" lon="0.98924">
        <ele>124.63</ele>
        <time>2018-05-13T16:29:37Z</time>
      </trkpt>
      <trkpt lat="49.40173" lon="0.98933">
        <ele>124.63</ele>
        <time>2018-05-13T16:29:38Z</time>
      </trkpt>
      <trkpt lat="49.40172" lon="0.98943">
        <ele>124.63</ele>
        <time>2018-05-13T16:29:39Z</time>
      </trkpt>
      <trkpt lat="49.40169" lon="0.99019">
        <ele>124.63</ele>
        <time>2018-05-13T16:29:47Z</time>
      </trkpt>
      <trkpt lat="49.40169" lon="0.99028">
        <ele>124.63</ele>
        <time>2018-05-13T16:29:48Z</time>
      </trkpt>
      <trkpt lat="49.40169" lon="0.99038">
        <ele>124.63</ele>
        <time>2018-05-13T16:29:49Z</time>
      </trkpt>
      <trkpt lat="49.40168" lon="0.99047">
        <ele>124.63</ele>
        <time>2018-05-13T16:29:50Z</time>
      </trkpt>
      <trkpt lat="49.40168" lon="0.99057">
        <ele>124.63</ele>
        <time>2018-05-13T16:29:51Z</time>
      </trkpt>
      <trkpt lat="49.40167" lon="0.99066">
        <ele>124.63</ele>
        <time>2018-05-13T16:29:52Z</time>
      </trkpt>
      <trkpt lat="49.40166" lon="0.99087">
        <ele>124.63</ele>
        <time>2018-05-13T16:29:54Z</time>
      </trkpt>
      <trkpt lat="49.40165" lon="0.99097">
        <ele>124.15</ele>
        <time>2018-05-13T16:29:55Z</time>
      </trkpt>
      <trkpt lat="49.40159" lon="0.99222">
        <ele>123.67</ele>
        <time>2018-05-13T16:30:08Z</time>
      </trkpt>
      <trkpt lat="49.40158" lon="0.99232">
        <ele>121.74</ele>
        <time>2018-05-13T16:30:09Z</time>
      </trkpt>
      <trkpt lat="49.40158" lon="0.99239">
        <ele>121.74</ele>
        <time>2018-05-13T16:30:10Z</time>
      </trkpt>
      <trkpt lat="49.40159" lon="0.99246">
        <ele>121.74</ele>
        <time>2018-05-13T16:30:11Z</time>
      </trkpt>
      <trkpt lat="49.40159" lon="0.99256">
        <ele>121.74</ele>
        <time>2018-05-13T16:30:12Z</time>
      </trkpt>
      <trkpt lat="49.40159" lon="0.99264">
        <ele>121.74</ele>
        <time>2018-05-13T16:30:13Z</time>
      </trkpt>
      <trkpt lat="49.40158" lon="0.99282">
        <ele>121.74</ele>
        <time>2018-05-13T16:30:15Z</time>
      </trkpt>
      <trkpt lat="49.40157" lon="0.99292">
        <ele>121.74</ele>
        <time>2018-05-13T16:30:16Z</time>
      </trkpt>
      <trkpt lat="49.40154" lon="0.99347">
        <ele>121.26</ele>
        <time>2018-05-13T16:30:22Z</time>
      </trkpt>
      <trkpt lat="49.40154" lon="0.99366">
        <ele>120.78</ele>
        <time>2018-05-13T16:30:24Z</time>
      </trkpt>
      <trkpt lat="49.40155" lon="0.99375">
        <ele>120.78</ele>
        <time>2018-05-13T16:30:25Z</time>
      </trkpt>
      <trkpt lat="49.40158" lon="0.99385">
        <ele>119.82</ele>
        <time>2018-05-13T16:30:26Z</time>
      </trkpt>
      <trkpt lat="49.40162" lon="0.99395">
        <ele>120.3</ele>
        <time>2018-05-13T16:30:27Z</time>
      </trkpt>
      <trkpt lat="49.40165" lon="0.99401">
        <ele>119.82</ele>
        <time>2018-05-13T16:30:28Z</time>
      </trkpt>
      <trkpt lat="49.40169" lon="0.99408">
        <ele>119.82</ele>
        <time>2018-05-13T16:30:29Z</time>
      </trkpt>
      <trkpt lat="49.40176" lon="0.99423">
        <ele>119.82</ele>
        <time>2018-05-13T16:30:31Z</time>
      </trkpt>
      <trkpt lat="49.40181" lon="0.99437">
        <ele>119.82</ele>
        <time>2018-05-13T16:30:33Z</time>
      </trkpt>
      <trkpt lat="49.40184" lon="0.99444">
        <ele>121.26</ele>
        <time>2018-05-13T16:30:34Z</time>
      </trkpt>
      <trkpt lat="49.40193" lon="0.99471">
        <ele>121.74</ele>
        <time>2018-05-13T16:30:38Z</time>
      </trkpt>
      <trkpt lat="49.40194" lon="0.99481">
        <ele>121.74</ele>
        <time>2018-05-13T16:30:39Z</time>
      </trkpt>
      <trkpt lat="49.40195" lon="0.99489">
        <ele>121.74</ele>
        <time>2018-05-13T16:30:40Z</time>
      </trkpt>
      <trkpt lat="49.40195" lon="0.99523">
        <ele>121.74</ele>
        <time>2018-05-13T16:30:44Z</time>
      </trkpt>
      <trkpt lat="49.40197" lon="0.9954">
        <ele>121.74</ele>
        <time>2018-05-13T16:30:46Z</time>
      </trkpt>
      <trkpt lat="49.40199" lon="0.99547">
        <ele>121.74</ele>
        <time>2018-05-13T16:30:47Z</time>
      </trkpt>
      <trkpt lat="49.40202" lon="0.99553">
        <ele>121.74</ele>
        <time>2018-05-13T16:30:48Z</time>
      </trkpt>
      <trkpt lat="49.40205" lon="0.99559">
        <ele>121.74</ele>
        <time>2018-05-13T16:30:49Z</time>
      </trkpt>
      <trkpt lat="49.40209" lon="0.99564">
        <ele>121.74</ele>
        <time>2018-05-13T16:30:50Z</time>
      </trkpt>
      <trkpt lat="49.40262" lon="0.9961">
        <ele>121.74</ele>
        <time>2018-05-13T16:31:00Z</time>
      </trkpt>
      <trkpt lat="49.40323" lon="0.99665">
        <ele>122.22</ele>
        <time>2018-05-13T16:31:12Z</time>
      </trkpt>
      <trkpt lat="49.4039" lon="0.99724">
        <ele>122.22</ele>
        <time>2018-05-13T16:31:25Z</time>
      </trkpt>
      <trkpt lat="49.40432" lon="0.9976">
        <ele>122.71</ele>
        <time>2018-05-13T16:31:33Z</time>
      </trkpt>
      <trkpt lat="49.40484" lon="0.99806">
        <ele>122.71</ele>
        <time>2018-05-13T16:31:43Z</time>
      </trkpt>
      <trkpt lat="49.40494" lon="0.99816">
        <ele>122.71</ele>
        <time>2018-05-13T16:31:45Z</time>
      </trkpt>
      <trkpt lat="49.40499" lon="0.99821">
        <ele>122.71</ele>
        <time>2018-05-13T16:31:46Z</time>
      </trkpt>
      <trkpt lat="49.40504" lon="0.99825">
        <ele>122.71</ele>
        <time>2018-05-13T16:31:47Z</time>
      </trkpt>
      <trkpt lat="49.40509" lon="0.99829">
        <ele>122.71</ele>
        <time>2018-05-13T16:31:48Z</time>
      </trkpt>
      <trkpt lat="49.40513" lon="0.99834">
        <ele>122.71</ele>
        <time>2018-05-13T16:31:49Z</time>
      </trkpt>
      <trkpt lat="49.40574" lon="0.99889">
        <ele>122.71</ele>
        <time>2018-05-13T16:32:01Z</time>
      </trkpt>
      <trkpt lat="49.40643" lon="0.9995">
        <ele>122.71</ele>
        <time>2018-05-13T16:32:14Z</time>
      </trkpt>
      <trkpt lat="49.40682" lon="0.99986">
        <ele>122.71</ele>
        <time>2018-05-13T16:32:22Z</time>
      </trkpt>
      <trkpt lat="49.40695" lon="0.99998">
        <ele>122.71</ele>
        <time>2018-05-13T16:32:25Z</time>
      </trkpt>
      <trkpt lat="49.40743" lon="1.00041">
        <ele>121.26</ele>
        <time>2018-05-13T16:32:35Z</time>
      </trkpt>
      <trkpt lat="49.40753" lon="1.00049">
        <ele>120.78</ele>
        <time>2018-05-13T16:32:37Z</time>
      </trkpt>
      <trkpt lat="49.40759" lon="1.00053">
        <ele>120.78</ele>
        <time>2018-05-13T16:32:38Z</time>
      </trkpt>
      <trkpt lat="49.40764" lon="1.00058">
        <ele>119.82</ele>
        <time>2018-05-13T16:32:39Z</time>
      </trkpt>
      <trkpt lat="49.40769" lon="1.00063">
        <ele>119.82</ele>
        <time>2018-05-13T16:32:40Z</time>
      </trkpt>
      <trkpt lat="49.40776" lon="1.00068">
        <ele>118.86</ele>
        <time>2018-05-13T16:32:41Z</time>
      </trkpt>
      <trkpt lat="49.40814" lon="1.00102">
        <ele>115.5</ele>
        <time>2018-05-13T16:32:47Z</time>
      </trkpt>
      <trkpt lat="49.40828" lon="1.00114">
        <ele>113.09</ele>
        <time>2018-05-13T16:32:49Z</time>
      </trkpt>
      <trkpt lat="49.40845" lon="1.00126">
        <ele>112.61</ele>
        <time>2018-05-13T16:32:51Z</time>
      </trkpt>
      <trkpt lat="49.40885" lon="1.00164">
        <ele>113.57</ele>
        <time>2018-05-13T16:32:57Z</time>
      </trkpt>
      <trkpt lat="49.40913" lon="1.00191">
        <ele>116.94</ele>
        <time>2018-05-13T16:33:03Z</time>
      </trkpt>
      <trkpt lat="49.40958" lon="1.00231">
        <ele>118.86</ele>
        <time>2018-05-13T16:33:13Z</time>
      </trkpt>
      <trkpt lat="49.41007" lon="1.00276">
        <ele>118.86</ele>
        <time>2018-05-13T16:33:24Z</time>
      </trkpt>
      <trkpt lat="49.41022" lon="1.00289">
        <ele>118.86</ele>
        <time>2018-05-13T16:33:27Z</time>
      </trkpt>
      <trkpt lat="49.41027" lon="1.00294">
        <ele>118.86</ele>
        <time>2018-05-13T16:33:28Z</time>
      </trkpt>
      <trkpt lat="49.4104" lon="1.00307">
        <ele>118.86</ele>
        <time>2018-05-13T16:33:31Z</time>
      </trkpt>
      <trkpt lat="49.41045" lon="1.00312">
        <ele>118.86</ele>
        <time>2018-05-13T16:33:32Z</time>
      </trkpt>
      <trkpt lat="49.41051" lon="1.00316">
        <ele>118.86</ele>
        <time>2018-05-13T16:33:33Z</time>
      </trkpt>
      <trkpt lat="49.41062" lon="1.00325">
        <ele>118.86</ele>
        <time>2018-05-13T16:33:35Z</time>
      </trkpt>
      <trkpt lat="49.41116" lon="1.00375">
        <ele>116.94</ele>
        <time>2018-05-13T16:33:45Z</time>
      </trkpt>
      <trkpt lat="49.41172" lon="1.00424">
        <ele>114.53</ele>
        <time>2018-05-13T16:33:56Z</time>
      </trkpt>
      <trkpt lat="49.41213" lon="1.00461">
        <ele>111.17</ele>
        <time>2018-05-13T16:34:03Z</time>
      </trkpt>
      <trkpt lat="49.41238" lon="1.00484">
        <ele>108.29</ele>
        <time>2018-05-13T16:34:07Z</time>
      </trkpt>
      <trkpt lat="49.41257" lon="1.00498">
        <ele>105.4</ele>
        <time>2018-05-13T16:34:10Z</time>
      </trkpt>
      <trkpt lat="49.41263" lon="1.00501">
        <ele>104.44</ele>
        <time>2018-05-13T16:34:11Z</time>
      </trkpt>
      <trkpt lat="49.41269" lon="1.00504">
        <ele>103</ele>
        <time>2018-05-13T16:34:12Z</time>
      </trkpt>
      <trkpt lat="49.41274" lon="1.00504">
        <ele>101.56</ele>
        <time>2018-05-13T16:34:13Z</time>
      </trkpt>
      <trkpt lat="49.4128" lon="1.00503">
        <ele>100.6</ele>
        <time>2018-05-13T16:34:14Z</time>
      </trkpt>
      <trkpt lat="49.41285" lon="1.00501">
        <ele>99.63</ele>
        <time>2018-05-13T16:34:15Z</time>
      </trkpt>
      <trkpt lat="49.41301" lon="1.00495">
        <ele>95.79</ele>
        <time>2018-05-13T16:34:18Z</time>
      </trkpt>
      <trkpt lat="49.41308" lon="1.00494">
        <ele>94.35</ele>
        <time>2018-05-13T16:34:19Z</time>
      </trkpt>
      <trkpt lat="49.41314" lon="1.00495">
        <ele>92.9</ele>
        <time>2018-05-13T16:34:20Z</time>
      </trkpt>
      <trkpt lat="49.4132" lon="1.00498">
        <ele>91.94</ele>
        <time>2018-05-13T16:34:21Z</time>
      </trkpt>
      <trkpt lat="49.41327" lon="1.00502">
        <ele>90.02</ele>
        <time>2018-05-13T16:34:22Z</time>
      </trkpt>
      <trkpt lat="49.4134" lon="1.00511">
        <ele>87.14</ele>
        <time>2018-05-13T16:34:24Z</time>
      </trkpt>
      <trkpt lat="49.41344" lon="1.00515">
        <ele>85.69</ele>
        <time>2018-05-13T16:34:25Z</time>
      </trkpt>
      <trkpt lat="49.41349" lon="1.00521">
        <ele>83.77</ele>
        <time>2018-05-13T16:34:27Z</time>
      </trkpt>
      <trkpt lat="49.4135" lon="1.00525">
        <ele>82.81</ele>
        <time>2018-05-13T16:34:28Z</time>
      </trkpt>
      <trkpt lat="49.41351" lon="1.00531">
        <ele>81.85</ele>
        <time>2018-05-13T16:34:29Z</time>
      </trkpt>
      <trkpt lat="49.41353" lon="1.00538">
        <ele>79.93</ele>
        <time>2018-05-13T16:34:30Z</time>
      </trkpt>
      <trkpt lat="49.41355" lon="1.00546">
        <ele>78</ele>
        <time>2018-05-13T16:34:31Z</time>
      </trkpt>
      <trkpt lat="49.41362" lon="1.00566">
        <ele>74.16</ele>
        <time>2018-05-13T16:34:33Z</time>
      </trkpt>
      <trkpt lat="49.41365" lon="1.00576">
        <ele>72.72</ele>
        <time>2018-05-13T16:34:34Z</time>
      </trkpt>
      <trkpt lat="49.4137" lon="1.00583">
        <ele>71.76</ele>
        <time>2018-05-13T16:34:35Z</time>
      </trkpt>
      <trkpt lat="49.41375" lon="1.00588">
        <ele>70.31</ele>
        <time>2018-05-13T16:34:36Z</time>
      </trkpt>
      <trkpt lat="49.4138" lon="1.00592">
        <ele>69.35</ele>
        <time>2018-05-13T16:34:37Z</time>
      </trkpt>
      <trkpt lat="49.41385" lon="1.00597">
        <ele>68.39</ele>
        <time>2018-05-13T16:34:38Z</time>
      </trkpt>
      <trkpt lat="49.41388" lon="1.00605">
        <ele>66.95</ele>
        <time>2018-05-13T16:34:39Z</time>
      </trkpt>
      <trkpt lat="49.41393" lon="1.00611">
        <ele>65.51</ele>
        <time>2018-05-13T16:34:40Z</time>
      </trkpt>
      <trkpt lat="49.41399" lon="1.00614">
        <ele>64.55</ele>
        <time>2018-05-13T16:34:41Z</time>
      </trkpt>
      <trkpt lat="49.41405" lon="1.00616">
        <ele>62.62</ele>
        <time>2018-05-13T16:34:42Z</time>
      </trkpt>
      <trkpt lat="49.4141" lon="1.00622">
        <ele>61.18</ele>
        <time>2018-05-13T16:34:43Z</time>
      </trkpt>
      <trkpt lat="49.41414" lon="1.00627">
        <ele>60.22</ele>
        <time>2018-05-13T16:34:44Z</time>
      </trkpt>
      <trkpt lat="49.41418" lon="1.0063">
        <ele>59.26</ele>
        <time>2018-05-13T16:34:45Z</time>
      </trkpt>
      <trkpt lat="49.41423" lon="1.00635">
        <ele>58.3</ele>
        <time>2018-05-13T16:34:46Z</time>
      </trkpt>
      <trkpt lat="49.41428" lon="1.00641">
        <ele>56.37</ele>
        <time>2018-05-13T16:34:47Z</time>
      </trkpt>
      <trkpt lat="49.41434" lon="1.00648">
        <ele>54.45</ele>
        <time>2018-05-13T16:34:48Z</time>
      </trkpt>
      <trkpt lat="49.41439" lon="1.00654">
        <ele>53.01</ele>
        <time>2018-05-13T16:34:49Z</time>
      </trkpt>
      <trkpt lat="49.41445" lon="1.00658">
        <ele>52.05</ele>
        <time>2018-05-13T16:34:50Z</time>
      </trkpt>
      <trkpt lat="49.41451" lon="1.00659">
        <ele>50.61</ele>
        <time>2018-05-13T16:34:51Z</time>
      </trkpt>
      <trkpt lat="49.41457" lon="1.00658">
        <ele>50.13</ele>
        <time>2018-05-13T16:34:52Z</time>
      </trkpt>
      <trkpt lat="49.41463" lon="1.00657">
        <ele>48.68</ele>
        <time>2018-05-13T16:34:53Z</time>
      </trkpt>
      <trkpt lat="49.4147" lon="1.00657">
        <ele>48.2</ele>
        <time>2018-05-13T16:34:54Z</time>
      </trkpt>
      <trkpt lat="49.41482" lon="1.00653">
        <ele>46.28</ele>
        <time>2018-05-13T16:34:56Z</time>
      </trkpt>
      <trkpt lat="49.41498" lon="1.00641">
        <ele>43.88</ele>
        <time>2018-05-13T16:34:59Z</time>
      </trkpt>
      <trkpt lat="49.4151" lon="1.00626">
        <ele>42.44</ele>
        <time>2018-05-13T16:35:03Z</time>
      </trkpt>
      <trkpt lat="49.41512" lon="1.00626">
        <ele>41.95</ele>
        <time>2018-05-13T16:35:04Z</time>
      </trkpt>
      <trkpt lat="49.41513" lon="1.00629">
        <ele>41.95</ele>
        <time>2018-05-13T16:35:05Z</time>
      </trkpt>
      <trkpt lat="49.41512" lon="1.00633">
        <ele>42.44</ele>
        <time>2018-05-13T16:35:06Z</time>
      </trkpt>
      <trkpt lat="49.41511" lon="1.00637">
        <ele>41.95</ele>
        <time>2018-05-13T16:35:07Z</time>
      </trkpt>
      <trkpt lat="49.41509" lon="1.00647">
        <ele>41.47</ele>
        <time>2018-05-13T16:35:09Z</time>
      </trkpt>
      <trkpt lat="49.41508" lon="1.00654">
        <ele>40.99</ele>
        <time>2018-05-13T16:35:10Z</time>
      </trkpt>
      <trkpt lat="49.41507" lon="1.00662">
        <ele>40.99</ele>
        <time>2018-05-13T16:35:11Z</time>
      </trkpt>
      <trkpt lat="49.41506" lon="1.00671">
        <ele>40.51</ele>
        <time>2018-05-13T16:35:12Z</time>
      </trkpt>
      <trkpt lat="49.41504" lon="1.0068">
        <ele>40.03</ele>
        <time>2018-05-13T16:35:13Z</time>
      </trkpt>
      <trkpt lat="49.41503" lon="1.0069">
        <ele>40.03</ele>
        <time>2018-05-13T16:35:14Z</time>
      </trkpt>
      <trkpt lat="49.41501" lon="1.00701">
        <ele>39.07</ele>
        <time>2018-05-13T16:35:15Z</time>
      </trkpt>
      <trkpt lat="49.4149" lon="1.00783">
        <ele>36.19</ele>
        <time>2018-05-13T16:35:22Z</time>
      </trkpt>
      <trkpt lat="49.41483" lon="1.00874">
        <ele>32.34</ele>
        <time>2018-05-13T16:35:29Z</time>
      </trkpt>
      <trkpt lat="49.41478" lon="1.00933">
        <ele>29.94</ele>
        <time>2018-05-13T16:35:33Z</time>
      </trkpt>
      <trkpt lat="49.41472" lon="1.01009">
        <ele>26.57</ele>
        <time>2018-05-13T16:35:38Z</time>
      </trkpt>
      <trkpt lat="49.4146" lon="1.01086">
        <ele>23.21</ele>
        <time>2018-05-13T16:35:43Z</time>
      </trkpt>
      <trkpt lat="49.41443" lon="1.01176">
        <ele>19.36</ele>
        <time>2018-05-13T16:35:49Z</time>
      </trkpt>
      <trkpt lat="49.41425" lon="1.01276">
        <ele>16</ele>
        <time>2018-05-13T16:35:56Z</time>
      </trkpt>
      <trkpt lat="49.41419" lon="1.01302">
        <ele>15.52</ele>
        <time>2018-05-13T16:35:58Z</time>
      </trkpt>
      <trkpt lat="49.41392" lon="1.01396">
        <ele>12.15</ele>
        <time>2018-05-13T16:36:06Z</time>
      </trkpt>
      <trkpt lat="49.41393" lon="1.01405">
        <ele>12.15</ele>
        <time>2018-05-13T16:36:07Z</time>
      </trkpt>
      <trkpt lat="49.41396" lon="1.01411">
        <ele>12.15</ele>
        <time>2018-05-13T16:36:08Z</time>
      </trkpt>
      <trkpt lat="49.41401" lon="1.01414">
        <ele>12.15</ele>
        <time>2018-05-13T16:36:09Z</time>
      </trkpt>
      <trkpt lat="49.41406" lon="1.01416">
        <ele>12.15</ele>
        <time>2018-05-13T16:36:10Z</time>
      </trkpt>
      <trkpt lat="49.41411" lon="1.01418">
        <ele>12.15</ele>
        <time>2018-05-13T16:36:11Z</time>
      </trkpt>
      <trkpt lat="49.41416" lon="1.01421">
        <ele>12.15</ele>
        <time>2018-05-13T16:36:12Z</time>
      </trkpt>
      <trkpt lat="49.41421" lon="1.01424">
        <ele>12.15</ele>
        <time>2018-05-13T16:36:13Z</time>
      </trkpt>
      <trkpt lat="49.41426" lon="1.01427">
        <ele>12.15</ele>
        <time>2018-05-13T16:36:14Z</time>
      </trkpt>
      <trkpt lat="49.41526" lon="1.01484">
        <ele>12.15</ele>
        <time>2018-05-13T16:36:31Z</time>
      </trkpt>
      <trkpt lat="49.4158" lon="1.01513">
        <ele>12.15</ele>
        <time>2018-05-13T16:36:40Z</time>
      </trkpt>
      <trkpt lat="49.4161" lon="1.01528">
        <ele>12.15</ele>
        <time>2018-05-13T16:36:45Z</time>
      </trkpt>
      <trkpt lat="49.41687" lon="1.01574">
        <ele>12.63</ele>
        <time>2018-05-13T16:36:58Z</time>
      </trkpt>
      <trkpt lat="49.41768" lon="1.0162">
        <ele>12.63</ele>
        <time>2018-05-13T16:37:12Z</time>
      </trkpt>
      <trkpt lat="49.4186" lon="1.01676">
        <ele>11.19</ele>
        <time>2018-05-13T16:37:29Z</time>
      </trkpt>
      <trkpt lat="49.41959" lon="1.01736">
        <ele>11.19</ele>
        <time>2018-05-13T16:37:47Z</time>
      </trkpt>
      <trkpt lat="49.42052" lon="1.01791">
        <ele>11.19</ele>
        <time>2018-05-13T16:38:04Z</time>
      </trkpt>
      <trkpt lat="49.42146" lon="1.01849">
        <ele>11.19</ele>
        <time>2018-05-13T16:38:21Z</time>
      </trkpt>
      <trkpt lat="49.42223" lon="1.019">
        <ele>10.71</ele>
        <time>2018-05-13T16:38:35Z</time>
      </trkpt>
      <trkpt lat="49.42271" lon="1.01934">
        <ele>10.71</ele>
        <time>2018-05-13T16:38:44Z</time>
      </trkpt>
      <trkpt lat="49.42364" lon="1.02">
        <ele>10.23</ele>
        <time>2018-05-13T16:39:01Z</time>
      </trkpt>
      <trkpt lat="49.42449" lon="1.02059">
        <ele>11.19</ele>
        <time>2018-05-13T16:39:16Z</time>
      </trkpt>
      <trkpt lat="49.4254" lon="1.02127">
        <ele>11.19</ele>
        <time>2018-05-13T16:39:32Z</time>
      </trkpt>
      <trkpt lat="49.4265" lon="1.02216">
        <ele>11.19</ele>
        <time>2018-05-13T16:39:52Z</time>
      </trkpt>
      <trkpt lat="49.42744" lon="1.02294">
        <ele>11.19</ele>
        <time>2018-05-13T16:40:09Z</time>
      </trkpt>
      <trkpt lat="49.42827" lon="1.02374">
        <ele>11.19</ele>
        <time>2018-05-13T16:40:25Z</time>
      </trkpt>
      <trkpt lat="49.42902" lon="1.02461">
        <ele>10.23</ele>
        <time>2018-05-13T16:40:40Z</time>
      </trkpt>
      <trkpt lat="49.42907" lon="1.02467">
        <ele>10.23</ele>
        <time>2018-05-13T16:40:41Z</time>
      </trkpt>
      <trkpt lat="49.4298" lon="1.02536">
        <ele>10.23</ele>
        <time>2018-05-13T16:40:55Z</time>
      </trkpt>
      <trkpt lat="49.43088" lon="1.02636">
        <ele>10.23</ele>
        <time>2018-05-13T16:41:16Z</time>
      </trkpt>
      <trkpt lat="49.43167" lon="1.0271">
        <ele>10.23</ele>
        <time>2018-05-13T16:41:32Z</time>
      </trkpt>
      <trkpt lat="49.43246" lon="1.02786">
        <ele>10.23</ele>
        <time>2018-05-13T16:41:48Z</time>
      </trkpt>
      <trkpt lat="49.43305" lon="1.02844">
        <ele>11.19</ele>
        <time>2018-05-13T16:42:00Z</time>
      </trkpt>
      <trkpt lat="49.43385" lon="1.02949">
        <ele>11.19</ele>
        <time>2018-05-13T16:42:18Z</time>
      </trkpt>
      <trkpt lat="49.43464" lon="1.03071">
        <ele>10.23</ele>
        <time>2018-05-13T16:42:37Z</time>
      </trkpt>
      <trkpt lat="49.43546" lon="1.0321">
        <ele>10.23</ele>
        <time>2018-05-13T16:42:57Z</time>
      </trkpt>
      <trkpt lat="49.43637" lon="1.03358">
        <ele>9.75</ele>
        <time>2018-05-13T16:43:18Z</time>
      </trkpt>
      <trkpt lat="49.43722" lon="1.03484">
        <ele>9.75</ele>
        <time>2018-05-13T16:43:36Z</time>
      </trkpt>
      <trkpt lat="49.4379" lon="1.03603">
        <ele>11.19</ele>
        <time>2018-05-13T16:43:52Z</time>
      </trkpt>
      <trkpt lat="49.43795" lon="1.03608">
        <ele>11.19</ele>
        <time>2018-05-13T16:43:53Z</time>
      </trkpt>
      <trkpt lat="49.438" lon="1.03613">
        <ele>11.67</ele>
        <time>2018-05-13T16:43:54Z</time>
      </trkpt>
      <trkpt lat="49.43813" lon="1.03625">
        <ele>11.67</ele>
        <time>2018-05-13T16:43:57Z</time>
      </trkpt>
      <trkpt lat="49.43815" lon="1.03631">
        <ele>11.67</ele>
        <time>2018-05-13T16:43:58Z</time>
      </trkpt>
      <trkpt lat="49.43824" lon="1.0366">
        <ele>11.67</ele>
        <time>2018-05-13T16:44:02Z</time>
      </trkpt>
      <trkpt lat="49.43827" lon="1.03666">
        <ele>11.67</ele>
        <time>2018-05-13T16:44:03Z</time>
      </trkpt>
      <trkpt lat="49.4383" lon="1.03671">
        <ele>11.67</ele>
        <time>2018-05-13T16:44:04Z</time>
      </trkpt>
      <trkpt lat="49.43833" lon="1.03675">
        <ele>11.67</ele>
        <time>2018-05-13T16:44:05Z</time>
      </trkpt>
      <trkpt lat="49.43835" lon="1.0368">
        <ele>11.67</ele>
        <time>2018-05-13T16:44:06Z</time>
      </trkpt>
      <trkpt lat="49.43837" lon="1.03686">
        <ele>11.67</ele>
        <time>2018-05-13T16:44:07Z</time>
      </trkpt>
      <trkpt lat="49.43839" lon="1.0369">
        <ele>11.67</ele>
        <time>2018-05-13T16:44:08Z</time>
      </trkpt>
      <trkpt lat="49.43841" lon="1.03693">
        <ele>11.67</ele>
        <time>2018-05-13T16:44:09Z</time>
      </trkpt>
      <trkpt lat="49.43843" lon="1.03694">
        <ele>11.67</ele>
        <time>2018-05-13T16:44:10Z</time>
      </trkpt>
      <trkpt lat="49.43844" lon="1.03696">
        <ele>11.67</ele>
        <time>2018-05-13T16:44:11Z</time>
      </trkpt>
      <trkpt lat="49.43844" lon="1.03699">
        <ele>11.67</ele>
        <time>2018-05-13T16:44:12Z</time>
      </trkpt>
      <trkpt lat="49.43844" lon="1.03702">
        <ele>11.67</ele>
        <time>2018-05-13T16:44:13Z</time>
      </trkpt>
      <trkpt lat="49.43843" lon="1.03706">
        <ele>11.67</ele>
        <time>2018-05-13T16:44:14Z</time>
      </trkpt>
      <trkpt lat="49.43842" lon="1.0371">
        <ele>11.67</ele>
        <time>2018-05-13T16:44:15Z</time>
      </trkpt>
      <trkpt lat="49.43842" lon="1.03713">
        <ele>11.67</ele>
        <time>2018-05-13T16:44:16Z</time>
      </trkpt>
      <trkpt lat="49.43843" lon="1.03717">
        <ele>11.67</ele>
        <time>2018-05-13T16:44:17Z</time>
      </trkpt>
      <trkpt lat="49.43845" lon="1.0372">
        <ele>11.67</ele>
        <time>2018-05-13T16:44:18Z</time>
      </trkpt>
      <trkpt lat="49.43848" lon="1.03724">
        <ele>11.67</ele>
        <time>2018-05-13T16:44:19Z</time>
      </trkpt>
      <trkpt lat="49.43851" lon="1.03728">
        <ele>11.67</ele>
        <time>2018-05-13T16:44:20Z</time>
      </trkpt>
      <trkpt lat="49.43854" lon="1.03733">
        <ele>11.67</ele>
        <time>2018-05-13T16:44:21Z</time>
      </trkpt>
      <trkpt lat="49.43858" lon="1.03739">
        <ele>11.67</ele>
        <time>2018-05-13T16:44:22Z</time>
      </trkpt>
      <trkpt lat="49.43861" lon="1.03745">
        <ele>11.67</ele>
        <time>2018-05-13T16:44:23Z</time>
      </trkpt>
      <trkpt lat="49.43863" lon="1.03752">
        <ele>11.67</ele>
        <time>2018-05-13T16:44:24Z</time>
      </trkpt>
      <trkpt lat="49.43865" lon="1.0376">
        <ele>11.67</ele>
        <time>2018-05-13T16:44:25Z</time>
      </trkpt>
      <trkpt lat="49.43866" lon="1.03768">
        <ele>11.67</ele>
        <time>2018-05-13T16:44:26Z</time>
      </trkpt>
      <trkpt lat="49.4387" lon="1.03785">
        <ele>10.23</ele>
        <time>2018-05-13T16:44:28Z</time>
      </trkpt>
      <trkpt lat="49.43919" lon="1.03932">
        <ele>10.23</ele>
        <time>2018-05-13T16:44:46Z</time>
      </trkpt>
      <trkpt lat="49.43975" lon="1.04094">
        <ele>10.23</ele>
        <time>2018-05-13T16:45:06Z</time>
      </trkpt>
      <trkpt lat="49.44007" lon="1.0417">
        <ele>10.23</ele>
        <time>2018-05-13T16:45:16Z</time>
      </trkpt>
      <trkpt lat="49.44012" lon="1.04186">
        <ele>10.23</ele>
        <time>2018-05-13T16:45:18Z</time>
      </trkpt>
      <trkpt lat="49.44015" lon="1.04193">
        <ele>10.23</ele>
        <time>2018-05-13T16:45:19Z</time>
      </trkpt>
      <trkpt lat="49.44019" lon="1.042">
        <ele>10.23</ele>
        <time>2018-05-13T16:45:20Z</time>
      </trkpt>
      <trkpt lat="49.44023" lon="1.04206">
        <ele>10.23</ele>
        <time>2018-05-13T16:45:21Z</time>
      </trkpt>
      <trkpt lat="49.44026" lon="1.04213">
        <ele>10.23</ele>
        <time>2018-05-13T16:45:22Z</time>
      </trkpt>
      <trkpt lat="49.44086" lon="1.043">
        <ele>11.67</ele>
        <time>2018-05-13T16:45:36Z</time>
      </trkpt>
      <trkpt lat="49.44091" lon="1.04305">
        <ele>11.67</ele>
        <time>2018-05-13T16:45:37Z</time>
      </trkpt>
      <trkpt lat="49.44154" lon="1.04367">
        <ele>12.15</ele>
        <time>2018-05-13T16:45:50Z</time>
      </trkpt>
      <trkpt lat="49.44188" lon="1.04399">
        <ele>12.15</ele>
        <time>2018-05-13T16:45:57Z</time>
      </trkpt>
      <trkpt lat="49.4426" lon="1.04464">
        <ele>12.15</ele>
        <time>2018-05-13T16:46:12Z</time>
      </trkpt>
      <trkpt lat="49.44337" lon="1.04534">
        <ele>12.63</ele>
        <time>2018-05-13T16:46:27Z</time>
      </trkpt>
      <trkpt lat="49.44407" lon="1.04599">
        <ele>12.63</ele>
        <time>2018-05-13T16:46:41Z</time>
      </trkpt>
      <trkpt lat="49.4448" lon="1.04666">
        <ele>12.63</ele>
        <time>2018-05-13T16:46:55Z</time>
      </trkpt>
      <trkpt lat="49.44568" lon="1.04744">
        <ele>12.63</ele>
        <time>2018-05-13T16:47:11Z</time>
      </trkpt>
      <trkpt lat="49.44648" lon="1.04789">
        <ele>12.63</ele>
        <time>2018-05-13T16:47:25Z</time>
      </trkpt>
      <trkpt lat="49.4473" lon="1.04845">
        <ele>12.63</ele>
        <time>2018-05-13T16:47:40Z</time>
      </trkpt>
      <trkpt lat="49.44823" lon="1.04929">
        <ele>13.12</ele>
        <time>2018-05-13T16:47:58Z</time>
      </trkpt>
      <trkpt lat="49.44898" lon="1.04998">
        <ele>13.12</ele>
        <time>2018-05-13T16:48:12Z</time>
      </trkpt>
      <trkpt lat="49.44903" lon="1.05001">
        <ele>13.12</ele>
        <time>2018-05-13T16:48:13Z</time>
      </trkpt>
      <trkpt lat="49.44909" lon="1.05005">
        <ele>13.12</ele>
        <time>2018-05-13T16:48:15Z</time>
      </trkpt>
      <trkpt lat="49.4491" lon="1.05008">
        <ele>13.12</ele>
        <time>2018-05-13T16:48:16Z</time>
      </trkpt>
      <trkpt lat="49.44912" lon="1.05009">
        <ele>13.12</ele>
        <time>2018-05-13T16:48:17Z</time>
      </trkpt>
      <trkpt lat="49.44914" lon="1.05008">
        <ele>13.12</ele>
        <time>2018-05-13T16:48:18Z</time>
      </trkpt>
      <trkpt lat="49.44916" lon="1.05007">
        <ele>13.12</ele>
        <time>2018-05-13T16:48:19Z</time>
      </trkpt>
      <trkpt lat="49.44918" lon="1.05004">
        <ele>13.12</ele>
        <time>2018-05-13T16:48:20Z</time>
      </trkpt>
      <trkpt lat="49.4493" lon="1.05001">
        <ele>13.12</ele>
        <time>2018-05-13T16:48:25Z</time>
      </trkpt>
      <trkpt lat="49.44933" lon="1.05004">
        <ele>13.12</ele>
        <time>2018-05-13T16:48:26Z</time>
      </trkpt>
      <trkpt lat="49.44943" lon="1.05017">
        <ele>13.12</ele>
        <time>2018-05-13T16:48:29Z</time>
      </trkpt>
      <trkpt lat="49.44945" lon="1.05025">
        <ele>13.12</ele>
        <time>2018-05-13T16:48:30Z</time>
      </trkpt>
      <trkpt lat="49.44946" lon="1.05033">
        <ele>13.12</ele>
        <time>2018-05-13T16:48:31Z</time>
      </trkpt>
      <trkpt lat="49.44948" lon="1.0504">
        <ele>13.6</ele>
        <time>2018-05-13T16:48:32Z</time>
      </trkpt>
      <trkpt lat="49.44951" lon="1.05046">
        <ele>13.6</ele>
        <time>2018-05-13T16:48:33Z</time>
      </trkpt>
      <trkpt lat="49.44954" lon="1.05051">
        <ele>13.6</ele>
        <time>2018-05-13T16:48:34Z</time>
      </trkpt>
      <trkpt lat="49.44956" lon="1.05058">
        <ele>13.6</ele>
        <time>2018-05-13T16:48:35Z</time>
      </trkpt>
      <trkpt lat="49.44957" lon="1.05067">
        <ele>13.6</ele>
        <time>2018-05-13T16:48:36Z</time>
      </trkpt>
      <trkpt lat="49.44958" lon="1.05076">
        <ele>13.6</ele>
        <time>2018-05-13T16:48:37Z</time>
      </trkpt>
      <trkpt lat="49.4496" lon="1.05083">
        <ele>13.6</ele>
        <time>2018-05-13T16:48:38Z</time>
      </trkpt>
      <trkpt lat="49.44963" lon="1.0509">
        <ele>13.6</ele>
        <time>2018-05-13T16:48:39Z</time>
      </trkpt>
      <trkpt lat="49.44965" lon="1.05097">
        <ele>13.6</ele>
        <time>2018-05-13T16:48:40Z</time>
      </trkpt>
      <trkpt lat="49.44972" lon="1.05119">
        <ele>13.6</ele>
        <time>2018-05-13T16:48:43Z</time>
      </trkpt>
      <trkpt lat="49.44996" lon="1.05248">
        <ele>13.6</ele>
        <time>2018-05-13T16:48:58Z</time>
      </trkpt>
      <trkpt lat="49.45019" lon="1.05378">
        <ele>13.6</ele>
        <time>2018-05-13T16:49:12Z</time>
      </trkpt>
      <trkpt lat="49.45044" lon="1.05511">
        <ele>15.52</ele>
        <time>2018-05-13T16:49:26Z</time>
      </trkpt>
      <trkpt lat="49.4506" lon="1.05607">
        <ele>16.96</ele>
        <time>2018-05-13T16:49:36Z</time>
      </trkpt>
      <trkpt lat="49.45063" lon="1.05692">
        <ele>17.44</ele>
        <time>2018-05-13T16:49:45Z</time>
      </trkpt>
      <trkpt lat="49.4506" lon="1.0572">
        <ele>17.44</ele>
        <time>2018-05-13T16:49:48Z</time>
      </trkpt>
      <trkpt lat="49.45059" lon="1.05731">
        <ele>17.44</ele>
        <time>2018-05-13T16:49:49Z</time>
      </trkpt>
      <trkpt lat="49.45057" lon="1.0574">
        <ele>17.44</ele>
        <time>2018-05-13T16:49:50Z</time>
      </trkpt>
      <trkpt lat="49.45045" lon="1.05779">
        <ele>17.44</ele>
        <time>2018-05-13T16:49:54Z</time>
      </trkpt>
      <trkpt lat="49.45041" lon="1.05789">
        <ele>17.44</ele>
        <time>2018-05-13T16:49:55Z</time>
      </trkpt>
      <trkpt lat="49.45036" lon="1.05798">
        <ele>17.44</ele>
        <time>2018-05-13T16:49:56Z</time>
      </trkpt>
      <trkpt lat="49.45025" lon="1.05815">
        <ele>16.48</ele>
        <time>2018-05-13T16:49:58Z</time>
      </trkpt>
      <trkpt lat="49.44949" lon="1.05903">
        <ele>13.12</ele>
        <time>2018-05-13T16:50:09Z</time>
      </trkpt>
      <trkpt lat="49.44886" lon="1.05956">
        <ele>12.63</ele>
        <time>2018-05-13T16:50:17Z</time>
      </trkpt>
      <trkpt lat="49.44879" lon="1.05959">
        <ele>12.63</ele>
        <time>2018-05-13T16:50:18Z</time>
      </trkpt>
      <trkpt lat="49.44793" lon="1.05985">
        <ele>11.67</ele>
        <time>2018-05-13T16:50:28Z</time>
      </trkpt>
      <trkpt lat="49.44685" lon="1.0606">
        <ele>13.12</ele>
        <time>2018-05-13T16:50:42Z</time>
      </trkpt>
      <trkpt lat="49.44585" lon="1.0615">
        <ele>12.63</ele>
        <time>2018-05-13T16:50:56Z</time>
      </trkpt>
      <trkpt lat="49.44519" lon="1.06239">
        <ele>12.63</ele>
        <time>2018-05-13T16:51:07Z</time>
      </trkpt>
      <trkpt lat="49.44503" lon="1.06303">
        <ele>12.63</ele>
        <time>2018-05-13T16:51:13Z</time>
      </trkpt>
      <trkpt lat="49.44499" lon="1.06373">
        <ele>12.63</ele>
        <time>2018-05-13T16:51:20Z</time>
      </trkpt>
      <trkpt lat="49.44498" lon="1.06378">
        <ele>12.63</ele>
        <time>2018-05-13T16:51:21Z</time>
      </trkpt>
      <trkpt lat="49.44495" lon="1.06382">
        <ele>12.63</ele>
        <time>2018-05-13T16:51:22Z</time>
      </trkpt>
      <trkpt lat="49.44493" lon="1.06385">
        <ele>12.63</ele>
        <time>2018-05-13T16:51:23Z</time>
      </trkpt>
      <trkpt lat="49.44489" lon="1.06385">
        <ele>12.63</ele>
        <time>2018-05-13T16:51:24Z</time>
      </trkpt>
      <trkpt lat="49.44486" lon="1.06384">
        <ele>11.67</ele>
        <time>2018-05-13T16:51:25Z</time>
      </trkpt>
      <trkpt lat="49.44471" lon="1.06398">
        <ele>10.71</ele>
        <time>2018-05-13T16:51:31Z</time>
      </trkpt>
      <trkpt lat="49.44463" lon="1.06415">
        <ele>10.71</ele>
        <time>2018-05-13T16:51:34Z</time>
      </trkpt>
      <trkpt lat="49.4446" lon="1.06423">
        <ele>10.71</ele>
        <time>2018-05-13T16:51:35Z</time>
      </trkpt>
      <trkpt lat="49.44458" lon="1.06431">
        <ele>10.71</ele>
        <time>2018-05-13T16:51:36Z</time>
      </trkpt>
      <trkpt lat="49.44457" lon="1.0644">
        <ele>10.71</ele>
        <time>2018-05-13T16:51:37Z</time>
      </trkpt>
      <trkpt lat="49.44456" lon="1.06448">
        <ele>10.71</ele>
        <time>2018-05-13T16:51:38Z</time>
      </trkpt>
      <trkpt lat="49.44446" lon="1.06594">
        <ele>10.71</ele>
        <time>2018-05-13T16:51:55Z</time>
      </trkpt>
      <trkpt lat="49.44431" lon="1.06732">
        <ele>10.71</ele>
        <time>2018-05-13T16:52:11Z</time>
      </trkpt>
      <trkpt lat="49.44412" lon="1.06874">
        <ele>10.23</ele>
        <time>2018-05-13T16:52:27Z</time>
      </trkpt>
      <trkpt lat="49.44387" lon="1.07005">
        <ele>10.23</ele>
        <time>2018-05-13T16:52:42Z</time>
      </trkpt>
      <trkpt lat="49.44385" lon="1.07014">
        <ele>10.23</ele>
        <time>2018-05-13T16:52:43Z</time>
      </trkpt>
      <trkpt lat="49.44377" lon="1.07049">
        <ele>10.23</ele>
        <time>2018-05-13T16:52:47Z</time>
      </trkpt>
      <trkpt lat="49.44347" lon="1.07175">
        <ele>10.23</ele>
        <time>2018-05-13T16:53:02Z</time>
      </trkpt>
      <trkpt lat="49.44308" lon="1.07314">
        <ele>10.23</ele>
        <time>2018-05-13T16:53:19Z</time>
      </trkpt>
      <trkpt lat="49.44286" lon="1.07387">
        <ele>10.23</ele>
        <time>2018-05-13T16:53:28Z</time>
      </trkpt>
      <trkpt lat="49.4425" lon="1.07523">
        <ele>10.23</ele>
        <time>2018-05-13T16:53:43Z</time>
      </trkpt>
      <trkpt lat="49.44246" lon="1.07541">
        <ele>10.23</ele>
        <time>2018-05-13T16:53:45Z</time>
      </trkpt>
      <trkpt lat="49.44219" lon="1.07637">
        <ele>10.23</ele>
        <time>2018-05-13T16:53:57Z</time>
      </trkpt>
      <trkpt lat="49.44221" lon="1.07642">
        <ele>10.23</ele>
        <time>2018-05-13T16:53:58Z</time>
      </trkpt>
      <trkpt lat="49.44234" lon="1.0765">
        <ele>10.23</ele>
        <time>2018-05-13T16:54:01Z</time>
      </trkpt>
      <trkpt lat="49.44237" lon="1.07654">
        <ele>10.23</ele>
        <time>2018-05-13T16:54:02Z</time>
      </trkpt>
      <trkpt lat="49.4424" lon="1.07659">
        <ele>10.23</ele>
        <time>2018-05-13T16:54:03Z</time>
      </trkpt>
      <trkpt lat="49.44241" lon="1.07665">
        <ele>11.67</ele>
        <time>2018-05-13T16:54:04Z</time>
      </trkpt>
      <trkpt lat="49.44241" lon="1.0767">
        <ele>11.67</ele>
        <time>2018-05-13T16:54:05Z</time>
      </trkpt>
      <trkpt lat="49.44239" lon="1.07677">
        <ele>11.67</ele>
        <time>2018-05-13T16:54:06Z</time>
      </trkpt>
      <trkpt lat="49.44237" lon="1.07682">
        <ele>11.67</ele>
        <time>2018-05-13T16:54:07Z</time>
      </trkpt>
      <trkpt lat="49.44235" lon="1.07688">
        <ele>11.67</ele>
        <time>2018-05-13T16:54:08Z</time>
      </trkpt>
      <trkpt lat="49.44234" lon="1.07693">
        <ele>11.67</ele>
        <time>2018-05-13T16:54:09Z</time>
      </trkpt>
      <trkpt lat="49.44231" lon="1.07699">
        <ele>11.67</ele>
        <time>2018-05-13T16:54:10Z</time>
      </trkpt>
      <trkpt lat="49.44229" lon="1.07704">
        <ele>11.67</ele>
        <time>2018-05-13T16:54:11Z</time>
      </trkpt>
      <trkpt lat="49.44219" lon="1.07727">
        <ele>10.71</ele>
        <time>2018-05-13T16:54:15Z</time>
      </trkpt>
      <trkpt lat="49.44219" lon="1.07733">
        <ele>10.71</ele>
        <time>2018-05-13T16:54:16Z</time>
      </trkpt>
      <trkpt lat="49.44221" lon="1.07736">
        <ele>10.71</ele>
        <time>2018-05-13T16:54:17Z</time>
      </trkpt>
      <trkpt lat="49.44223" lon="1.07735">
        <ele>10.71</ele>
        <time>2018-05-13T16:54:18Z</time>
      </trkpt>
      <trkpt lat="49.44224" lon="1.07733">
        <ele>10.71</ele>
        <time>2018-05-13T16:54:19Z</time>
      </trkpt>
      <trkpt lat="49.44225" lon="1.07731">
        <ele>10.71</ele>
        <time>2018-05-13T16:54:20Z</time>
      </trkpt>
      <trkpt lat="49.44225" lon="1.07728">
        <ele>10.71</ele>
        <time>2018-05-13T16:54:21Z</time>
      </trkpt>
      <trkpt lat="49.44226" lon="1.07728">
        <ele>10.71</ele>
        <time>2018-05-13T16:54:22Z</time>
      </trkpt>
      <trkpt lat="49.44228" lon="1.07728">
        <ele>10.71</ele>
        <time>2018-05-13T16:54:23Z</time>
      </trkpt>
      <trkpt lat="49.4423" lon="1.07728">
        <ele>10.71</ele>
        <time>2018-05-13T16:54:24Z</time>
      </trkpt>
      <trkpt lat="49.44235" lon="1.07731">
        <ele>10.71</ele>
        <time>2018-05-13T16:54:36Z</time>
      </trkpt>
      <trkpt lat="49.44235" lon="1.07733">
        <ele>10.71</ele>
        <time>2018-05-13T16:55:07Z</time>
      </trkpt>
      <trkpt lat="49.44248" lon="1.07744">
        <ele>10.71</ele>
        <time>2018-05-13T16:55:17Z</time>
      </trkpt>
      <trkpt lat="49.44259" lon="1.07755">
        <ele>10.71</ele>
        <time>2018-05-13T16:55:20Z</time>
      </trkpt>
    </trkseg>
  </trk>
</gpx>